<?xml version="1.0" encoding="UTF-8" standalone="no" ?>
<gpx xmlns="http://www.topografix.com/GPX/1/1" xmlns:xsi="http://www.w3.org/2001/XMLSchema-instance" xsi:schemaLocation="http://www.topografix.com/GPX/1/1 http://www.topografix.com/GPX/1/1/gpx.xsd" version="1.1" creator="VisuGPX - https://www.visugpx.com">
  <metadata>
    <name>le coteau de la combe</name>
    <desc><![CDATA[le coteau de la combe]]></desc>
  </metadata>
  <trk>
    <name><![CDATA[LeCoteauDeLaCombeTim031110 on GPSies.com]]></name>
    <trkseg>
      <trkpt lat="43.76333" lon="5.50348">
        <ele>338.33</ele>
        <time>2010-12-16T22:54:39Z</time>
      </trkpt>
      <trkpt lat="43.76329" lon="5.50372">
        <ele>339.85</ele>
        <time>2010-12-16T22:54:47Z</time>
      </trkpt>
      <trkpt lat="43.76327" lon="5.50392">
        <ele>340.77</ele>
        <time>2010-12-16T22:54:52Z</time>
      </trkpt>
      <trkpt lat="43.7633" lon="5.50426">
        <ele>342.6</ele>
        <time>2010-12-16T22:55:02Z</time>
      </trkpt>
      <trkpt lat="43.7633" lon="5.50435">
        <ele>343.2</ele>
        <time>2010-12-16T22:55:05Z</time>
      </trkpt>
      <trkpt lat="43.76331" lon="5.50454">
        <ele>343.51</ele>
        <time>2010-12-16T22:55:10Z</time>
      </trkpt>
      <trkpt lat="43.76332" lon="5.50475">
        <ele>344.12</ele>
        <time>2010-12-16T22:55:16Z</time>
      </trkpt>
      <trkpt lat="43.76341" lon="5.50501">
        <ele>345.03</ele>
        <time>2010-12-16T22:55:25Z</time>
      </trkpt>
      <trkpt lat="43.76345" lon="5.50524">
        <ele>345.64</ele>
        <time>2010-12-16T22:55:32Z</time>
      </trkpt>
      <trkpt lat="43.76353" lon="5.50541">
        <ele>347.78</ele>
        <time>2010-12-16T22:55:37Z</time>
      </trkpt>
      <trkpt lat="43.76359" lon="5.50555">
        <ele>348.69</ele>
        <time>2010-12-16T22:55:42Z</time>
      </trkpt>
      <trkpt lat="43.7637" lon="5.50572">
        <ele>348.39</ele>
        <time>2010-12-16T22:55:49Z</time>
      </trkpt>
      <trkpt lat="43.7637" lon="5.50579">
        <ele>348.08</ele>
        <time>2010-12-16T22:55:51Z</time>
      </trkpt>
      <trkpt lat="43.76377" lon="5.50611">
        <ele>348.08</ele>
        <time>2010-12-16T22:56:00Z</time>
      </trkpt>
      <trkpt lat="43.76388" lon="5.50629">
        <ele>348.69</ele>
        <time>2010-12-16T22:56:07Z</time>
      </trkpt>
      <trkpt lat="43.76395" lon="5.50652">
        <ele>348.39</ele>
        <time>2010-12-16T22:56:14Z</time>
      </trkpt>
      <trkpt lat="43.76406" lon="5.5068">
        <ele>347.17</ele>
        <time>2010-12-16T22:56:23Z</time>
      </trkpt>
      <trkpt lat="43.76412" lon="5.50691">
        <ele>347.17</ele>
        <time>2010-12-16T22:56:27Z</time>
      </trkpt>
      <trkpt lat="43.76418" lon="5.50697">
        <ele>347.17</ele>
        <time>2010-12-16T22:56:30Z</time>
      </trkpt>
      <trkpt lat="43.76427" lon="5.50722">
        <ele>346.86</ele>
        <time>2010-12-16T22:56:38Z</time>
      </trkpt>
      <trkpt lat="43.76431" lon="5.50735">
        <ele>346.56</ele>
        <time>2010-12-16T22:56:43Z</time>
      </trkpt>
      <trkpt lat="43.7644" lon="5.50758">
        <ele>346.25</ele>
        <time>2010-12-16T22:56:50Z</time>
      </trkpt>
      <trkpt lat="43.76447" lon="5.50774">
        <ele>345.64</ele>
        <time>2010-12-16T22:56:55Z</time>
      </trkpt>
      <trkpt lat="43.76461" lon="5.5081">
        <ele>344.12</ele>
        <time>2010-12-16T22:57:07Z</time>
      </trkpt>
      <trkpt lat="43.76468" lon="5.50824">
        <ele>344.73</ele>
        <time>2010-12-16T22:57:12Z</time>
      </trkpt>
      <trkpt lat="43.76479" lon="5.50857">
        <ele>344.42</ele>
        <time>2010-12-16T22:57:23Z</time>
      </trkpt>
      <trkpt lat="43.76478" lon="5.50884">
        <ele>345.03</ele>
        <time>2010-12-16T22:57:30Z</time>
      </trkpt>
      <trkpt lat="43.76473" lon="5.50899">
        <ele>344.73</ele>
        <time>2010-12-16T22:57:35Z</time>
      </trkpt>
      <trkpt lat="43.76461" lon="5.50936">
        <ele>342.29</ele>
        <time>2010-12-16T22:57:47Z</time>
      </trkpt>
      <trkpt lat="43.76453" lon="5.50961">
        <ele>342.29</ele>
        <time>2010-12-16T22:57:55Z</time>
      </trkpt>
      <trkpt lat="43.76451" lon="5.50967">
        <ele>342.29</ele>
        <time>2010-12-16T22:57:57Z</time>
      </trkpt>
      <trkpt lat="43.76436" lon="5.50986">
        <ele>338.63</ele>
        <time>2010-12-16T22:58:05Z</time>
      </trkpt>
      <trkpt lat="43.76423" lon="5.51003">
        <ele>336.5</ele>
        <time>2010-12-16T22:58:12Z</time>
      </trkpt>
      <trkpt lat="43.76416" lon="5.51011">
        <ele>336.8</ele>
        <time>2010-12-16T22:58:16Z</time>
      </trkpt>
      <trkpt lat="43.76405" lon="5.51033">
        <ele>337.72</ele>
        <time>2010-12-16T22:58:23Z</time>
      </trkpt>
      <trkpt lat="43.7641" lon="5.51042">
        <ele>337.41</ele>
        <time>2010-12-16T22:58:27Z</time>
      </trkpt>
      <trkpt lat="43.76413" lon="5.51044">
        <ele>337.11</ele>
        <time>2010-12-16T22:58:28Z</time>
      </trkpt>
      <trkpt lat="43.76436" lon="5.51056">
        <ele>336.5</ele>
        <time>2010-12-16T22:58:38Z</time>
      </trkpt>
      <trkpt lat="43.76453" lon="5.51066">
        <ele>337.11</ele>
        <time>2010-12-16T22:58:45Z</time>
      </trkpt>
      <trkpt lat="43.76469" lon="5.51073">
        <ele>338.02</ele>
        <time>2010-12-16T22:58:52Z</time>
      </trkpt>
      <trkpt lat="43.76482" lon="5.51078">
        <ele>338.33</ele>
        <time>2010-12-16T22:58:57Z</time>
      </trkpt>
      <trkpt lat="43.76507" lon="5.51092">
        <ele>339.24</ele>
        <time>2010-12-16T22:59:08Z</time>
      </trkpt>
      <trkpt lat="43.76521" lon="5.51098">
        <ele>340.77</ele>
        <time>2010-12-16T22:59:14Z</time>
      </trkpt>
      <trkpt lat="43.76525" lon="5.51101">
        <ele>341.07</ele>
        <time>2010-12-16T22:59:16Z</time>
      </trkpt>
      <trkpt lat="43.76525" lon="5.51096">
        <ele>341.68</ele>
        <time>2010-12-16T22:59:17Z</time>
      </trkpt>
      <trkpt lat="43.76526" lon="5.51094">
        <ele>342.29</ele>
        <time>2010-12-16T22:59:18Z</time>
      </trkpt>
      <trkpt lat="43.76524" lon="5.51097">
        <ele>342.29</ele>
        <time>2010-12-16T22:59:19Z</time>
      </trkpt>
      <trkpt lat="43.76524" lon="5.51111">
        <ele>341.07</ele>
        <time>2010-12-16T22:59:23Z</time>
      </trkpt>
      <trkpt lat="43.76524" lon="5.51117">
        <ele>340.77</ele>
        <time>2010-12-16T22:59:25Z</time>
      </trkpt>
      <trkpt lat="43.76526" lon="5.51134">
        <ele>341.07</ele>
        <time>2010-12-16T22:59:30Z</time>
      </trkpt>
      <trkpt lat="43.76527" lon="5.51136">
        <ele>341.38</ele>
        <time>2010-12-16T22:59:30Z</time>
      </trkpt>
      <trkpt lat="43.76533" lon="5.51141">
        <ele>342.29</ele>
        <time>2010-12-16T22:59:33Z</time>
      </trkpt>
      <trkpt lat="43.76544" lon="5.51139">
        <ele>343.2</ele>
        <time>2010-12-16T22:59:38Z</time>
      </trkpt>
      <trkpt lat="43.76557" lon="5.51137">
        <ele>345.64</ele>
        <time>2010-12-16T22:59:43Z</time>
      </trkpt>
      <trkpt lat="43.7656" lon="5.51138">
        <ele>345.95</ele>
        <time>2010-12-16T22:59:44Z</time>
      </trkpt>
      <trkpt lat="43.76566" lon="5.51141">
        <ele>346.86</ele>
        <time>2010-12-16T22:59:47Z</time>
      </trkpt>
      <trkpt lat="43.76578" lon="5.51147">
        <ele>349.3</ele>
        <time>2010-12-16T22:59:52Z</time>
      </trkpt>
      <trkpt lat="43.7659" lon="5.51159">
        <ele>351.13</ele>
        <time>2010-12-16T22:59:58Z</time>
      </trkpt>
      <trkpt lat="43.76595" lon="5.51173">
        <ele>352.35</ele>
        <time>2010-12-16T23:00:02Z</time>
      </trkpt>
      <trkpt lat="43.76606" lon="5.51178">
        <ele>352.35</ele>
        <time>2010-12-16T23:00:07Z</time>
      </trkpt>
      <trkpt lat="43.76619" lon="5.51184">
        <ele>352.65</ele>
        <time>2010-12-16T23:00:12Z</time>
      </trkpt>
      <trkpt lat="43.76621" lon="5.51184">
        <ele>352.65</ele>
        <time>2010-12-16T23:00:13Z</time>
      </trkpt>
      <trkpt lat="43.76623" lon="5.51184">
        <ele>352.65</ele>
        <time>2010-12-16T23:00:14Z</time>
      </trkpt>
      <trkpt lat="43.76619" lon="5.51182">
        <ele>352.65</ele>
        <time>2010-12-16T23:00:16Z</time>
      </trkpt>
      <trkpt lat="43.76613" lon="5.51179">
        <ele>352.65</ele>
        <time>2010-12-16T23:00:18Z</time>
      </trkpt>
      <trkpt lat="43.76613" lon="5.51183">
        <ele>352.65</ele>
        <time>2010-12-16T23:00:19Z</time>
      </trkpt>
      <trkpt lat="43.76614" lon="5.51184">
        <ele>352.65</ele>
        <time>2010-12-16T23:00:20Z</time>
      </trkpt>
      <trkpt lat="43.76631" lon="5.51189">
        <ele>353.57</ele>
        <time>2010-12-16T23:00:27Z</time>
      </trkpt>
      <trkpt lat="43.76657" lon="5.51191">
        <ele>354.48</ele>
        <time>2010-12-16T23:00:37Z</time>
      </trkpt>
      <trkpt lat="43.7667" lon="5.51177">
        <ele>355.09</ele>
        <time>2010-12-16T23:00:44Z</time>
      </trkpt>
      <trkpt lat="43.76701" lon="5.51138">
        <ele>357.23</ele>
        <time>2010-12-16T23:01:01Z</time>
      </trkpt>
      <trkpt lat="43.7672" lon="5.51109">
        <ele>358.14</ele>
        <time>2010-12-16T23:01:12Z</time>
      </trkpt>
      <trkpt lat="43.76743" lon="5.51072">
        <ele>358.44</ele>
        <time>2010-12-16T23:01:26Z</time>
      </trkpt>
      <trkpt lat="43.76759" lon="5.51037">
        <ele>360.27</ele>
        <time>2010-12-16T23:01:38Z</time>
      </trkpt>
      <trkpt lat="43.7677" lon="5.51009">
        <ele>362.41</ele>
        <time>2010-12-16T23:01:48Z</time>
      </trkpt>
      <trkpt lat="43.76776" lon="5.50994">
        <ele>363.32</ele>
        <time>2010-12-16T23:01:53Z</time>
      </trkpt>
      <trkpt lat="43.76786" lon="5.50982">
        <ele>363.93</ele>
        <time>2010-12-16T23:01:58Z</time>
      </trkpt>
      <trkpt lat="43.76797" lon="5.50967">
        <ele>366.06</ele>
        <time>2010-12-16T23:02:04Z</time>
      </trkpt>
      <trkpt lat="43.76814" lon="5.50953">
        <ele>368.81</ele>
        <time>2010-12-16T23:02:12Z</time>
      </trkpt>
      <trkpt lat="43.76834" lon="5.50929">
        <ele>371.55</ele>
        <time>2010-12-16T23:02:22Z</time>
      </trkpt>
      <trkpt lat="43.7684" lon="5.50909">
        <ele>374.29</ele>
        <time>2010-12-16T23:02:29Z</time>
      </trkpt>
      <trkpt lat="43.76845" lon="5.50894">
        <ele>375.82</ele>
        <time>2010-12-16T23:02:33Z</time>
      </trkpt>
      <trkpt lat="43.76852" lon="5.50873">
        <ele>377.34</ele>
        <time>2010-12-16T23:02:40Z</time>
      </trkpt>
      <trkpt lat="43.76858" lon="5.50853">
        <ele>379.48</ele>
        <time>2010-12-16T23:02:46Z</time>
      </trkpt>
      <trkpt lat="43.76866" lon="5.5084">
        <ele>382.22</ele>
        <time>2010-12-16T23:02:51Z</time>
      </trkpt>
      <trkpt lat="43.76878" lon="5.50831">
        <ele>383.13</ele>
        <time>2010-12-16T23:02:57Z</time>
      </trkpt>
      <trkpt lat="43.76887" lon="5.50817">
        <ele>382.52</ele>
        <time>2010-12-16T23:03:02Z</time>
      </trkpt>
      <trkpt lat="43.7689" lon="5.5081">
        <ele>381</ele>
        <time>2010-12-16T23:03:04Z</time>
      </trkpt>
      <trkpt lat="43.76889" lon="5.50792">
        <ele>379.78</ele>
        <time>2010-12-16T23:03:10Z</time>
      </trkpt>
      <trkpt lat="43.76891" lon="5.50789">
        <ele>379.48</ele>
        <time>2010-12-16T23:03:11Z</time>
      </trkpt>
      <trkpt lat="43.76905" lon="5.50767">
        <ele>378.87</ele>
        <time>2010-12-16T23:03:19Z</time>
      </trkpt>
      <trkpt lat="43.76919" lon="5.50746">
        <ele>378.26</ele>
        <time>2010-12-16T23:03:28Z</time>
      </trkpt>
      <trkpt lat="43.76926" lon="5.50736">
        <ele>376.43</ele>
        <time>2010-12-16T23:03:32Z</time>
      </trkpt>
      <trkpt lat="43.76936" lon="5.50741">
        <ele>375.51</ele>
        <time>2010-12-16T23:03:36Z</time>
      </trkpt>
      <trkpt lat="43.76956" lon="5.50782">
        <ele>373.99</ele>
        <time>2010-12-16T23:03:50Z</time>
      </trkpt>
      <trkpt lat="43.76977" lon="5.5083">
        <ele>374.6</ele>
        <time>2010-12-16T23:04:06Z</time>
      </trkpt>
      <trkpt lat="43.76996" lon="5.50872">
        <ele>376.12</ele>
        <time>2010-12-16T23:04:21Z</time>
      </trkpt>
      <trkpt lat="43.7701" lon="5.50909">
        <ele>375.21</ele>
        <time>2010-12-16T23:04:32Z</time>
      </trkpt>
      <trkpt lat="43.77022" lon="5.50943">
        <ele>373.99</ele>
        <time>2010-12-16T23:04:44Z</time>
      </trkpt>
      <trkpt lat="43.77043" lon="5.50985">
        <ele>372.16</ele>
        <time>2010-12-16T23:04:58Z</time>
      </trkpt>
      <trkpt lat="43.77063" lon="5.51011">
        <ele>370.64</ele>
        <time>2010-12-16T23:05:09Z</time>
      </trkpt>
      <trkpt lat="43.77073" lon="5.51024">
        <ele>370.03</ele>
        <time>2010-12-16T23:05:15Z</time>
      </trkpt>
      <trkpt lat="43.77082" lon="5.51029">
        <ele>368.81</ele>
        <time>2010-12-16T23:05:18Z</time>
      </trkpt>
      <trkpt lat="43.77094" lon="5.51024">
        <ele>368.5</ele>
        <time>2010-12-16T23:05:24Z</time>
      </trkpt>
      <trkpt lat="43.77136" lon="5.51003">
        <ele>370.03</ele>
        <time>2010-12-16T23:05:41Z</time>
      </trkpt>
      <trkpt lat="43.7714" lon="5.51">
        <ele>370.33</ele>
        <time>2010-12-16T23:05:43Z</time>
      </trkpt>
      <trkpt lat="43.77166" lon="5.50987">
        <ele>371.86</ele>
        <time>2010-12-16T23:05:55Z</time>
      </trkpt>
      <trkpt lat="43.77203" lon="5.50965">
        <ele>373.08</ele>
        <time>2010-12-16T23:06:11Z</time>
      </trkpt>
      <trkpt lat="43.77238" lon="5.50946">
        <ele>374.29</ele>
        <time>2010-12-16T23:06:26Z</time>
      </trkpt>
      <trkpt lat="43.77274" lon="5.5093">
        <ele>375.51</ele>
        <time>2010-12-16T23:06:41Z</time>
      </trkpt>
      <trkpt lat="43.77298" lon="5.50918">
        <ele>377.04</ele>
        <time>2010-12-16T23:06:51Z</time>
      </trkpt>
      <trkpt lat="43.77319" lon="5.50909">
        <ele>377.95</ele>
        <time>2010-12-16T23:07:00Z</time>
      </trkpt>
      <trkpt lat="43.7735" lon="5.50899">
        <ele>378.87</ele>
        <time>2010-12-16T23:07:13Z</time>
      </trkpt>
      <trkpt lat="43.77381" lon="5.5089">
        <ele>380.09</ele>
        <time>2010-12-16T23:07:25Z</time>
      </trkpt>
      <trkpt lat="43.77409" lon="5.50881">
        <ele>381.3</ele>
        <time>2010-12-16T23:07:36Z</time>
      </trkpt>
      <trkpt lat="43.77443" lon="5.50867">
        <ele>382.22</ele>
        <time>2010-12-16T23:07:51Z</time>
      </trkpt>
      <trkpt lat="43.77471" lon="5.50855">
        <ele>383.13</ele>
        <time>2010-12-16T23:08:02Z</time>
      </trkpt>
      <trkpt lat="43.77492" lon="5.50847">
        <ele>384.05</ele>
        <time>2010-12-16T23:08:11Z</time>
      </trkpt>
      <trkpt lat="43.77516" lon="5.50838">
        <ele>384.96</ele>
        <time>2010-12-16T23:08:21Z</time>
      </trkpt>
      <trkpt lat="43.77547" lon="5.50826">
        <ele>386.18</ele>
        <time>2010-12-16T23:08:34Z</time>
      </trkpt>
      <trkpt lat="43.7757" lon="5.50817">
        <ele>387.4</ele>
        <time>2010-12-16T23:08:43Z</time>
      </trkpt>
      <trkpt lat="43.77602" lon="5.50805">
        <ele>389.23</ele>
        <time>2010-12-16T23:08:57Z</time>
      </trkpt>
      <trkpt lat="43.77624" lon="5.50801">
        <ele>389.23</ele>
        <time>2010-12-16T23:09:06Z</time>
      </trkpt>
      <trkpt lat="43.7764" lon="5.50797">
        <ele>389.53</ele>
        <time>2010-12-16T23:09:12Z</time>
      </trkpt>
      <trkpt lat="43.77662" lon="5.50794">
        <ele>390.75</ele>
        <time>2010-12-16T23:09:21Z</time>
      </trkpt>
      <trkpt lat="43.77694" lon="5.50795">
        <ele>391.97</ele>
        <time>2010-12-16T23:09:34Z</time>
      </trkpt>
      <trkpt lat="43.77731" lon="5.50791">
        <ele>393.5</ele>
        <time>2010-12-16T23:09:49Z</time>
      </trkpt>
      <trkpt lat="43.77747" lon="5.50793">
        <ele>394.41</ele>
        <time>2010-12-16T23:09:55Z</time>
      </trkpt>
      <trkpt lat="43.7776" lon="5.50802">
        <ele>395.02</ele>
        <time>2010-12-16T23:10:01Z</time>
      </trkpt>
      <trkpt lat="43.77782" lon="5.50811">
        <ele>395.94</ele>
        <time>2010-12-16T23:10:10Z</time>
      </trkpt>
      <trkpt lat="43.7781" lon="5.50821">
        <ele>396.85</ele>
        <time>2010-12-16T23:10:22Z</time>
      </trkpt>
      <trkpt lat="43.77841" lon="5.5083">
        <ele>398.07</ele>
        <time>2010-12-16T23:10:34Z</time>
      </trkpt>
      <trkpt lat="43.77866" lon="5.50835">
        <ele>398.98</ele>
        <time>2010-12-16T23:10:45Z</time>
      </trkpt>
      <trkpt lat="43.77902" lon="5.50843">
        <ele>400.2</ele>
        <time>2010-12-16T23:10:59Z</time>
      </trkpt>
      <trkpt lat="43.77928" lon="5.50846">
        <ele>401.42</ele>
        <time>2010-12-16T23:11:10Z</time>
      </trkpt>
      <trkpt lat="43.77967" lon="5.50847">
        <ele>403.25</ele>
        <time>2010-12-16T23:11:25Z</time>
      </trkpt>
      <trkpt lat="43.77997" lon="5.50848">
        <ele>404.47</ele>
        <time>2010-12-16T23:11:37Z</time>
      </trkpt>
      <trkpt lat="43.78026" lon="5.50848">
        <ele>405.99</ele>
        <time>2010-12-16T23:11:49Z</time>
      </trkpt>
      <trkpt lat="43.78061" lon="5.50845">
        <ele>407.52</ele>
        <time>2010-12-16T23:12:03Z</time>
      </trkpt>
      <trkpt lat="43.78086" lon="5.50842">
        <ele>410.26</ele>
        <time>2010-12-16T23:12:13Z</time>
      </trkpt>
      <trkpt lat="43.78112" lon="5.50844">
        <ele>411.78</ele>
        <time>2010-12-16T23:12:23Z</time>
      </trkpt>
      <trkpt lat="43.78137" lon="5.50855">
        <ele>413.92</ele>
        <time>2010-12-16T23:12:34Z</time>
      </trkpt>
      <trkpt lat="43.78158" lon="5.50864">
        <ele>416.97</ele>
        <time>2010-12-16T23:12:43Z</time>
      </trkpt>
      <trkpt lat="43.78186" lon="5.50872">
        <ele>419.71</ele>
        <time>2010-12-16T23:12:54Z</time>
      </trkpt>
      <trkpt lat="43.78212" lon="5.50876">
        <ele>421.23</ele>
        <time>2010-12-16T23:13:04Z</time>
      </trkpt>
      <trkpt lat="43.7824" lon="5.50882">
        <ele>421.84</ele>
        <time>2010-12-16T23:13:16Z</time>
      </trkpt>
      <trkpt lat="43.78267" lon="5.50887">
        <ele>419.4</ele>
        <time>2010-12-16T23:13:27Z</time>
      </trkpt>
      <trkpt lat="43.78315" lon="5.50897">
        <ele>418.8</ele>
        <time>2010-12-16T23:13:46Z</time>
      </trkpt>
      <trkpt lat="43.78358" lon="5.50904">
        <ele>419.4</ele>
        <time>2010-12-16T23:14:04Z</time>
      </trkpt>
      <trkpt lat="43.78393" lon="5.50905">
        <ele>420.01</ele>
        <time>2010-12-16T23:14:17Z</time>
      </trkpt>
      <trkpt lat="43.78428" lon="5.50912">
        <ele>420.62</ele>
        <time>2010-12-16T23:14:32Z</time>
      </trkpt>
      <trkpt lat="43.78454" lon="5.5092">
        <ele>421.84</ele>
        <time>2010-12-16T23:14:43Z</time>
      </trkpt>
      <trkpt lat="43.78476" lon="5.50928">
        <ele>424.59</ele>
        <time>2010-12-16T23:14:52Z</time>
      </trkpt>
      <trkpt lat="43.78499" lon="5.50937">
        <ele>428.24</ele>
        <time>2010-12-16T23:15:01Z</time>
      </trkpt>
      <trkpt lat="43.78521" lon="5.50939">
        <ele>428.85</ele>
        <time>2010-12-16T23:15:10Z</time>
      </trkpt>
      <trkpt lat="43.78548" lon="5.50942">
        <ele>430.38</ele>
        <time>2010-12-16T23:15:21Z</time>
      </trkpt>
      <trkpt lat="43.78579" lon="5.50951">
        <ele>432.21</ele>
        <time>2010-12-16T23:15:34Z</time>
      </trkpt>
      <trkpt lat="43.78606" lon="5.50967">
        <ele>433.12</ele>
        <time>2010-12-16T23:15:45Z</time>
      </trkpt>
      <trkpt lat="43.78629" lon="5.50982">
        <ele>434.04</ele>
        <time>2010-12-16T23:15:55Z</time>
      </trkpt>
      <trkpt lat="43.78657" lon="5.50992">
        <ele>434.95</ele>
        <time>2010-12-16T23:16:07Z</time>
      </trkpt>
      <trkpt lat="43.7869" lon="5.50997">
        <ele>436.17</ele>
        <time>2010-12-16T23:16:20Z</time>
      </trkpt>
      <trkpt lat="43.78718" lon="5.51">
        <ele>438</ele>
        <time>2010-12-16T23:16:32Z</time>
      </trkpt>
      <trkpt lat="43.78748" lon="5.50997">
        <ele>440.13</ele>
        <time>2010-12-16T23:16:43Z</time>
      </trkpt>
      <trkpt lat="43.78778" lon="5.50993">
        <ele>441.35</ele>
        <time>2010-12-16T23:16:56Z</time>
      </trkpt>
      <trkpt lat="43.78804" lon="5.50997">
        <ele>442.57</ele>
        <time>2010-12-16T23:17:06Z</time>
      </trkpt>
      <trkpt lat="43.78827" lon="5.51006">
        <ele>443.79</ele>
        <time>2010-12-16T23:17:16Z</time>
      </trkpt>
      <trkpt lat="43.78848" lon="5.51011">
        <ele>445.01</ele>
        <time>2010-12-16T23:17:24Z</time>
      </trkpt>
      <trkpt lat="43.78868" lon="5.51012">
        <ele>446.23</ele>
        <time>2010-12-16T23:17:32Z</time>
      </trkpt>
      <trkpt lat="43.78893" lon="5.51015">
        <ele>446.23</ele>
        <time>2010-12-16T23:17:42Z</time>
      </trkpt>
      <trkpt lat="43.78919" lon="5.51019">
        <ele>445.62</ele>
        <time>2010-12-16T23:17:53Z</time>
      </trkpt>
      <trkpt lat="43.78951" lon="5.51022">
        <ele>444.4</ele>
        <time>2010-12-16T23:18:06Z</time>
      </trkpt>
      <trkpt lat="43.79" lon="5.51026">
        <ele>445.01</ele>
        <time>2010-12-16T23:18:25Z</time>
      </trkpt>
      <trkpt lat="43.79029" lon="5.5103">
        <ele>445.62</ele>
        <time>2010-12-16T23:18:37Z</time>
      </trkpt>
      <trkpt lat="43.79054" lon="5.51034">
        <ele>446.53</ele>
        <time>2010-12-16T23:18:47Z</time>
      </trkpt>
      <trkpt lat="43.7908" lon="5.51037">
        <ele>447.75</ele>
        <time>2010-12-16T23:18:57Z</time>
      </trkpt>
      <trkpt lat="43.79106" lon="5.51042">
        <ele>449.88</ele>
        <time>2010-12-16T23:19:08Z</time>
      </trkpt>
      <trkpt lat="43.79122" lon="5.5105">
        <ele>451.41</ele>
        <time>2010-12-16T23:19:15Z</time>
      </trkpt>
      <trkpt lat="43.79139" lon="5.51052">
        <ele>454.46</ele>
        <time>2010-12-16T23:19:22Z</time>
      </trkpt>
      <trkpt lat="43.79151" lon="5.51048">
        <ele>457.81</ele>
        <time>2010-12-16T23:19:26Z</time>
      </trkpt>
      <trkpt lat="43.79168" lon="5.51045">
        <ele>459.64</ele>
        <time>2010-12-16T23:19:33Z</time>
      </trkpt>
      <trkpt lat="43.79187" lon="5.51041">
        <ele>461.16</ele>
        <time>2010-12-16T23:19:41Z</time>
      </trkpt>
      <trkpt lat="43.79202" lon="5.51033">
        <ele>462.38</ele>
        <time>2010-12-16T23:19:47Z</time>
      </trkpt>
      <trkpt lat="43.7922" lon="5.51019">
        <ele>463.91</ele>
        <time>2010-12-16T23:19:56Z</time>
      </trkpt>
      <trkpt lat="43.79233" lon="5.51011">
        <ele>465.43</ele>
        <time>2010-12-16T23:20:02Z</time>
      </trkpt>
      <trkpt lat="43.79245" lon="5.51002">
        <ele>467.26</ele>
        <time>2010-12-16T23:20:07Z</time>
      </trkpt>
      <trkpt lat="43.79262" lon="5.50986">
        <ele>469.7</ele>
        <time>2010-12-16T23:20:15Z</time>
      </trkpt>
      <trkpt lat="43.79279" lon="5.5097">
        <ele>470.92</ele>
        <time>2010-12-16T23:20:23Z</time>
      </trkpt>
      <trkpt lat="43.793" lon="5.50953">
        <ele>471.83</ele>
        <time>2010-12-16T23:20:33Z</time>
      </trkpt>
      <trkpt lat="43.79319" lon="5.50934">
        <ele>474.57</ele>
        <time>2010-12-16T23:20:43Z</time>
      </trkpt>
      <trkpt lat="43.79335" lon="5.50928">
        <ele>477.32</ele>
        <time>2010-12-16T23:20:49Z</time>
      </trkpt>
      <trkpt lat="43.79353" lon="5.50923">
        <ele>480.97</ele>
        <time>2010-12-16T23:20:57Z</time>
      </trkpt>
      <trkpt lat="43.7937" lon="5.50918">
        <ele>485.85</ele>
        <time>2010-12-16T23:21:04Z</time>
      </trkpt>
      <trkpt lat="43.79388" lon="5.50909">
        <ele>489.51</ele>
        <time>2010-12-16T23:21:11Z</time>
      </trkpt>
      <trkpt lat="43.79401" lon="5.50903">
        <ele>491.64</ele>
        <time>2010-12-16T23:21:17Z</time>
      </trkpt>
      <trkpt lat="43.79415" lon="5.50895">
        <ele>494.08</ele>
        <time>2010-12-16T23:21:23Z</time>
      </trkpt>
      <trkpt lat="43.79432" lon="5.50884">
        <ele>498.04</ele>
        <time>2010-12-16T23:21:30Z</time>
      </trkpt>
      <trkpt lat="43.79443" lon="5.50876">
        <ele>500.18</ele>
        <time>2010-12-16T23:21:35Z</time>
      </trkpt>
      <trkpt lat="43.79454" lon="5.50866">
        <ele>502.92</ele>
        <time>2010-12-16T23:21:40Z</time>
      </trkpt>
      <trkpt lat="43.79465" lon="5.50858">
        <ele>506.58</ele>
        <time>2010-12-16T23:21:45Z</time>
      </trkpt>
      <trkpt lat="43.79477" lon="5.50847">
        <ele>507.8</ele>
        <time>2010-12-16T23:21:51Z</time>
      </trkpt>
      <trkpt lat="43.79493" lon="5.50833">
        <ele>509.63</ele>
        <time>2010-12-16T23:21:59Z</time>
      </trkpt>
      <trkpt lat="43.79504" lon="5.50821">
        <ele>505.97</ele>
        <time>2010-12-16T23:22:04Z</time>
      </trkpt>
      <trkpt lat="43.79516" lon="5.50812">
        <ele>504.14</ele>
        <time>2010-12-16T23:22:10Z</time>
      </trkpt>
      <trkpt lat="43.79538" lon="5.50799">
        <ele>502.31</ele>
        <time>2010-12-16T23:22:19Z</time>
      </trkpt>
      <trkpt lat="43.79545" lon="5.50802">
        <ele>502.31</ele>
        <time>2010-12-16T23:22:22Z</time>
      </trkpt>
      <trkpt lat="43.7956" lon="5.50808">
        <ele>500.79</ele>
        <time>2010-12-16T23:22:28Z</time>
      </trkpt>
      <trkpt lat="43.79575" lon="5.50814">
        <ele>499.87</ele>
        <time>2010-12-16T23:22:35Z</time>
      </trkpt>
      <trkpt lat="43.79594" lon="5.50815">
        <ele>495.3</ele>
        <time>2010-12-16T23:22:42Z</time>
      </trkpt>
      <trkpt lat="43.79618" lon="5.50817">
        <ele>495.3</ele>
        <time>2010-12-16T23:22:52Z</time>
      </trkpt>
      <trkpt lat="43.79635" lon="5.5082">
        <ele>495.91</ele>
        <time>2010-12-16T23:22:59Z</time>
      </trkpt>
      <trkpt lat="43.79651" lon="5.50829">
        <ele>496.82</ele>
        <time>2010-12-16T23:23:06Z</time>
      </trkpt>
      <trkpt lat="43.79664" lon="5.50838">
        <ele>496.82</ele>
        <time>2010-12-16T23:23:12Z</time>
      </trkpt>
      <trkpt lat="43.79677" lon="5.5084">
        <ele>496.21</ele>
        <time>2010-12-16T23:23:17Z</time>
      </trkpt>
      <trkpt lat="43.79689" lon="5.50835">
        <ele>498.04</ele>
        <time>2010-12-16T23:23:22Z</time>
      </trkpt>
      <trkpt lat="43.797" lon="5.50823">
        <ele>502.92</ele>
        <time>2010-12-16T23:23:27Z</time>
      </trkpt>
      <trkpt lat="43.79709" lon="5.50818">
        <ele>506.88</ele>
        <time>2010-12-16T23:23:31Z</time>
      </trkpt>
      <trkpt lat="43.7972" lon="5.50816">
        <ele>510.24</ele>
        <time>2010-12-16T23:23:36Z</time>
      </trkpt>
      <trkpt lat="43.79725" lon="5.50815">
        <ele>511.45</ele>
        <time>2010-12-16T23:23:38Z</time>
      </trkpt>
      <trkpt lat="43.79735" lon="5.50816">
        <ele>519.07</ele>
        <time>2010-12-16T23:23:42Z</time>
      </trkpt>
      <trkpt lat="43.79747" lon="5.50814">
        <ele>527</ele>
        <time>2010-12-16T23:23:47Z</time>
      </trkpt>
      <trkpt lat="43.79755" lon="5.50813">
        <ele>531.27</ele>
        <time>2010-12-16T23:23:50Z</time>
      </trkpt>
      <trkpt lat="43.79765" lon="5.5081">
        <ele>534.01</ele>
        <time>2010-12-16T23:23:54Z</time>
      </trkpt>
      <trkpt lat="43.79773" lon="5.50807">
        <ele>535.53</ele>
        <time>2010-12-16T23:23:57Z</time>
      </trkpt>
      <trkpt lat="43.79785" lon="5.508">
        <ele>536.45</ele>
        <time>2010-12-16T23:24:03Z</time>
      </trkpt>
      <trkpt lat="43.79795" lon="5.50794">
        <ele>536.45</ele>
        <time>2010-12-16T23:24:07Z</time>
      </trkpt>
      <trkpt lat="43.79808" lon="5.50787">
        <ele>537.36</ele>
        <time>2010-12-16T23:24:12Z</time>
      </trkpt>
      <trkpt lat="43.79821" lon="5.50778">
        <ele>533.7</ele>
        <time>2010-12-16T23:24:18Z</time>
      </trkpt>
      <trkpt lat="43.79834" lon="5.50777">
        <ele>531.57</ele>
        <time>2010-12-16T23:24:24Z</time>
      </trkpt>
      <trkpt lat="43.79853" lon="5.50773">
        <ele>530.96</ele>
        <time>2010-12-16T23:24:31Z</time>
      </trkpt>
      <trkpt lat="43.79863" lon="5.50764">
        <ele>530.66</ele>
        <time>2010-12-16T23:24:36Z</time>
      </trkpt>
      <trkpt lat="43.79875" lon="5.50752">
        <ele>530.66</ele>
        <time>2010-12-16T23:24:42Z</time>
      </trkpt>
      <trkpt lat="43.79888" lon="5.50744">
        <ele>531.88</ele>
        <time>2010-12-16T23:24:47Z</time>
      </trkpt>
      <trkpt lat="43.799" lon="5.50745">
        <ele>532.49</ele>
        <time>2010-12-16T23:24:52Z</time>
      </trkpt>
      <trkpt lat="43.79912" lon="5.50755">
        <ele>533.7</ele>
        <time>2010-12-16T23:24:58Z</time>
      </trkpt>
      <trkpt lat="43.79923" lon="5.50758">
        <ele>534.31</ele>
        <time>2010-12-16T23:25:02Z</time>
      </trkpt>
      <trkpt lat="43.79935" lon="5.50753">
        <ele>537.36</ele>
        <time>2010-12-16T23:25:07Z</time>
      </trkpt>
      <trkpt lat="43.79948" lon="5.50747">
        <ele>540.41</ele>
        <time>2010-12-16T23:25:13Z</time>
      </trkpt>
      <trkpt lat="43.79958" lon="5.50744">
        <ele>541.63</ele>
        <time>2010-12-16T23:25:17Z</time>
      </trkpt>
      <trkpt lat="43.79969" lon="5.50737">
        <ele>541.32</ele>
        <time>2010-12-16T23:25:22Z</time>
      </trkpt>
      <trkpt lat="43.79976" lon="5.50729">
        <ele>539.5</ele>
        <time>2010-12-16T23:25:26Z</time>
      </trkpt>
      <trkpt lat="43.79988" lon="5.50715">
        <ele>534.31</ele>
        <time>2010-12-16T23:25:32Z</time>
      </trkpt>
      <trkpt lat="43.79997" lon="5.50706">
        <ele>532.49</ele>
        <time>2010-12-16T23:25:36Z</time>
      </trkpt>
      <trkpt lat="43.79998" lon="5.50704">
        <ele>532.49</ele>
        <time>2010-12-16T23:25:37Z</time>
      </trkpt>
      <trkpt lat="43.8001" lon="5.50693">
        <ele>534.92</ele>
        <time>2010-12-16T23:25:43Z</time>
      </trkpt>
      <trkpt lat="43.80023" lon="5.50679">
        <ele>536.75</ele>
        <time>2010-12-16T23:25:49Z</time>
      </trkpt>
      <trkpt lat="43.80037" lon="5.50668">
        <ele>541.02</ele>
        <time>2010-12-16T23:25:56Z</time>
      </trkpt>
      <trkpt lat="43.80046" lon="5.50654">
        <ele>539.5</ele>
        <time>2010-12-16T23:26:01Z</time>
      </trkpt>
      <trkpt lat="43.80052" lon="5.50646">
        <ele>542.54</ele>
        <time>2010-12-16T23:26:05Z</time>
      </trkpt>
      <trkpt lat="43.80056" lon="5.50634">
        <ele>543.15</ele>
        <time>2010-12-16T23:26:08Z</time>
      </trkpt>
      <trkpt lat="43.80062" lon="5.50617">
        <ele>542.85</ele>
        <time>2010-12-16T23:26:14Z</time>
      </trkpt>
      <trkpt lat="43.80068" lon="5.5061">
        <ele>544.68</ele>
        <time>2010-12-16T23:26:17Z</time>
      </trkpt>
      <trkpt lat="43.80081" lon="5.50608">
        <ele>546.2</ele>
        <time>2010-12-16T23:26:22Z</time>
      </trkpt>
      <trkpt lat="43.80093" lon="5.50614">
        <ele>549.25</ele>
        <time>2010-12-16T23:26:27Z</time>
      </trkpt>
      <trkpt lat="43.801" lon="5.50623">
        <ele>550.16</ele>
        <time>2010-12-16T23:26:31Z</time>
      </trkpt>
      <trkpt lat="43.80106" lon="5.50634">
        <ele>550.77</ele>
        <time>2010-12-16T23:26:35Z</time>
      </trkpt>
      <trkpt lat="43.80115" lon="5.50648">
        <ele>551.08</ele>
        <time>2010-12-16T23:26:40Z</time>
      </trkpt>
      <trkpt lat="43.80124" lon="5.5066">
        <ele>551.08</ele>
        <time>2010-12-16T23:26:45Z</time>
      </trkpt>
      <trkpt lat="43.80132" lon="5.50672">
        <ele>552.3</ele>
        <time>2010-12-16T23:26:50Z</time>
      </trkpt>
      <trkpt lat="43.80143" lon="5.50681">
        <ele>554.43</ele>
        <time>2010-12-16T23:26:55Z</time>
      </trkpt>
      <trkpt lat="43.80153" lon="5.50687">
        <ele>555.96</ele>
        <time>2010-12-16T23:26:59Z</time>
      </trkpt>
      <trkpt lat="43.80168" lon="5.5069">
        <ele>558.09</ele>
        <time>2010-12-16T23:27:06Z</time>
      </trkpt>
      <trkpt lat="43.80184" lon="5.50692">
        <ele>559.31</ele>
        <time>2010-12-16T23:27:12Z</time>
      </trkpt>
      <trkpt lat="43.80199" lon="5.50692">
        <ele>559.31</ele>
        <time>2010-12-16T23:27:18Z</time>
      </trkpt>
      <trkpt lat="43.80221" lon="5.50702">
        <ele>560.22</ele>
        <time>2010-12-16T23:27:27Z</time>
      </trkpt>
      <trkpt lat="43.80235" lon="5.50713">
        <ele>560.22</ele>
        <time>2010-12-16T23:27:34Z</time>
      </trkpt>
      <trkpt lat="43.80247" lon="5.50728">
        <ele>560.53</ele>
        <time>2010-12-16T23:27:40Z</time>
      </trkpt>
      <trkpt lat="43.80263" lon="5.50742">
        <ele>562.05</ele>
        <time>2010-12-16T23:27:48Z</time>
      </trkpt>
      <trkpt lat="43.80283" lon="5.50758">
        <ele>564.79</ele>
        <time>2010-12-16T23:27:57Z</time>
      </trkpt>
      <trkpt lat="43.80298" lon="5.50775">
        <ele>566.32</ele>
        <time>2010-12-16T23:28:05Z</time>
      </trkpt>
      <trkpt lat="43.8031" lon="5.50801">
        <ele>567.54</ele>
        <time>2010-12-16T23:28:14Z</time>
      </trkpt>
      <trkpt lat="43.80318" lon="5.50816">
        <ele>562.97</ele>
        <time>2010-12-16T23:28:19Z</time>
      </trkpt>
      <trkpt lat="43.80334" lon="5.50828">
        <ele>561.14</ele>
        <time>2010-12-16T23:28:26Z</time>
      </trkpt>
      <trkpt lat="43.80354" lon="5.5084">
        <ele>560.22</ele>
        <time>2010-12-16T23:28:35Z</time>
      </trkpt>
      <trkpt lat="43.80369" lon="5.50837">
        <ele>559.92</ele>
        <time>2010-12-16T23:28:41Z</time>
      </trkpt>
      <trkpt lat="43.8038" lon="5.50841">
        <ele>560.53</ele>
        <time>2010-12-16T23:28:46Z</time>
      </trkpt>
      <trkpt lat="43.80391" lon="5.50857">
        <ele>561.75</ele>
        <time>2010-12-16T23:28:52Z</time>
      </trkpt>
      <trkpt lat="43.80397" lon="5.50875">
        <ele>563.27</ele>
        <time>2010-12-16T23:28:58Z</time>
      </trkpt>
      <trkpt lat="43.80403" lon="5.50894">
        <ele>564.49</ele>
        <time>2010-12-16T23:29:04Z</time>
      </trkpt>
      <trkpt lat="43.80409" lon="5.50911">
        <ele>566.01</ele>
        <time>2010-12-16T23:29:09Z</time>
      </trkpt>
      <trkpt lat="43.80411" lon="5.5093">
        <ele>567.54</ele>
        <time>2010-12-16T23:29:15Z</time>
      </trkpt>
      <trkpt lat="43.80409" lon="5.50948">
        <ele>570.28</ele>
        <time>2010-12-16T23:29:20Z</time>
      </trkpt>
      <trkpt lat="43.80408" lon="5.5097">
        <ele>573.33</ele>
        <time>2010-12-16T23:29:26Z</time>
      </trkpt>
      <trkpt lat="43.80407" lon="5.50994">
        <ele>574.85</ele>
        <time>2010-12-16T23:29:33Z</time>
      </trkpt>
      <trkpt lat="43.80411" lon="5.51018">
        <ele>577.6</ele>
        <time>2010-12-16T23:29:40Z</time>
      </trkpt>
      <trkpt lat="43.80419" lon="5.51033">
        <ele>579.73</ele>
        <time>2010-12-16T23:29:46Z</time>
      </trkpt>
      <trkpt lat="43.80426" lon="5.5104">
        <ele>581.56</ele>
        <time>2010-12-16T23:29:49Z</time>
      </trkpt>
      <trkpt lat="43.80437" lon="5.51051">
        <ele>583.69</ele>
        <time>2010-12-16T23:29:55Z</time>
      </trkpt>
      <trkpt lat="43.80452" lon="5.5106">
        <ele>585.22</ele>
        <time>2010-12-16T23:30:01Z</time>
      </trkpt>
      <trkpt lat="43.80462" lon="5.51061">
        <ele>586.13</ele>
        <time>2010-12-16T23:30:05Z</time>
      </trkpt>
      <trkpt lat="43.80467" lon="5.51074">
        <ele>587.35</ele>
        <time>2010-12-16T23:30:09Z</time>
      </trkpt>
      <trkpt lat="43.80462" lon="5.51086">
        <ele>587.04</ele>
        <time>2010-12-16T23:30:13Z</time>
      </trkpt>
      <trkpt lat="43.80459" lon="5.5111">
        <ele>587.35</ele>
        <time>2010-12-16T23:30:20Z</time>
      </trkpt>
      <trkpt lat="43.80465" lon="5.51134">
        <ele>588.57</ele>
        <time>2010-12-16T23:30:28Z</time>
      </trkpt>
      <trkpt lat="43.8047" lon="5.51151">
        <ele>589.48</ele>
        <time>2010-12-16T23:30:33Z</time>
      </trkpt>
      <trkpt lat="43.80471" lon="5.51172">
        <ele>591.31</ele>
        <time>2010-12-16T23:30:39Z</time>
      </trkpt>
      <trkpt lat="43.80476" lon="5.51188">
        <ele>592.53</ele>
        <time>2010-12-16T23:30:44Z</time>
      </trkpt>
      <trkpt lat="43.80484" lon="5.51207">
        <ele>594.06</ele>
        <time>2010-12-16T23:30:51Z</time>
      </trkpt>
      <trkpt lat="43.80492" lon="5.51225">
        <ele>595.58</ele>
        <time>2010-12-16T23:30:57Z</time>
      </trkpt>
      <trkpt lat="43.80499" lon="5.5124">
        <ele>596.49</ele>
        <time>2010-12-16T23:31:02Z</time>
      </trkpt>
      <trkpt lat="43.80502" lon="5.51255">
        <ele>597.41</ele>
        <time>2010-12-16T23:31:06Z</time>
      </trkpt>
      <trkpt lat="43.80503" lon="5.51263">
        <ele>598.02</ele>
        <time>2010-12-16T23:31:09Z</time>
      </trkpt>
      <trkpt lat="43.80507" lon="5.51269">
        <ele>599.24</ele>
        <time>2010-12-16T23:31:11Z</time>
      </trkpt>
      <trkpt lat="43.80515" lon="5.51281">
        <ele>600.46</ele>
        <time>2010-12-16T23:31:16Z</time>
      </trkpt>
      <trkpt lat="43.80516" lon="5.51283">
        <ele>600.46</ele>
        <time>2010-12-16T23:31:16Z</time>
      </trkpt>
      <trkpt lat="43.80519" lon="5.51284">
        <ele>601.07</ele>
        <time>2010-12-16T23:31:18Z</time>
      </trkpt>
      <trkpt lat="43.80521" lon="5.51283">
        <ele>601.07</ele>
        <time>2010-12-16T23:31:18Z</time>
      </trkpt>
      <trkpt lat="43.80521" lon="5.51276">
        <ele>602.59</ele>
        <time>2010-12-16T23:31:20Z</time>
      </trkpt>
      <trkpt lat="43.80515" lon="5.51276">
        <ele>601.68</ele>
        <time>2010-12-16T23:31:23Z</time>
      </trkpt>
      <trkpt lat="43.80516" lon="5.51282">
        <ele>602.28</ele>
        <time>2010-12-16T23:31:24Z</time>
      </trkpt>
      <trkpt lat="43.80518" lon="5.51284">
        <ele>602.28</ele>
        <time>2010-12-16T23:31:25Z</time>
      </trkpt>
      <trkpt lat="43.8052" lon="5.51286">
        <ele>602.28</ele>
        <time>2010-12-16T23:31:26Z</time>
      </trkpt>
      <trkpt lat="43.80517" lon="5.5129">
        <ele>602.28</ele>
        <time>2010-12-16T23:31:28Z</time>
      </trkpt>
      <trkpt lat="43.80516" lon="5.51287">
        <ele>601.98</ele>
        <time>2010-12-16T23:31:29Z</time>
      </trkpt>
      <trkpt lat="43.80517" lon="5.51285">
        <ele>601.98</ele>
        <time>2010-12-16T23:31:29Z</time>
      </trkpt>
      <trkpt lat="43.80523" lon="5.51292">
        <ele>603.2</ele>
        <time>2010-12-16T23:31:32Z</time>
      </trkpt>
      <trkpt lat="43.80537" lon="5.51296">
        <ele>604.42</ele>
        <time>2010-12-16T23:31:38Z</time>
      </trkpt>
      <trkpt lat="43.80553" lon="5.51291">
        <ele>604.42</ele>
        <time>2010-12-16T23:31:45Z</time>
      </trkpt>
      <trkpt lat="43.80563" lon="5.5129">
        <ele>605.33</ele>
        <time>2010-12-16T23:31:49Z</time>
      </trkpt>
      <trkpt lat="43.80579" lon="5.51295">
        <ele>606.25</ele>
        <time>2010-12-16T23:31:55Z</time>
      </trkpt>
      <trkpt lat="43.80591" lon="5.51297">
        <ele>607.47</ele>
        <time>2010-12-16T23:32:00Z</time>
      </trkpt>
      <trkpt lat="43.80605" lon="5.51297">
        <ele>608.08</ele>
        <time>2010-12-16T23:32:06Z</time>
      </trkpt>
      <trkpt lat="43.80618" lon="5.51304">
        <ele>610.51</ele>
        <time>2010-12-16T23:32:12Z</time>
      </trkpt>
      <trkpt lat="43.80629" lon="5.51321">
        <ele>609.9</ele>
        <time>2010-12-16T23:32:18Z</time>
      </trkpt>
      <trkpt lat="43.8064" lon="5.51335">
        <ele>609.9</ele>
        <time>2010-12-16T23:32:24Z</time>
      </trkpt>
      <trkpt lat="43.80649" lon="5.51348">
        <ele>609.6</ele>
        <time>2010-12-16T23:32:29Z</time>
      </trkpt>
      <trkpt lat="43.80665" lon="5.51364">
        <ele>608.38</ele>
        <time>2010-12-16T23:32:37Z</time>
      </trkpt>
      <trkpt lat="43.80677" lon="5.51387">
        <ele>608.38</ele>
        <time>2010-12-16T23:32:45Z</time>
      </trkpt>
      <trkpt lat="43.80679" lon="5.51399">
        <ele>607.47</ele>
        <time>2010-12-16T23:32:49Z</time>
      </trkpt>
      <trkpt lat="43.80682" lon="5.51428">
        <ele>607.77</ele>
        <time>2010-12-16T23:32:57Z</time>
      </trkpt>
      <trkpt lat="43.80685" lon="5.51454">
        <ele>607.16</ele>
        <time>2010-12-16T23:33:05Z</time>
      </trkpt>
      <trkpt lat="43.80684" lon="5.51477">
        <ele>607.77</ele>
        <time>2010-12-16T23:33:12Z</time>
      </trkpt>
      <trkpt lat="43.80681" lon="5.51497">
        <ele>609.3</ele>
        <time>2010-12-16T23:33:18Z</time>
      </trkpt>
      <trkpt lat="43.80675" lon="5.51525">
        <ele>609.9</ele>
        <time>2010-12-16T23:33:26Z</time>
      </trkpt>
      <trkpt lat="43.80666" lon="5.51542">
        <ele>610.21</ele>
        <time>2010-12-16T23:33:32Z</time>
      </trkpt>
      <trkpt lat="43.80652" lon="5.5155">
        <ele>611.43</ele>
        <time>2010-12-16T23:33:38Z</time>
      </trkpt>
      <trkpt lat="43.80637" lon="5.51566">
        <ele>613.56</ele>
        <time>2010-12-16T23:33:46Z</time>
      </trkpt>
      <trkpt lat="43.80628" lon="5.51592">
        <ele>615.7</ele>
        <time>2010-12-16T23:33:54Z</time>
      </trkpt>
      <trkpt lat="43.80621" lon="5.51619">
        <ele>617.83</ele>
        <time>2010-12-16T23:34:02Z</time>
      </trkpt>
      <trkpt lat="43.80621" lon="5.51637">
        <ele>619.66</ele>
        <time>2010-12-16T23:34:08Z</time>
      </trkpt>
      <trkpt lat="43.80626" lon="5.51654">
        <ele>620.88</ele>
        <time>2010-12-16T23:34:13Z</time>
      </trkpt>
      <trkpt lat="43.80628" lon="5.51671">
        <ele>623.01</ele>
        <time>2010-12-16T23:34:18Z</time>
      </trkpt>
      <trkpt lat="43.80631" lon="5.51687">
        <ele>624.23</ele>
        <time>2010-12-16T23:34:22Z</time>
      </trkpt>
      <trkpt lat="43.80638" lon="5.51696">
        <ele>625.75</ele>
        <time>2010-12-16T23:34:26Z</time>
      </trkpt>
      <trkpt lat="43.80648" lon="5.51701">
        <ele>628.8</ele>
        <time>2010-12-16T23:34:31Z</time>
      </trkpt>
      <trkpt lat="43.80661" lon="5.51718">
        <ele>631.24</ele>
        <time>2010-12-16T23:34:38Z</time>
      </trkpt>
      <trkpt lat="43.80666" lon="5.51735">
        <ele>632.16</ele>
        <time>2010-12-16T23:34:43Z</time>
      </trkpt>
      <trkpt lat="43.80671" lon="5.51751">
        <ele>631.85</ele>
        <time>2010-12-16T23:34:48Z</time>
      </trkpt>
      <trkpt lat="43.8068" lon="5.51774">
        <ele>633.07</ele>
        <time>2010-12-16T23:34:56Z</time>
      </trkpt>
      <trkpt lat="43.80688" lon="5.51793">
        <ele>633.68</ele>
        <time>2010-12-16T23:35:02Z</time>
      </trkpt>
      <trkpt lat="43.80696" lon="5.5181">
        <ele>635.2</ele>
        <time>2010-12-16T23:35:08Z</time>
      </trkpt>
      <trkpt lat="43.80703" lon="5.51834">
        <ele>636.73</ele>
        <time>2010-12-16T23:35:16Z</time>
      </trkpt>
      <trkpt lat="43.8071" lon="5.51865">
        <ele>637.34</ele>
        <time>2010-12-16T23:35:25Z</time>
      </trkpt>
      <trkpt lat="43.80715" lon="5.51891">
        <ele>638.25</ele>
        <time>2010-12-16T23:35:32Z</time>
      </trkpt>
      <trkpt lat="43.80718" lon="5.51915">
        <ele>638.86</ele>
        <time>2010-12-16T23:35:40Z</time>
      </trkpt>
      <trkpt lat="43.80719" lon="5.51941">
        <ele>638.86</ele>
        <time>2010-12-16T23:35:47Z</time>
      </trkpt>
      <trkpt lat="43.80704" lon="5.51955">
        <ele>638.86</ele>
        <time>2010-12-16T23:35:54Z</time>
      </trkpt>
      <trkpt lat="43.80688" lon="5.5198">
        <ele>636.73</ele>
        <time>2010-12-16T23:36:04Z</time>
      </trkpt>
      <trkpt lat="43.80685" lon="5.51998">
        <ele>635.51</ele>
        <time>2010-12-16T23:36:09Z</time>
      </trkpt>
      <trkpt lat="43.80693" lon="5.52043">
        <ele>632.76</ele>
        <time>2010-12-16T23:36:23Z</time>
      </trkpt>
      <trkpt lat="43.80709" lon="5.52057">
        <ele>630.94</ele>
        <time>2010-12-16T23:36:30Z</time>
      </trkpt>
      <trkpt lat="43.80724" lon="5.52061">
        <ele>630.33</ele>
        <time>2010-12-16T23:36:37Z</time>
      </trkpt>
      <trkpt lat="43.80728" lon="5.52069">
        <ele>629.72</ele>
        <time>2010-12-16T23:36:39Z</time>
      </trkpt>
      <trkpt lat="43.80723" lon="5.52081">
        <ele>629.72</ele>
        <time>2010-12-16T23:36:43Z</time>
      </trkpt>
      <trkpt lat="43.8071" lon="5.52112">
        <ele>631.85</ele>
        <time>2010-12-16T23:36:54Z</time>
      </trkpt>
      <trkpt lat="43.80704" lon="5.52141">
        <ele>632.46</ele>
        <time>2010-12-16T23:37:03Z</time>
      </trkpt>
      <trkpt lat="43.80705" lon="5.52163">
        <ele>631.85</ele>
        <time>2010-12-16T23:37:09Z</time>
      </trkpt>
      <trkpt lat="43.80699" lon="5.52185">
        <ele>630.63</ele>
        <time>2010-12-16T23:37:16Z</time>
      </trkpt>
      <trkpt lat="43.80688" lon="5.52236">
        <ele>628.19</ele>
        <time>2010-12-16T23:37:31Z</time>
      </trkpt>
      <trkpt lat="43.80694" lon="5.52266">
        <ele>626.06</ele>
        <time>2010-12-16T23:37:40Z</time>
      </trkpt>
      <trkpt lat="43.8071" lon="5.52285">
        <ele>622.71</ele>
        <time>2010-12-16T23:37:48Z</time>
      </trkpt>
      <trkpt lat="43.80718" lon="5.5231">
        <ele>620.88</ele>
        <time>2010-12-16T23:37:56Z</time>
      </trkpt>
      <trkpt lat="43.80719" lon="5.52325">
        <ele>620.27</ele>
        <time>2010-12-16T23:38:01Z</time>
      </trkpt>
      <trkpt lat="43.80723" lon="5.52364">
        <ele>619.35</ele>
        <time>2010-12-16T23:38:12Z</time>
      </trkpt>
      <trkpt lat="43.80733" lon="5.52398">
        <ele>619.66</ele>
        <time>2010-12-16T23:38:23Z</time>
      </trkpt>
      <trkpt lat="43.80739" lon="5.52415">
        <ele>620.88</ele>
        <time>2010-12-16T23:38:28Z</time>
      </trkpt>
      <trkpt lat="43.80745" lon="5.52441">
        <ele>621.79</ele>
        <time>2010-12-16T23:38:36Z</time>
      </trkpt>
      <trkpt lat="43.8075" lon="5.52456">
        <ele>623.62</ele>
        <time>2010-12-16T23:38:41Z</time>
      </trkpt>
      <trkpt lat="43.80756" lon="5.52464">
        <ele>626.06</ele>
        <time>2010-12-16T23:38:44Z</time>
      </trkpt>
      <trkpt lat="43.80765" lon="5.5247">
        <ele>629.41</ele>
        <time>2010-12-16T23:38:48Z</time>
      </trkpt>
      <trkpt lat="43.80773" lon="5.52471">
        <ele>631.55</ele>
        <time>2010-12-16T23:38:51Z</time>
      </trkpt>
      <trkpt lat="43.80781" lon="5.52472">
        <ele>633.98</ele>
        <time>2010-12-16T23:38:55Z</time>
      </trkpt>
      <trkpt lat="43.80794" lon="5.5248">
        <ele>637.34</ele>
        <time>2010-12-16T23:39:00Z</time>
      </trkpt>
      <trkpt lat="43.80807" lon="5.52484">
        <ele>640.38</ele>
        <time>2010-12-16T23:39:05Z</time>
      </trkpt>
      <trkpt lat="43.80814" lon="5.52483">
        <ele>641.91</ele>
        <time>2010-12-16T23:39:08Z</time>
      </trkpt>
      <trkpt lat="43.80825" lon="5.52477">
        <ele>643.74</ele>
        <time>2010-12-16T23:39:13Z</time>
      </trkpt>
      <trkpt lat="43.80838" lon="5.52472">
        <ele>645.87</ele>
        <time>2010-12-16T23:39:18Z</time>
      </trkpt>
      <trkpt lat="43.80846" lon="5.52469">
        <ele>647.4</ele>
        <time>2010-12-16T23:39:22Z</time>
      </trkpt>
      <trkpt lat="43.80862" lon="5.52457">
        <ele>649.53</ele>
        <time>2010-12-16T23:39:29Z</time>
      </trkpt>
      <trkpt lat="43.80872" lon="5.52449">
        <ele>651.05</ele>
        <time>2010-12-16T23:39:34Z</time>
      </trkpt>
      <trkpt lat="43.80885" lon="5.52444">
        <ele>652.88</ele>
        <time>2010-12-16T23:39:39Z</time>
      </trkpt>
      <trkpt lat="43.80902" lon="5.52444">
        <ele>653.49</ele>
        <time>2010-12-16T23:39:46Z</time>
      </trkpt>
      <trkpt lat="43.80912" lon="5.5244">
        <ele>652.88</ele>
        <time>2010-12-16T23:39:50Z</time>
      </trkpt>
      <trkpt lat="43.80927" lon="5.52448">
        <ele>651.05</ele>
        <time>2010-12-16T23:39:57Z</time>
      </trkpt>
      <trkpt lat="43.80927" lon="5.52458">
        <ele>651.05</ele>
        <time>2010-12-16T23:40:00Z</time>
      </trkpt>
      <trkpt lat="43.80921" lon="5.52487">
        <ele>651.66</ele>
        <time>2010-12-16T23:40:08Z</time>
      </trkpt>
      <trkpt lat="43.80922" lon="5.52492">
        <ele>651.66</ele>
        <time>2010-12-16T23:40:10Z</time>
      </trkpt>
      <trkpt lat="43.80937" lon="5.52505">
        <ele>651.05</ele>
        <time>2010-12-16T23:40:17Z</time>
      </trkpt>
      <trkpt lat="43.80948" lon="5.52518">
        <ele>650.75</ele>
        <time>2010-12-16T23:40:23Z</time>
      </trkpt>
      <trkpt lat="43.80946" lon="5.52527">
        <ele>650.44</ele>
        <time>2010-12-16T23:40:26Z</time>
      </trkpt>
      <trkpt lat="43.80938" lon="5.52539">
        <ele>649.83</ele>
        <time>2010-12-16T23:40:30Z</time>
      </trkpt>
      <trkpt lat="43.80933" lon="5.52549">
        <ele>649.83</ele>
        <time>2010-12-16T23:40:34Z</time>
      </trkpt>
      <trkpt lat="43.80923" lon="5.52562">
        <ele>650.14</ele>
        <time>2010-12-16T23:40:39Z</time>
      </trkpt>
      <trkpt lat="43.80888" lon="5.52584">
        <ele>648</ele>
        <time>2010-12-16T23:40:55Z</time>
      </trkpt>
      <trkpt lat="43.80856" lon="5.52601">
        <ele>646.79</ele>
        <time>2010-12-16T23:41:08Z</time>
      </trkpt>
      <trkpt lat="43.80836" lon="5.52621">
        <ele>646.48</ele>
        <time>2010-12-16T23:41:18Z</time>
      </trkpt>
      <trkpt lat="43.80825" lon="5.52637">
        <ele>647.09</ele>
        <time>2010-12-16T23:41:25Z</time>
      </trkpt>
      <trkpt lat="43.8082" lon="5.52648">
        <ele>647.7</ele>
        <time>2010-12-16T23:41:28Z</time>
      </trkpt>
      <trkpt lat="43.80814" lon="5.52675">
        <ele>649.22</ele>
        <time>2010-12-16T23:41:37Z</time>
      </trkpt>
      <trkpt lat="43.80819" lon="5.52702">
        <ele>650.75</ele>
        <time>2010-12-16T23:41:44Z</time>
      </trkpt>
      <trkpt lat="43.80829" lon="5.5273">
        <ele>652.27</ele>
        <time>2010-12-16T23:41:54Z</time>
      </trkpt>
      <trkpt lat="43.80842" lon="5.52749">
        <ele>652.88</ele>
        <time>2010-12-16T23:42:01Z</time>
      </trkpt>
      <trkpt lat="43.80855" lon="5.52765">
        <ele>652.88</ele>
        <time>2010-12-16T23:42:08Z</time>
      </trkpt>
      <trkpt lat="43.80867" lon="5.52772">
        <ele>653.8</ele>
        <time>2010-12-16T23:42:13Z</time>
      </trkpt>
      <trkpt lat="43.80884" lon="5.52771">
        <ele>655.02</ele>
        <time>2010-12-16T23:42:20Z</time>
      </trkpt>
      <trkpt lat="43.80898" lon="5.5277">
        <ele>657.45</ele>
        <time>2010-12-16T23:42:26Z</time>
      </trkpt>
      <trkpt lat="43.80915" lon="5.52773">
        <ele>659.28</ele>
        <time>2010-12-16T23:42:33Z</time>
      </trkpt>
      <trkpt lat="43.80929" lon="5.52772">
        <ele>660.81</ele>
        <time>2010-12-16T23:42:38Z</time>
      </trkpt>
      <trkpt lat="43.80951" lon="5.52763">
        <ele>662.33</ele>
        <time>2010-12-16T23:42:47Z</time>
      </trkpt>
      <trkpt lat="43.80968" lon="5.52752">
        <ele>662.64</ele>
        <time>2010-12-16T23:42:55Z</time>
      </trkpt>
      <trkpt lat="43.80986" lon="5.52743">
        <ele>664.46</ele>
        <time>2010-12-16T23:43:03Z</time>
      </trkpt>
      <trkpt lat="43.80997" lon="5.52736">
        <ele>665.07</ele>
        <time>2010-12-16T23:43:08Z</time>
      </trkpt>
      <trkpt lat="43.81018" lon="5.52723">
        <ele>665.99</ele>
        <time>2010-12-16T23:43:17Z</time>
      </trkpt>
      <trkpt lat="43.81032" lon="5.52719">
        <ele>665.68</ele>
        <time>2010-12-16T23:43:23Z</time>
      </trkpt>
      <trkpt lat="43.8104" lon="5.52731">
        <ele>665.99</ele>
        <time>2010-12-16T23:43:27Z</time>
      </trkpt>
      <trkpt lat="43.81042" lon="5.52752">
        <ele>667.21</ele>
        <time>2010-12-16T23:43:33Z</time>
      </trkpt>
      <trkpt lat="43.81049" lon="5.52768">
        <ele>669.04</ele>
        <time>2010-12-16T23:43:39Z</time>
      </trkpt>
      <trkpt lat="43.81062" lon="5.5278">
        <ele>672.69</ele>
        <time>2010-12-16T23:43:45Z</time>
      </trkpt>
      <trkpt lat="43.81066" lon="5.52787">
        <ele>673.91</ele>
        <time>2010-12-16T23:43:48Z</time>
      </trkpt>
      <trkpt lat="43.81062" lon="5.52798">
        <ele>673.91</ele>
        <time>2010-12-16T23:43:51Z</time>
      </trkpt>
      <trkpt lat="43.81051" lon="5.52808">
        <ele>672.39</ele>
        <time>2010-12-16T23:43:56Z</time>
      </trkpt>
      <trkpt lat="43.8104" lon="5.52815">
        <ele>670.86</ele>
        <time>2010-12-16T23:44:01Z</time>
      </trkpt>
      <trkpt lat="43.81026" lon="5.52826">
        <ele>669.34</ele>
        <time>2010-12-16T23:44:07Z</time>
      </trkpt>
      <trkpt lat="43.81001" lon="5.52855">
        <ele>666.9</ele>
        <time>2010-12-16T23:44:21Z</time>
      </trkpt>
      <trkpt lat="43.80996" lon="5.52884">
        <ele>663.85</ele>
        <time>2010-12-16T23:44:29Z</time>
      </trkpt>
      <trkpt lat="43.80988" lon="5.52919">
        <ele>659.89</ele>
        <time>2010-12-16T23:44:40Z</time>
      </trkpt>
      <trkpt lat="43.80982" lon="5.52925">
        <ele>658.98</ele>
        <time>2010-12-16T23:44:43Z</time>
      </trkpt>
      <trkpt lat="43.80952" lon="5.52965">
        <ele>655.62</ele>
        <time>2010-12-16T23:44:59Z</time>
      </trkpt>
      <trkpt lat="43.80948" lon="5.52977">
        <ele>654.41</ele>
        <time>2010-12-16T23:45:03Z</time>
      </trkpt>
      <trkpt lat="43.80938" lon="5.53">
        <ele>652.58</ele>
        <time>2010-12-16T23:45:11Z</time>
      </trkpt>
      <trkpt lat="43.8091" lon="5.5304">
        <ele>647.7</ele>
        <time>2010-12-16T23:45:27Z</time>
      </trkpt>
      <trkpt lat="43.80886" lon="5.53082">
        <ele>642.52</ele>
        <time>2010-12-16T23:45:42Z</time>
      </trkpt>
      <trkpt lat="43.80886" lon="5.53121">
        <ele>639.17</ele>
        <time>2010-12-16T23:45:54Z</time>
      </trkpt>
      <trkpt lat="43.8088" lon="5.53143">
        <ele>637.64</ele>
        <time>2010-12-16T23:46:01Z</time>
      </trkpt>
      <trkpt lat="43.80875" lon="5.53153">
        <ele>636.73</ele>
        <time>2010-12-16T23:46:04Z</time>
      </trkpt>
      <trkpt lat="43.80853" lon="5.53192">
        <ele>635.2</ele>
        <time>2010-12-16T23:46:18Z</time>
      </trkpt>
      <trkpt lat="43.80852" lon="5.53199">
        <ele>635.2</ele>
        <time>2010-12-16T23:46:20Z</time>
      </trkpt>
      <trkpt lat="43.80847" lon="5.53237">
        <ele>636.12</ele>
        <time>2010-12-16T23:46:32Z</time>
      </trkpt>
      <trkpt lat="43.80843" lon="5.53275">
        <ele>638.25</ele>
        <time>2010-12-16T23:46:42Z</time>
      </trkpt>
      <trkpt lat="43.80841" lon="5.53295">
        <ele>637.64</ele>
        <time>2010-12-16T23:46:49Z</time>
      </trkpt>
      <trkpt lat="43.80827" lon="5.5332">
        <ele>636.42</ele>
        <time>2010-12-16T23:46:58Z</time>
      </trkpt>
      <trkpt lat="43.80817" lon="5.53328">
        <ele>635.51</ele>
        <time>2010-12-16T23:47:02Z</time>
      </trkpt>
      <trkpt lat="43.80812" lon="5.53327">
        <ele>635.51</ele>
        <time>2010-12-16T23:47:04Z</time>
      </trkpt>
      <trkpt lat="43.80811" lon="5.53321">
        <ele>636.42</ele>
        <time>2010-12-16T23:47:06Z</time>
      </trkpt>
      <trkpt lat="43.80813" lon="5.53322">
        <ele>636.42</ele>
        <time>2010-12-16T23:47:07Z</time>
      </trkpt>
      <trkpt lat="43.80813" lon="5.53324">
        <ele>637.03</ele>
        <time>2010-12-16T23:47:07Z</time>
      </trkpt>
      <trkpt lat="43.80811" lon="5.53324">
        <ele>637.34</ele>
        <time>2010-12-16T23:47:08Z</time>
      </trkpt>
      <trkpt lat="43.80818" lon="5.53329">
        <ele>638.25</ele>
        <time>2010-12-16T23:47:11Z</time>
      </trkpt>
      <trkpt lat="43.80822" lon="5.53327">
        <ele>638.25</ele>
        <time>2010-12-16T23:47:13Z</time>
      </trkpt>
      <trkpt lat="43.8082" lon="5.53324">
        <ele>637.95</ele>
        <time>2010-12-16T23:47:15Z</time>
      </trkpt>
      <trkpt lat="43.80819" lon="5.53325">
        <ele>637.64</ele>
        <time>2010-12-16T23:47:15Z</time>
      </trkpt>
      <trkpt lat="43.80815" lon="5.5333">
        <ele>636.73</ele>
        <time>2010-12-16T23:47:17Z</time>
      </trkpt>
      <trkpt lat="43.80812" lon="5.53333">
        <ele>636.12</ele>
        <time>2010-12-16T23:47:19Z</time>
      </trkpt>
      <trkpt lat="43.80809" lon="5.53333">
        <ele>636.12</ele>
        <time>2010-12-16T23:47:20Z</time>
      </trkpt>
      <trkpt lat="43.8081" lon="5.53326">
        <ele>636.42</ele>
        <time>2010-12-16T23:47:22Z</time>
      </trkpt>
      <trkpt lat="43.80814" lon="5.53322">
        <ele>636.42</ele>
        <time>2010-12-16T23:47:24Z</time>
      </trkpt>
      <trkpt lat="43.80813" lon="5.53323">
        <ele>637.03</ele>
        <time>2010-12-16T23:47:25Z</time>
      </trkpt>
      <trkpt lat="43.80811" lon="5.53322">
        <ele>637.03</ele>
        <time>2010-12-16T23:47:26Z</time>
      </trkpt>
      <trkpt lat="43.80812" lon="5.53321">
        <ele>637.34</ele>
        <time>2010-12-16T23:47:26Z</time>
      </trkpt>
      <trkpt lat="43.80814" lon="5.53322">
        <ele>637.64</ele>
        <time>2010-12-16T23:47:27Z</time>
      </trkpt>
      <trkpt lat="43.80815" lon="5.53328">
        <ele>637.64</ele>
        <time>2010-12-16T23:47:29Z</time>
      </trkpt>
      <trkpt lat="43.80821" lon="5.53337">
        <ele>638.25</ele>
        <time>2010-12-16T23:47:32Z</time>
      </trkpt>
      <trkpt lat="43.80825" lon="5.53346">
        <ele>639.47</ele>
        <time>2010-12-16T23:47:35Z</time>
      </trkpt>
      <trkpt lat="43.8083" lon="5.53348">
        <ele>640.38</ele>
        <time>2010-12-16T23:47:37Z</time>
      </trkpt>
      <trkpt lat="43.80837" lon="5.53353">
        <ele>642.21</ele>
        <time>2010-12-16T23:47:41Z</time>
      </trkpt>
      <trkpt lat="43.80848" lon="5.53359">
        <ele>644.35</ele>
        <time>2010-12-16T23:47:45Z</time>
      </trkpt>
      <trkpt lat="43.80856" lon="5.53368">
        <ele>645.57</ele>
        <time>2010-12-16T23:47:49Z</time>
      </trkpt>
      <trkpt lat="43.80859" lon="5.53376">
        <ele>646.48</ele>
        <time>2010-12-16T23:47:52Z</time>
      </trkpt>
      <trkpt lat="43.80865" lon="5.53389">
        <ele>646.79</ele>
        <time>2010-12-16T23:47:57Z</time>
      </trkpt>
      <trkpt lat="43.80875" lon="5.53395">
        <ele>648.61</ele>
        <time>2010-12-16T23:48:01Z</time>
      </trkpt>
      <trkpt lat="43.80884" lon="5.53394">
        <ele>651.66</ele>
        <time>2010-12-16T23:48:05Z</time>
      </trkpt>
      <trkpt lat="43.80896" lon="5.5339">
        <ele>653.19</ele>
        <time>2010-12-16T23:48:09Z</time>
      </trkpt>
      <trkpt lat="43.80905" lon="5.53389">
        <ele>655.02</ele>
        <time>2010-12-16T23:48:13Z</time>
      </trkpt>
      <trkpt lat="43.80918" lon="5.53392">
        <ele>658.37</ele>
        <time>2010-12-16T23:48:18Z</time>
      </trkpt>
      <trkpt lat="43.8093" lon="5.53394">
        <ele>660.81</ele>
        <time>2010-12-16T23:48:23Z</time>
      </trkpt>
      <trkpt lat="43.8094" lon="5.53395">
        <ele>662.94</ele>
        <time>2010-12-16T23:48:27Z</time>
      </trkpt>
      <trkpt lat="43.80948" lon="5.53396">
        <ele>664.46</ele>
        <time>2010-12-16T23:48:30Z</time>
      </trkpt>
      <trkpt lat="43.80952" lon="5.53396">
        <ele>665.38</ele>
        <time>2010-12-16T23:48:32Z</time>
      </trkpt>
      <trkpt lat="43.80965" lon="5.53403">
        <ele>668.12</ele>
        <time>2010-12-16T23:48:38Z</time>
      </trkpt>
      <trkpt lat="43.80974" lon="5.53409">
        <ele>669.34</ele>
        <time>2010-12-16T23:48:42Z</time>
      </trkpt>
      <trkpt lat="43.8099" lon="5.53419">
        <ele>671.17</ele>
        <time>2010-12-16T23:48:49Z</time>
      </trkpt>
      <trkpt lat="43.8099" lon="5.5342">
        <ele>671.17</ele>
        <time>2010-12-16T23:48:49Z</time>
      </trkpt>
      <trkpt lat="43.80992" lon="5.53425">
        <ele>670.86</ele>
        <time>2010-12-16T23:48:51Z</time>
      </trkpt>
      <trkpt lat="43.80992" lon="5.53425">
        <ele>670.86</ele>
        <time>2010-12-16T23:48:51Z</time>
      </trkpt>
      <trkpt lat="43.80995" lon="5.53428">
        <ele>672.39</ele>
        <time>2010-12-16T23:48:52Z</time>
      </trkpt>
      <trkpt lat="43.80996" lon="5.5343">
        <ele>672.08</ele>
        <time>2010-12-16T23:48:53Z</time>
      </trkpt>
      <trkpt lat="43.81007" lon="5.5344">
        <ele>672.69</ele>
        <time>2010-12-16T23:48:58Z</time>
      </trkpt>
      <trkpt lat="43.81016" lon="5.53452">
        <ele>673.3</ele>
        <time>2010-12-16T23:49:03Z</time>
      </trkpt>
      <trkpt lat="43.81027" lon="5.53467">
        <ele>673.91</ele>
        <time>2010-12-16T23:49:09Z</time>
      </trkpt>
      <trkpt lat="43.81041" lon="5.53484">
        <ele>675.13</ele>
        <time>2010-12-16T23:49:17Z</time>
      </trkpt>
      <trkpt lat="43.8105" lon="5.53491">
        <ele>677.27</ele>
        <time>2010-12-16T23:49:21Z</time>
      </trkpt>
      <trkpt lat="43.81062" lon="5.53501">
        <ele>679.7</ele>
        <time>2010-12-16T23:49:26Z</time>
      </trkpt>
      <trkpt lat="43.81064" lon="5.53516">
        <ele>679.09</ele>
        <time>2010-12-16T23:49:31Z</time>
      </trkpt>
      <trkpt lat="43.81064" lon="5.53549">
        <ele>677.57</ele>
        <time>2010-12-16T23:49:40Z</time>
      </trkpt>
      <trkpt lat="43.81063" lon="5.53577">
        <ele>676.66</ele>
        <time>2010-12-16T23:49:48Z</time>
      </trkpt>
      <trkpt lat="43.81062" lon="5.53607">
        <ele>676.05</ele>
        <time>2010-12-16T23:49:57Z</time>
      </trkpt>
      <trkpt lat="43.81063" lon="5.53646">
        <ele>674.22</ele>
        <time>2010-12-16T23:50:08Z</time>
      </trkpt>
      <trkpt lat="43.81062" lon="5.53684">
        <ele>673.61</ele>
        <time>2010-12-16T23:50:19Z</time>
      </trkpt>
      <trkpt lat="43.81056" lon="5.53741">
        <ele>672.08</ele>
        <time>2010-12-16T23:50:36Z</time>
      </trkpt>
      <trkpt lat="43.81054" lon="5.53781">
        <ele>672.39</ele>
        <time>2010-12-16T23:50:48Z</time>
      </trkpt>
      <trkpt lat="43.81056" lon="5.53822">
        <ele>673.61</ele>
        <time>2010-12-16T23:50:59Z</time>
      </trkpt>
      <trkpt lat="43.81062" lon="5.53846">
        <ele>675.44</ele>
        <time>2010-12-16T23:51:07Z</time>
      </trkpt>
      <trkpt lat="43.81068" lon="5.53868">
        <ele>676.96</ele>
        <time>2010-12-16T23:51:14Z</time>
      </trkpt>
      <trkpt lat="43.81075" lon="5.53896">
        <ele>678.48</ele>
        <time>2010-12-16T23:51:22Z</time>
      </trkpt>
      <trkpt lat="43.81082" lon="5.53919">
        <ele>680.01</ele>
        <time>2010-12-16T23:51:29Z</time>
      </trkpt>
      <trkpt lat="43.81092" lon="5.53943">
        <ele>682.75</ele>
        <time>2010-12-16T23:51:37Z</time>
      </trkpt>
      <trkpt lat="43.81101" lon="5.53962">
        <ele>683.97</ele>
        <time>2010-12-16T23:51:44Z</time>
      </trkpt>
      <trkpt lat="43.81107" lon="5.53985">
        <ele>685.19</ele>
        <time>2010-12-16T23:51:51Z</time>
      </trkpt>
      <trkpt lat="43.81109" lon="5.54004">
        <ele>686.41</ele>
        <time>2010-12-16T23:51:57Z</time>
      </trkpt>
      <trkpt lat="43.81108" lon="5.54025">
        <ele>687.93</ele>
        <time>2010-12-16T23:52:03Z</time>
      </trkpt>
      <trkpt lat="43.81108" lon="5.54041">
        <ele>687.93</ele>
        <time>2010-12-16T23:52:07Z</time>
      </trkpt>
      <trkpt lat="43.81114" lon="5.54065">
        <ele>689.15</ele>
        <time>2010-12-16T23:52:15Z</time>
      </trkpt>
      <trkpt lat="43.81115" lon="5.54068">
        <ele>689.46</ele>
        <time>2010-12-16T23:52:15Z</time>
      </trkpt>
      <trkpt lat="43.8112" lon="5.54082">
        <ele>691.29</ele>
        <time>2010-12-16T23:52:20Z</time>
      </trkpt>
      <trkpt lat="43.81127" lon="5.54103">
        <ele>692.81</ele>
        <time>2010-12-16T23:52:27Z</time>
      </trkpt>
      <trkpt lat="43.81132" lon="5.54122">
        <ele>694.03</ele>
        <time>2010-12-16T23:52:33Z</time>
      </trkpt>
      <trkpt lat="43.81136" lon="5.54147">
        <ele>694.33</ele>
        <time>2010-12-16T23:52:40Z</time>
      </trkpt>
      <trkpt lat="43.81141" lon="5.54173">
        <ele>694.33</ele>
        <time>2010-12-16T23:52:48Z</time>
      </trkpt>
      <trkpt lat="43.81145" lon="5.54196">
        <ele>695.55</ele>
        <time>2010-12-16T23:52:55Z</time>
      </trkpt>
      <trkpt lat="43.8115" lon="5.5422">
        <ele>697.08</ele>
        <time>2010-12-16T23:53:02Z</time>
      </trkpt>
      <trkpt lat="43.81156" lon="5.54243">
        <ele>700.43</ele>
        <time>2010-12-16T23:53:09Z</time>
      </trkpt>
      <trkpt lat="43.81168" lon="5.54272">
        <ele>703.17</ele>
        <time>2010-12-16T23:53:19Z</time>
      </trkpt>
      <trkpt lat="43.81177" lon="5.54299">
        <ele>705</ele>
        <time>2010-12-16T23:53:27Z</time>
      </trkpt>
      <trkpt lat="43.81176" lon="5.54326">
        <ele>705.31</ele>
        <time>2010-12-16T23:53:35Z</time>
      </trkpt>
      <trkpt lat="43.81173" lon="5.54365">
        <ele>705.61</ele>
        <time>2010-12-16T23:53:46Z</time>
      </trkpt>
      <trkpt lat="43.81171" lon="5.54394">
        <ele>706.22</ele>
        <time>2010-12-16T23:53:55Z</time>
      </trkpt>
      <trkpt lat="43.81164" lon="5.5442">
        <ele>706.22</ele>
        <time>2010-12-16T23:54:03Z</time>
      </trkpt>
      <trkpt lat="43.8116" lon="5.54456">
        <ele>707.14</ele>
        <time>2010-12-16T23:54:13Z</time>
      </trkpt>
      <trkpt lat="43.81156" lon="5.54488">
        <ele>707.44</ele>
        <time>2010-12-16T23:54:23Z</time>
      </trkpt>
      <trkpt lat="43.81149" lon="5.54536">
        <ele>707.44</ele>
        <time>2010-12-16T23:54:37Z</time>
      </trkpt>
      <trkpt lat="43.81143" lon="5.54573">
        <ele>708.05</ele>
        <time>2010-12-16T23:54:48Z</time>
      </trkpt>
      <trkpt lat="43.81134" lon="5.54614">
        <ele>708.66</ele>
        <time>2010-12-16T23:55:00Z</time>
      </trkpt>
      <trkpt lat="43.8112" lon="5.54654">
        <ele>708.66</ele>
        <time>2010-12-16T23:55:13Z</time>
      </trkpt>
      <trkpt lat="43.81109" lon="5.5469">
        <ele>709.57</ele>
        <time>2010-12-16T23:55:24Z</time>
      </trkpt>
      <trkpt lat="43.81102" lon="5.54725">
        <ele>710.18</ele>
        <time>2010-12-16T23:55:35Z</time>
      </trkpt>
      <trkpt lat="43.81087" lon="5.54769">
        <ele>711.71</ele>
        <time>2010-12-16T23:55:49Z</time>
      </trkpt>
      <trkpt lat="43.81074" lon="5.54788">
        <ele>712.32</ele>
        <time>2010-12-16T23:55:56Z</time>
      </trkpt>
      <trkpt lat="43.81063" lon="5.54814">
        <ele>714.15</ele>
        <time>2010-12-16T23:56:05Z</time>
      </trkpt>
      <trkpt lat="43.81057" lon="5.54833">
        <ele>714.76</ele>
        <time>2010-12-16T23:56:11Z</time>
      </trkpt>
      <trkpt lat="43.81058" lon="5.5484">
        <ele>715.98</ele>
        <time>2010-12-16T23:56:13Z</time>
      </trkpt>
      <trkpt lat="43.81063" lon="5.54836">
        <ele>717.19</ele>
        <time>2010-12-16T23:56:16Z</time>
      </trkpt>
      <trkpt lat="43.81066" lon="5.54834">
        <ele>717.5</ele>
        <time>2010-12-16T23:56:17Z</time>
      </trkpt>
      <trkpt lat="43.81077" lon="5.5483">
        <ele>720.24</ele>
        <time>2010-12-16T23:56:22Z</time>
      </trkpt>
      <trkpt lat="43.81085" lon="5.54842">
        <ele>723.6</ele>
        <time>2010-12-16T23:56:26Z</time>
      </trkpt>
      <trkpt lat="43.8109" lon="5.54862">
        <ele>726.64</ele>
        <time>2010-12-16T23:56:32Z</time>
      </trkpt>
      <trkpt lat="43.81096" lon="5.54876">
        <ele>728.78</ele>
        <time>2010-12-16T23:56:37Z</time>
      </trkpt>
      <trkpt lat="43.81102" lon="5.54892">
        <ele>730.61</ele>
        <time>2010-12-16T23:56:42Z</time>
      </trkpt>
      <trkpt lat="43.81108" lon="5.54906">
        <ele>731.52</ele>
        <time>2010-12-16T23:56:47Z</time>
      </trkpt>
      <trkpt lat="43.81113" lon="5.54919">
        <ele>733.04</ele>
        <time>2010-12-16T23:56:51Z</time>
      </trkpt>
      <trkpt lat="43.81118" lon="5.5493">
        <ele>734.57</ele>
        <time>2010-12-16T23:56:55Z</time>
      </trkpt>
      <trkpt lat="43.81126" lon="5.5494">
        <ele>736.4</ele>
        <time>2010-12-16T23:56:59Z</time>
      </trkpt>
      <trkpt lat="43.81131" lon="5.54948">
        <ele>737.92</ele>
        <time>2010-12-16T23:57:02Z</time>
      </trkpt>
      <trkpt lat="43.81133" lon="5.54951">
        <ele>737.92</ele>
        <time>2010-12-16T23:57:04Z</time>
      </trkpt>
      <trkpt lat="43.81134" lon="5.5496">
        <ele>738.23</ele>
        <time>2010-12-16T23:57:06Z</time>
      </trkpt>
      <trkpt lat="43.81123" lon="5.54971">
        <ele>738.23</ele>
        <time>2010-12-16T23:57:11Z</time>
      </trkpt>
      <trkpt lat="43.81114" lon="5.54986">
        <ele>738.84</ele>
        <time>2010-12-16T23:57:17Z</time>
      </trkpt>
      <trkpt lat="43.81108" lon="5.55">
        <ele>740.05</ele>
        <time>2010-12-16T23:57:22Z</time>
      </trkpt>
      <trkpt lat="43.81103" lon="5.55015">
        <ele>741.58</ele>
        <time>2010-12-16T23:57:26Z</time>
      </trkpt>
      <trkpt lat="43.81099" lon="5.55032">
        <ele>743.1</ele>
        <time>2010-12-16T23:57:32Z</time>
      </trkpt>
      <trkpt lat="43.81096" lon="5.55055">
        <ele>745.24</ele>
        <time>2010-12-16T23:57:38Z</time>
      </trkpt>
      <trkpt lat="43.81095" lon="5.55074">
        <ele>747.37</ele>
        <time>2010-12-16T23:57:44Z</time>
      </trkpt>
      <trkpt lat="43.81094" lon="5.55092">
        <ele>749.5</ele>
        <time>2010-12-16T23:57:49Z</time>
      </trkpt>
      <trkpt lat="43.81093" lon="5.55112">
        <ele>751.03</ele>
        <time>2010-12-16T23:57:55Z</time>
      </trkpt>
      <trkpt lat="43.81091" lon="5.5513">
        <ele>752.25</ele>
        <time>2010-12-16T23:58:00Z</time>
      </trkpt>
      <trkpt lat="43.8109" lon="5.55149">
        <ele>753.47</ele>
        <time>2010-12-16T23:58:06Z</time>
      </trkpt>
      <trkpt lat="43.8109" lon="5.55169">
        <ele>754.68</ele>
        <time>2010-12-16T23:58:11Z</time>
      </trkpt>
      <trkpt lat="43.81089" lon="5.55188">
        <ele>756.21</ele>
        <time>2010-12-16T23:58:17Z</time>
      </trkpt>
      <trkpt lat="43.81089" lon="5.55204">
        <ele>756.82</ele>
        <time>2010-12-16T23:58:21Z</time>
      </trkpt>
      <trkpt lat="43.81087" lon="5.55217">
        <ele>757.73</ele>
        <time>2010-12-16T23:58:25Z</time>
      </trkpt>
      <trkpt lat="43.81087" lon="5.5524">
        <ele>758.65</ele>
        <time>2010-12-16T23:58:32Z</time>
      </trkpt>
      <trkpt lat="43.81091" lon="5.55261">
        <ele>760.78</ele>
        <time>2010-12-16T23:58:38Z</time>
      </trkpt>
      <trkpt lat="43.81095" lon="5.55273">
        <ele>762.3</ele>
        <time>2010-12-16T23:58:42Z</time>
      </trkpt>
      <trkpt lat="43.81097" lon="5.55283">
        <ele>763.52</ele>
        <time>2010-12-16T23:58:45Z</time>
      </trkpt>
      <trkpt lat="43.81098" lon="5.55284">
        <ele>763.52</ele>
        <time>2010-12-16T23:58:46Z</time>
      </trkpt>
      <trkpt lat="43.81101" lon="5.55289">
        <ele>771.14</ele>
        <time>2010-12-16T23:58:48Z</time>
      </trkpt>
      <trkpt lat="43.81103" lon="5.55307">
        <ele>772.36</ele>
        <time>2010-12-16T23:58:53Z</time>
      </trkpt>
      <trkpt lat="43.81103" lon="5.55323">
        <ele>772.97</ele>
        <time>2010-12-16T23:58:57Z</time>
      </trkpt>
      <trkpt lat="43.81101" lon="5.55335">
        <ele>772.97</ele>
        <time>2010-12-16T23:59:01Z</time>
      </trkpt>
      <trkpt lat="43.81095" lon="5.55357">
        <ele>773.58</ele>
        <time>2010-12-16T23:59:08Z</time>
      </trkpt>
      <trkpt lat="43.81094" lon="5.5538">
        <ele>775.11</ele>
        <time>2010-12-16T23:59:14Z</time>
      </trkpt>
      <trkpt lat="43.81092" lon="5.55394">
        <ele>776.63</ele>
        <time>2010-12-16T23:59:18Z</time>
      </trkpt>
      <trkpt lat="43.81088" lon="5.5541">
        <ele>777.85</ele>
        <time>2010-12-16T23:59:23Z</time>
      </trkpt>
      <trkpt lat="43.81082" lon="5.55428">
        <ele>778.76</ele>
        <time>2010-12-16T23:59:29Z</time>
      </trkpt>
      <trkpt lat="43.81079" lon="5.55449">
        <ele>780.29</ele>
        <time>2010-12-16T23:59:35Z</time>
      </trkpt>
      <trkpt lat="43.81078" lon="5.55465">
        <ele>781.51</ele>
        <time>2010-12-16T23:59:40Z</time>
      </trkpt>
      <trkpt lat="43.81076" lon="5.55476">
        <ele>782.12</ele>
        <time>2010-12-16T23:59:43Z</time>
      </trkpt>
      <trkpt lat="43.81071" lon="5.55494">
        <ele>783.64</ele>
        <time>2010-12-16T23:59:49Z</time>
      </trkpt>
      <trkpt lat="43.81066" lon="5.55514">
        <ele>785.16</ele>
        <time>2010-12-16T23:59:55Z</time>
      </trkpt>
      <trkpt lat="43.81061" lon="5.5554">
        <ele>787.3</ele>
        <time>2010-12-17T00:00:03Z</time>
      </trkpt>
      <trkpt lat="43.81056" lon="5.55559">
        <ele>789.13</ele>
        <time>2010-12-17T00:00:08Z</time>
      </trkpt>
      <trkpt lat="43.81047" lon="5.55582">
        <ele>791.26</ele>
        <time>2010-12-17T00:00:16Z</time>
      </trkpt>
      <trkpt lat="43.81041" lon="5.55608">
        <ele>794</ele>
        <time>2010-12-17T00:00:24Z</time>
      </trkpt>
      <trkpt lat="43.81035" lon="5.55632">
        <ele>796.75</ele>
        <time>2010-12-17T00:00:31Z</time>
      </trkpt>
      <trkpt lat="43.81028" lon="5.55653">
        <ele>799.8</ele>
        <time>2010-12-17T00:00:38Z</time>
      </trkpt>
      <trkpt lat="43.8102" lon="5.55673">
        <ele>802.23</ele>
        <time>2010-12-17T00:00:45Z</time>
      </trkpt>
      <trkpt lat="43.81013" lon="5.55701">
        <ele>803.76</ele>
        <time>2010-12-17T00:00:53Z</time>
      </trkpt>
      <trkpt lat="43.81008" lon="5.55724">
        <ele>804.98</ele>
        <time>2010-12-17T00:01:00Z</time>
      </trkpt>
      <trkpt lat="43.81006" lon="5.55741">
        <ele>806.81</ele>
        <time>2010-12-17T00:01:05Z</time>
      </trkpt>
      <trkpt lat="43.81001" lon="5.55767">
        <ele>808.94</ele>
        <time>2010-12-17T00:01:13Z</time>
      </trkpt>
      <trkpt lat="43.81" lon="5.55784">
        <ele>809.55</ele>
        <time>2010-12-17T00:01:18Z</time>
      </trkpt>
      <trkpt lat="43.81" lon="5.55815">
        <ele>810.77</ele>
        <time>2010-12-17T00:01:27Z</time>
      </trkpt>
      <trkpt lat="43.80999" lon="5.55835">
        <ele>811.38</ele>
        <time>2010-12-17T00:01:32Z</time>
      </trkpt>
      <trkpt lat="43.80999" lon="5.55849">
        <ele>812.6</ele>
        <time>2010-12-17T00:01:37Z</time>
      </trkpt>
      <trkpt lat="43.80999" lon="5.55853">
        <ele>812.9</ele>
        <time>2010-12-17T00:01:38Z</time>
      </trkpt>
      <trkpt lat="43.81001" lon="5.5588">
        <ele>815.04</ele>
        <time>2010-12-17T00:01:45Z</time>
      </trkpt>
      <trkpt lat="43.81007" lon="5.55913">
        <ele>818.39</ele>
        <time>2010-12-17T00:01:55Z</time>
      </trkpt>
      <trkpt lat="43.81015" lon="5.55927">
        <ele>820.52</ele>
        <time>2010-12-17T00:02:00Z</time>
      </trkpt>
      <trkpt lat="43.81029" lon="5.55939">
        <ele>822.96</ele>
        <time>2010-12-17T00:02:07Z</time>
      </trkpt>
      <trkpt lat="43.81042" lon="5.55951">
        <ele>825.4</ele>
        <time>2010-12-17T00:02:13Z</time>
      </trkpt>
      <trkpt lat="43.81055" lon="5.55968">
        <ele>827.53</ele>
        <time>2010-12-17T00:02:21Z</time>
      </trkpt>
      <trkpt lat="43.81068" lon="5.55986">
        <ele>829.67</ele>
        <time>2010-12-17T00:02:28Z</time>
      </trkpt>
      <trkpt lat="43.81076" lon="5.55998">
        <ele>831.19</ele>
        <time>2010-12-17T00:02:33Z</time>
      </trkpt>
      <trkpt lat="43.81084" lon="5.56013">
        <ele>832.71</ele>
        <time>2010-12-17T00:02:38Z</time>
      </trkpt>
      <trkpt lat="43.81092" lon="5.56028">
        <ele>833.63</ele>
        <time>2010-12-17T00:02:44Z</time>
      </trkpt>
      <trkpt lat="43.811" lon="5.5605">
        <ele>835.46</ele>
        <time>2010-12-17T00:02:51Z</time>
      </trkpt>
      <trkpt lat="43.81106" lon="5.5607">
        <ele>837.29</ele>
        <time>2010-12-17T00:02:57Z</time>
      </trkpt>
      <trkpt lat="43.8111" lon="5.56088">
        <ele>838.81</ele>
        <time>2010-12-17T00:03:02Z</time>
      </trkpt>
      <trkpt lat="43.81116" lon="5.56102">
        <ele>839.42</ele>
        <time>2010-12-17T00:03:07Z</time>
      </trkpt>
      <trkpt lat="43.81119" lon="5.56117">
        <ele>840.33</ele>
        <time>2010-12-17T00:03:11Z</time>
      </trkpt>
      <trkpt lat="43.8112" lon="5.56131">
        <ele>841.25</ele>
        <time>2010-12-17T00:03:15Z</time>
      </trkpt>
      <trkpt lat="43.81122" lon="5.56146">
        <ele>842.47</ele>
        <time>2010-12-17T00:03:20Z</time>
      </trkpt>
      <trkpt lat="43.8113" lon="5.56161">
        <ele>843.69</ele>
        <time>2010-12-17T00:03:25Z</time>
      </trkpt>
      <trkpt lat="43.81142" lon="5.56172">
        <ele>846.43</ele>
        <time>2010-12-17T00:03:31Z</time>
      </trkpt>
      <trkpt lat="43.81154" lon="5.56181">
        <ele>848.26</ele>
        <time>2010-12-17T00:03:36Z</time>
      </trkpt>
      <trkpt lat="43.81159" lon="5.56191">
        <ele>849.17</ele>
        <time>2010-12-17T00:03:40Z</time>
      </trkpt>
      <trkpt lat="43.8116" lon="5.56211">
        <ele>850.09</ele>
        <time>2010-12-17T00:03:46Z</time>
      </trkpt>
      <trkpt lat="43.8116" lon="5.56233">
        <ele>850.09</ele>
        <time>2010-12-17T00:03:52Z</time>
      </trkpt>
      <trkpt lat="43.81165" lon="5.56254">
        <ele>851</ele>
        <time>2010-12-17T00:03:58Z</time>
      </trkpt>
      <trkpt lat="43.81172" lon="5.56275">
        <ele>851.92</ele>
        <time>2010-12-17T00:04:05Z</time>
      </trkpt>
      <trkpt lat="43.81182" lon="5.56294">
        <ele>852.22</ele>
        <time>2010-12-17T00:04:12Z</time>
      </trkpt>
      <trkpt lat="43.81194" lon="5.56311">
        <ele>853.74</ele>
        <time>2010-12-17T00:04:19Z</time>
      </trkpt>
      <trkpt lat="43.81207" lon="5.56323">
        <ele>855.57</ele>
        <time>2010-12-17T00:04:25Z</time>
      </trkpt>
      <trkpt lat="43.81218" lon="5.56325">
        <ele>856.79</ele>
        <time>2010-12-17T00:04:29Z</time>
      </trkpt>
      <trkpt lat="43.81229" lon="5.56321">
        <ele>858.32</ele>
        <time>2010-12-17T00:04:34Z</time>
      </trkpt>
      <trkpt lat="43.81234" lon="5.56321">
        <ele>858.62</ele>
        <time>2010-12-17T00:04:36Z</time>
      </trkpt>
      <trkpt lat="43.81233" lon="5.56338">
        <ele>858.93</ele>
        <time>2010-12-17T00:04:41Z</time>
      </trkpt>
      <trkpt lat="43.81238" lon="5.56347">
        <ele>857.71</ele>
        <time>2010-12-17T00:04:44Z</time>
      </trkpt>
      <trkpt lat="43.81254" lon="5.56356">
        <ele>856.49</ele>
        <time>2010-12-17T00:04:51Z</time>
      </trkpt>
      <trkpt lat="43.81264" lon="5.56358">
        <ele>856.49</ele>
        <time>2010-12-17T00:04:55Z</time>
      </trkpt>
      <trkpt lat="43.8128" lon="5.56359">
        <ele>855.88</ele>
        <time>2010-12-17T00:05:01Z</time>
      </trkpt>
      <trkpt lat="43.81308" lon="5.56361">
        <ele>855.57</ele>
        <time>2010-12-17T00:05:13Z</time>
      </trkpt>
      <trkpt lat="43.81334" lon="5.56359">
        <ele>854.35</ele>
        <time>2010-12-17T00:05:23Z</time>
      </trkpt>
      <trkpt lat="43.81373" lon="5.5635">
        <ele>853.14</ele>
        <time>2010-12-17T00:05:39Z</time>
      </trkpt>
      <trkpt lat="43.81405" lon="5.56348">
        <ele>851.31</ele>
        <time>2010-12-17T00:05:52Z</time>
      </trkpt>
      <trkpt lat="43.81449" lon="5.56345">
        <ele>845.82</ele>
        <time>2010-12-17T00:06:09Z</time>
      </trkpt>
      <trkpt lat="43.8147" lon="5.56343">
        <ele>843.69</ele>
        <time>2010-12-17T00:06:18Z</time>
      </trkpt>
      <trkpt lat="43.81492" lon="5.56347">
        <ele>840.33</ele>
        <time>2010-12-17T00:06:27Z</time>
      </trkpt>
      <trkpt lat="43.81512" lon="5.56356">
        <ele>839.11</ele>
        <time>2010-12-17T00:06:35Z</time>
      </trkpt>
      <trkpt lat="43.81556" lon="5.56373">
        <ele>835.76</ele>
        <time>2010-12-17T00:06:53Z</time>
      </trkpt>
      <trkpt lat="43.81579" lon="5.56377">
        <ele>832.71</ele>
        <time>2010-12-17T00:07:03Z</time>
      </trkpt>
      <trkpt lat="43.81622" lon="5.56364">
        <ele>826.01</ele>
        <time>2010-12-17T00:07:20Z</time>
      </trkpt>
      <trkpt lat="43.81668" lon="5.56341">
        <ele>818.08</ele>
        <time>2010-12-17T00:07:40Z</time>
      </trkpt>
      <trkpt lat="43.817" lon="5.56321">
        <ele>811.38</ele>
        <time>2010-12-17T00:07:54Z</time>
      </trkpt>
      <trkpt lat="43.81729" lon="5.56295">
        <ele>806.5</ele>
        <time>2010-12-17T00:08:08Z</time>
      </trkpt>
      <trkpt lat="43.81757" lon="5.56273">
        <ele>802.23</ele>
        <time>2010-12-17T00:08:20Z</time>
      </trkpt>
      <trkpt lat="43.81776" lon="5.56255">
        <ele>798.88</ele>
        <time>2010-12-17T00:08:30Z</time>
      </trkpt>
      <trkpt lat="43.81801" lon="5.56229">
        <ele>794.92</ele>
        <time>2010-12-17T00:08:42Z</time>
      </trkpt>
      <trkpt lat="43.81811" lon="5.56222">
        <ele>793.09</ele>
        <time>2010-12-17T00:08:47Z</time>
      </trkpt>
      <trkpt lat="43.81822" lon="5.56231">
        <ele>794.31</ele>
        <time>2010-12-17T00:08:52Z</time>
      </trkpt>
      <trkpt lat="43.81824" lon="5.56231">
        <ele>794.92</ele>
        <time>2010-12-17T00:08:53Z</time>
      </trkpt>
      <trkpt lat="43.8184" lon="5.56217">
        <ele>797.36</ele>
        <time>2010-12-17T00:09:00Z</time>
      </trkpt>
      <trkpt lat="43.81859" lon="5.56208">
        <ele>799.19</ele>
        <time>2010-12-17T00:09:08Z</time>
      </trkpt>
      <trkpt lat="43.81862" lon="5.5621">
        <ele>799.49</ele>
        <time>2010-12-17T00:09:10Z</time>
      </trkpt>
      <trkpt lat="43.81866" lon="5.56232">
        <ele>803.76</ele>
        <time>2010-12-17T00:09:16Z</time>
      </trkpt>
      <trkpt lat="43.81866" lon="5.5625">
        <ele>806.5</ele>
        <time>2010-12-17T00:09:21Z</time>
      </trkpt>
      <trkpt lat="43.81867" lon="5.56271">
        <ele>808.33</ele>
        <time>2010-12-17T00:09:27Z</time>
      </trkpt>
      <trkpt lat="43.81867" lon="5.56291">
        <ele>809.85</ele>
        <time>2010-12-17T00:09:33Z</time>
      </trkpt>
      <trkpt lat="43.81867" lon="5.56301">
        <ele>810.77</ele>
        <time>2010-12-17T00:09:36Z</time>
      </trkpt>
      <trkpt lat="43.81865" lon="5.56324">
        <ele>817.17</ele>
        <time>2010-12-17T00:09:43Z</time>
      </trkpt>
      <trkpt lat="43.81865" lon="5.56341">
        <ele>816.86</ele>
        <time>2010-12-17T00:09:48Z</time>
      </trkpt>
      <trkpt lat="43.81864" lon="5.56356">
        <ele>815.64</ele>
        <time>2010-12-17T00:09:52Z</time>
      </trkpt>
      <trkpt lat="43.81864" lon="5.56372">
        <ele>815.34</ele>
        <time>2010-12-17T00:09:57Z</time>
      </trkpt>
      <trkpt lat="43.81865" lon="5.5639">
        <ele>815.95</ele>
        <time>2010-12-17T00:10:02Z</time>
      </trkpt>
      <trkpt lat="43.81863" lon="5.56409">
        <ele>815.64</ele>
        <time>2010-12-17T00:10:07Z</time>
      </trkpt>
      <trkpt lat="43.81862" lon="5.56426">
        <ele>816.86</ele>
        <time>2010-12-17T00:10:12Z</time>
      </trkpt>
      <trkpt lat="43.81855" lon="5.56449">
        <ele>816.86</ele>
        <time>2010-12-17T00:10:20Z</time>
      </trkpt>
      <trkpt lat="43.81853" lon="5.56469">
        <ele>817.47</ele>
        <time>2010-12-17T00:10:25Z</time>
      </trkpt>
      <trkpt lat="43.81855" lon="5.56485">
        <ele>817.47</ele>
        <time>2010-12-17T00:10:30Z</time>
      </trkpt>
      <trkpt lat="43.81855" lon="5.56498">
        <ele>820.83</ele>
        <time>2010-12-17T00:10:34Z</time>
      </trkpt>
      <trkpt lat="43.81854" lon="5.56518">
        <ele>821.74</ele>
        <time>2010-12-17T00:10:40Z</time>
      </trkpt>
      <trkpt lat="43.81855" lon="5.56543">
        <ele>821.13</ele>
        <time>2010-12-17T00:10:47Z</time>
      </trkpt>
      <trkpt lat="43.81858" lon="5.56563">
        <ele>821.13</ele>
        <time>2010-12-17T00:10:53Z</time>
      </trkpt>
      <trkpt lat="43.81867" lon="5.56586">
        <ele>820.83</ele>
        <time>2010-12-17T00:11:00Z</time>
      </trkpt>
      <trkpt lat="43.81882" lon="5.56604">
        <ele>822.66</ele>
        <time>2010-12-17T00:11:08Z</time>
      </trkpt>
      <trkpt lat="43.819" lon="5.56621">
        <ele>825.4</ele>
        <time>2010-12-17T00:11:17Z</time>
      </trkpt>
      <trkpt lat="43.81914" lon="5.56628">
        <ele>826.62</ele>
        <time>2010-12-17T00:11:23Z</time>
      </trkpt>
      <trkpt lat="43.81933" lon="5.56647">
        <ele>826.62</ele>
        <time>2010-12-17T00:11:32Z</time>
      </trkpt>
      <trkpt lat="43.81951" lon="5.56675">
        <ele>826.01</ele>
        <time>2010-12-17T00:11:43Z</time>
      </trkpt>
      <trkpt lat="43.81954" lon="5.56679">
        <ele>826.01</ele>
        <time>2010-12-17T00:11:45Z</time>
      </trkpt>
      <trkpt lat="43.81965" lon="5.56699">
        <ele>825.4</ele>
        <time>2010-12-17T00:11:52Z</time>
      </trkpt>
      <trkpt lat="43.8197" lon="5.56708">
        <ele>825.09</ele>
        <time>2010-12-17T00:11:55Z</time>
      </trkpt>
      <trkpt lat="43.81971" lon="5.56715">
        <ele>825.4</ele>
        <time>2010-12-17T00:11:57Z</time>
      </trkpt>
      <trkpt lat="43.81971" lon="5.56716">
        <ele>825.4</ele>
        <time>2010-12-17T00:11:58Z</time>
      </trkpt>
      <trkpt lat="43.81971" lon="5.56719">
        <ele>825.4</ele>
        <time>2010-12-17T00:11:59Z</time>
      </trkpt>
      <trkpt lat="43.81974" lon="5.56729">
        <ele>831.19</ele>
        <time>2010-12-17T00:12:02Z</time>
      </trkpt>
      <trkpt lat="43.81972" lon="5.56747">
        <ele>829.97</ele>
        <time>2010-12-17T00:12:07Z</time>
      </trkpt>
      <trkpt lat="43.81964" lon="5.56767">
        <ele>828.14</ele>
        <time>2010-12-17T00:12:13Z</time>
      </trkpt>
      <trkpt lat="43.81947" lon="5.56794">
        <ele>827.84</ele>
        <time>2010-12-17T00:12:24Z</time>
      </trkpt>
      <trkpt lat="43.81934" lon="5.56811">
        <ele>827.53</ele>
        <time>2010-12-17T00:12:31Z</time>
      </trkpt>
      <trkpt lat="43.81924" lon="5.56836">
        <ele>827.84</ele>
        <time>2010-12-17T00:12:39Z</time>
      </trkpt>
      <trkpt lat="43.81913" lon="5.56868">
        <ele>828.75</ele>
        <time>2010-12-17T00:12:49Z</time>
      </trkpt>
      <trkpt lat="43.81901" lon="5.56909">
        <ele>829.06</ele>
        <time>2010-12-17T00:13:02Z</time>
      </trkpt>
      <trkpt lat="43.81894" lon="5.56952">
        <ele>828.75</ele>
        <time>2010-12-17T00:13:15Z</time>
      </trkpt>
      <trkpt lat="43.81891" lon="5.56979">
        <ele>828.14</ele>
        <time>2010-12-17T00:13:23Z</time>
      </trkpt>
      <trkpt lat="43.819" lon="5.56995">
        <ele>828.45</ele>
        <time>2010-12-17T00:13:29Z</time>
      </trkpt>
      <trkpt lat="43.8192" lon="5.5702">
        <ele>828.75</ele>
        <time>2010-12-17T00:13:39Z</time>
      </trkpt>
      <trkpt lat="43.81931" lon="5.5704">
        <ele>827.84</ele>
        <time>2010-12-17T00:13:47Z</time>
      </trkpt>
      <trkpt lat="43.81938" lon="5.57053">
        <ele>827.23</ele>
        <time>2010-12-17T00:13:52Z</time>
      </trkpt>
      <trkpt lat="43.81952" lon="5.57071">
        <ele>826.01</ele>
        <time>2010-12-17T00:13:59Z</time>
      </trkpt>
      <trkpt lat="43.81966" lon="5.57087">
        <ele>824.48</ele>
        <time>2010-12-17T00:14:06Z</time>
      </trkpt>
      <trkpt lat="43.81969" lon="5.57091">
        <ele>824.18</ele>
        <time>2010-12-17T00:14:08Z</time>
      </trkpt>
      <trkpt lat="43.81975" lon="5.57101">
        <ele>822.96</ele>
        <time>2010-12-17T00:14:12Z</time>
      </trkpt>
      <trkpt lat="43.82002" lon="5.57129">
        <ele>819</ele>
        <time>2010-12-17T00:14:25Z</time>
      </trkpt>
      <trkpt lat="43.82009" lon="5.57133">
        <ele>818.39</ele>
        <time>2010-12-17T00:14:28Z</time>
      </trkpt>
      <trkpt lat="43.8204" lon="5.57141">
        <ele>814.12</ele>
        <time>2010-12-17T00:14:41Z</time>
      </trkpt>
      <trkpt lat="43.82086" lon="5.57152">
        <ele>808.94</ele>
        <time>2010-12-17T00:15:00Z</time>
      </trkpt>
      <trkpt lat="43.82127" lon="5.57164">
        <ele>804.98</ele>
        <time>2010-12-17T00:15:16Z</time>
      </trkpt>
      <trkpt lat="43.82148" lon="5.57172">
        <ele>802.54</ele>
        <time>2010-12-17T00:15:25Z</time>
      </trkpt>
      <trkpt lat="43.82203" lon="5.5719">
        <ele>797.97</ele>
        <time>2010-12-17T00:15:48Z</time>
      </trkpt>
      <trkpt lat="43.82215" lon="5.57194">
        <ele>797.66</ele>
        <time>2010-12-17T00:15:53Z</time>
      </trkpt>
      <trkpt lat="43.82243" lon="5.57212">
        <ele>796.14</ele>
        <time>2010-12-17T00:16:05Z</time>
      </trkpt>
      <trkpt lat="43.82272" lon="5.57231">
        <ele>794</ele>
        <time>2010-12-17T00:16:18Z</time>
      </trkpt>
      <trkpt lat="43.82273" lon="5.57239">
        <ele>792.78</ele>
        <time>2010-12-17T00:16:20Z</time>
      </trkpt>
      <trkpt lat="43.8227" lon="5.57246">
        <ele>789.74</ele>
        <time>2010-12-17T00:16:22Z</time>
      </trkpt>
      <trkpt lat="43.82269" lon="5.57247">
        <ele>790.04</ele>
        <time>2010-12-17T00:16:23Z</time>
      </trkpt>
      <trkpt lat="43.82261" lon="5.57256">
        <ele>797.05</ele>
        <time>2010-12-17T00:16:27Z</time>
      </trkpt>
      <trkpt lat="43.82261" lon="5.57267">
        <ele>797.36</ele>
        <time>2010-12-17T00:16:30Z</time>
      </trkpt>
      <trkpt lat="43.82252" lon="5.57289">
        <ele>796.44</ele>
        <time>2010-12-17T00:16:37Z</time>
      </trkpt>
      <trkpt lat="43.82237" lon="5.57314">
        <ele>794.92</ele>
        <time>2010-12-17T00:16:47Z</time>
      </trkpt>
      <trkpt lat="43.82224" lon="5.57335">
        <ele>792.48</ele>
        <time>2010-12-17T00:16:55Z</time>
      </trkpt>
      <trkpt lat="43.82201" lon="5.57355">
        <ele>788.21</ele>
        <time>2010-12-17T00:17:05Z</time>
      </trkpt>
      <trkpt lat="43.82197" lon="5.57359">
        <ele>787.3</ele>
        <time>2010-12-17T00:17:08Z</time>
      </trkpt>
      <trkpt lat="43.82181" lon="5.5739">
        <ele>781.81</ele>
        <time>2010-12-17T00:17:18Z</time>
      </trkpt>
      <trkpt lat="43.82173" lon="5.57403">
        <ele>780.9</ele>
        <time>2010-12-17T00:17:24Z</time>
      </trkpt>
      <trkpt lat="43.8216" lon="5.57423">
        <ele>777.54</ele>
        <time>2010-12-17T00:17:31Z</time>
      </trkpt>
      <trkpt lat="43.82155" lon="5.57459">
        <ele>774.19</ele>
        <time>2010-12-17T00:17:42Z</time>
      </trkpt>
      <trkpt lat="43.82155" lon="5.57485">
        <ele>768.71</ele>
        <time>2010-12-17T00:17:49Z</time>
      </trkpt>
      <trkpt lat="43.82165" lon="5.57531">
        <ele>759.87</ele>
        <time>2010-12-17T00:18:03Z</time>
      </trkpt>
      <trkpt lat="43.82169" lon="5.57541">
        <ele>758.04</ele>
        <time>2010-12-17T00:18:06Z</time>
      </trkpt>
      <trkpt lat="43.82169" lon="5.57544">
        <ele>757.12</ele>
        <time>2010-12-17T00:18:07Z</time>
      </trkpt>
      <trkpt lat="43.82177" lon="5.57564">
        <ele>748.28</ele>
        <time>2010-12-17T00:18:14Z</time>
      </trkpt>
      <trkpt lat="43.82187" lon="5.57599">
        <ele>740.66</ele>
        <time>2010-12-17T00:18:25Z</time>
      </trkpt>
      <trkpt lat="43.82195" lon="5.57623">
        <ele>738.84</ele>
        <time>2010-12-17T00:18:32Z</time>
      </trkpt>
      <trkpt lat="43.82199" lon="5.57641">
        <ele>738.23</ele>
        <time>2010-12-17T00:18:38Z</time>
      </trkpt>
      <trkpt lat="43.82219" lon="5.57685">
        <ele>737.01</ele>
        <time>2010-12-17T00:18:53Z</time>
      </trkpt>
      <trkpt lat="43.82226" lon="5.57702">
        <ele>733.96</ele>
        <time>2010-12-17T00:18:59Z</time>
      </trkpt>
      <trkpt lat="43.82228" lon="5.5773">
        <ele>732.74</ele>
        <time>2010-12-17T00:19:07Z</time>
      </trkpt>
      <trkpt lat="43.82232" lon="5.57748">
        <ele>732.74</ele>
        <time>2010-12-17T00:19:12Z</time>
      </trkpt>
      <trkpt lat="43.82234" lon="5.57781">
        <ele>735.18</ele>
        <time>2010-12-17T00:19:22Z</time>
      </trkpt>
      <trkpt lat="43.82235" lon="5.57799">
        <ele>736.4</ele>
        <time>2010-12-17T00:19:27Z</time>
      </trkpt>
      <trkpt lat="43.82234" lon="5.57829">
        <ele>733.96</ele>
        <time>2010-12-17T00:19:36Z</time>
      </trkpt>
      <trkpt lat="43.82232" lon="5.5785">
        <ele>732.43</ele>
        <time>2010-12-17T00:19:42Z</time>
      </trkpt>
      <trkpt lat="43.8223" lon="5.57872">
        <ele>730</ele>
        <time>2010-12-17T00:19:48Z</time>
      </trkpt>
      <trkpt lat="43.82227" lon="5.57906">
        <ele>724.81</ele>
        <time>2010-12-17T00:19:58Z</time>
      </trkpt>
      <trkpt lat="43.82228" lon="5.57943">
        <ele>719.33</ele>
        <time>2010-12-17T00:20:09Z</time>
      </trkpt>
      <trkpt lat="43.82226" lon="5.57959">
        <ele>716.89</ele>
        <time>2010-12-17T00:20:13Z</time>
      </trkpt>
      <trkpt lat="43.82226" lon="5.57977">
        <ele>713.84</ele>
        <time>2010-12-17T00:20:19Z</time>
      </trkpt>
      <trkpt lat="43.82232" lon="5.58">
        <ele>710.49</ele>
        <time>2010-12-17T00:20:26Z</time>
      </trkpt>
      <trkpt lat="43.82238" lon="5.58033">
        <ele>704.09</ele>
        <time>2010-12-17T00:20:35Z</time>
      </trkpt>
      <trkpt lat="43.82239" lon="5.58045">
        <ele>701.95</ele>
        <time>2010-12-17T00:20:39Z</time>
      </trkpt>
      <trkpt lat="43.82244" lon="5.58068">
        <ele>698.3</ele>
        <time>2010-12-17T00:20:46Z</time>
      </trkpt>
      <trkpt lat="43.82249" lon="5.58101">
        <ele>694.03</ele>
        <time>2010-12-17T00:20:56Z</time>
      </trkpt>
      <trkpt lat="43.82261" lon="5.58141">
        <ele>689.46</ele>
        <time>2010-12-17T00:21:08Z</time>
      </trkpt>
      <trkpt lat="43.82268" lon="5.58173">
        <ele>687.32</ele>
        <time>2010-12-17T00:21:18Z</time>
      </trkpt>
      <trkpt lat="43.82267" lon="5.58215">
        <ele>680.01</ele>
        <time>2010-12-17T00:21:30Z</time>
      </trkpt>
      <trkpt lat="43.82267" lon="5.58233">
        <ele>677.57</ele>
        <time>2010-12-17T00:21:35Z</time>
      </trkpt>
      <trkpt lat="43.82281" lon="5.58263">
        <ele>670.26</ele>
        <time>2010-12-17T00:21:46Z</time>
      </trkpt>
      <trkpt lat="43.8229" lon="5.58279">
        <ele>667.51</ele>
        <time>2010-12-17T00:21:51Z</time>
      </trkpt>
      <trkpt lat="43.82313" lon="5.58306">
        <ele>661.42</ele>
        <time>2010-12-17T00:22:03Z</time>
      </trkpt>
      <trkpt lat="43.8233" lon="5.58327">
        <ele>657.76</ele>
        <time>2010-12-17T00:22:13Z</time>
      </trkpt>
      <trkpt lat="43.82343" lon="5.58363">
        <ele>652.58</ele>
        <time>2010-12-17T00:22:24Z</time>
      </trkpt>
      <trkpt lat="43.82345" lon="5.58371">
        <ele>651.36</ele>
        <time>2010-12-17T00:22:27Z</time>
      </trkpt>
      <trkpt lat="43.82359" lon="5.58396">
        <ele>646.48</ele>
        <time>2010-12-17T00:22:36Z</time>
      </trkpt>
      <trkpt lat="43.82366" lon="5.58431">
        <ele>640.99</ele>
        <time>2010-12-17T00:22:46Z</time>
      </trkpt>
      <trkpt lat="43.82368" lon="5.5845">
        <ele>637.34</ele>
        <time>2010-12-17T00:22:52Z</time>
      </trkpt>
      <trkpt lat="43.82376" lon="5.58505">
        <ele>629.72</ele>
        <time>2010-12-17T00:23:08Z</time>
      </trkpt>
      <trkpt lat="43.82377" lon="5.58553">
        <ele>622.71</ele>
        <time>2010-12-17T00:23:22Z</time>
      </trkpt>
      <trkpt lat="43.8238" lon="5.58559">
        <ele>620.88</ele>
        <time>2010-12-17T00:23:24Z</time>
      </trkpt>
      <trkpt lat="43.8239" lon="5.58552">
        <ele>628.8</ele>
        <time>2010-12-17T00:23:28Z</time>
      </trkpt>
      <trkpt lat="43.82395" lon="5.58553">
        <ele>629.72</ele>
        <time>2010-12-17T00:23:31Z</time>
      </trkpt>
      <trkpt lat="43.82401" lon="5.58551">
        <ele>630.63</ele>
        <time>2010-12-17T00:23:33Z</time>
      </trkpt>
      <trkpt lat="43.82415" lon="5.58549">
        <ele>633.37</ele>
        <time>2010-12-17T00:23:38Z</time>
      </trkpt>
      <trkpt lat="43.82426" lon="5.58548">
        <ele>634.29</ele>
        <time>2010-12-17T00:23:43Z</time>
      </trkpt>
      <trkpt lat="43.82437" lon="5.58546">
        <ele>635.51</ele>
        <time>2010-12-17T00:23:47Z</time>
      </trkpt>
      <trkpt lat="43.82444" lon="5.58545">
        <ele>636.73</ele>
        <time>2010-12-17T00:23:50Z</time>
      </trkpt>
      <trkpt lat="43.82453" lon="5.58539">
        <ele>635.2</ele>
        <time>2010-12-17T00:23:54Z</time>
      </trkpt>
      <trkpt lat="43.8246" lon="5.5853">
        <ele>634.29</ele>
        <time>2010-12-17T00:23:58Z</time>
      </trkpt>
      <trkpt lat="43.82466" lon="5.58523">
        <ele>633.68</ele>
        <time>2010-12-17T00:24:01Z</time>
      </trkpt>
      <trkpt lat="43.82469" lon="5.5852">
        <ele>632.76</ele>
        <time>2010-12-17T00:24:02Z</time>
      </trkpt>
      <trkpt lat="43.82472" lon="5.58515">
        <ele>632.76</ele>
        <time>2010-12-17T00:24:04Z</time>
      </trkpt>
      <trkpt lat="43.82475" lon="5.58513">
        <ele>632.46</ele>
        <time>2010-12-17T00:24:06Z</time>
      </trkpt>
      <trkpt lat="43.82477" lon="5.58513">
        <ele>631.55</ele>
        <time>2010-12-17T00:24:06Z</time>
      </trkpt>
      <trkpt lat="43.82486" lon="5.58502">
        <ele>630.63</ele>
        <time>2010-12-17T00:24:11Z</time>
      </trkpt>
      <trkpt lat="43.8249" lon="5.58495">
        <ele>632.76</ele>
        <time>2010-12-17T00:24:14Z</time>
      </trkpt>
      <trkpt lat="43.82491" lon="5.58494">
        <ele>633.68</ele>
        <time>2010-12-17T00:24:14Z</time>
      </trkpt>
      <trkpt lat="43.82494" lon="5.58491">
        <ele>633.98</ele>
        <time>2010-12-17T00:24:16Z</time>
      </trkpt>
      <trkpt lat="43.82496" lon="5.58489">
        <ele>633.68</ele>
        <time>2010-12-17T00:24:17Z</time>
      </trkpt>
      <trkpt lat="43.82498" lon="5.58486">
        <ele>633.68</ele>
        <time>2010-12-17T00:24:18Z</time>
      </trkpt>
      <trkpt lat="43.82501" lon="5.58481">
        <ele>633.07</ele>
        <time>2010-12-17T00:24:20Z</time>
      </trkpt>
      <trkpt lat="43.82508" lon="5.58474">
        <ele>632.16</ele>
        <time>2010-12-17T00:24:23Z</time>
      </trkpt>
      <trkpt lat="43.82511" lon="5.58471">
        <ele>632.16</ele>
        <time>2010-12-17T00:24:25Z</time>
      </trkpt>
      <trkpt lat="43.82511" lon="5.58465">
        <ele>639.17</ele>
        <time>2010-12-17T00:24:26Z</time>
      </trkpt>
      <trkpt lat="43.82511" lon="5.58465">
        <ele>639.17</ele>
        <time>2010-12-17T00:24:26Z</time>
      </trkpt>
      <trkpt lat="43.82513" lon="5.58462">
        <ele>639.17</ele>
        <time>2010-12-17T00:24:28Z</time>
      </trkpt>
      <trkpt lat="43.82516" lon="5.58458">
        <ele>640.38</ele>
        <time>2010-12-17T00:24:29Z</time>
      </trkpt>
      <trkpt lat="43.82525" lon="5.58451">
        <ele>641.3</ele>
        <time>2010-12-17T00:24:34Z</time>
      </trkpt>
      <trkpt lat="43.82534" lon="5.58442">
        <ele>643.13</ele>
        <time>2010-12-17T00:24:38Z</time>
      </trkpt>
      <trkpt lat="43.82542" lon="5.58434">
        <ele>647.4</ele>
        <time>2010-12-17T00:24:42Z</time>
      </trkpt>
      <trkpt lat="43.82546" lon="5.58427">
        <ele>648</ele>
        <time>2010-12-17T00:24:44Z</time>
      </trkpt>
      <trkpt lat="43.82553" lon="5.58417">
        <ele>649.22</ele>
        <time>2010-12-17T00:24:48Z</time>
      </trkpt>
      <trkpt lat="43.82558" lon="5.5841">
        <ele>647.7</ele>
        <time>2010-12-17T00:24:51Z</time>
      </trkpt>
      <trkpt lat="43.82563" lon="5.58404">
        <ele>647.09</ele>
        <time>2010-12-17T00:24:54Z</time>
      </trkpt>
      <trkpt lat="43.82569" lon="5.58397">
        <ele>644.96</ele>
        <time>2010-12-17T00:24:57Z</time>
      </trkpt>
      <trkpt lat="43.82576" lon="5.58388">
        <ele>645.57</ele>
        <time>2010-12-17T00:25:01Z</time>
      </trkpt>
      <trkpt lat="43.82577" lon="5.58386">
        <ele>645.87</ele>
        <time>2010-12-17T00:25:02Z</time>
      </trkpt>
      <trkpt lat="43.82583" lon="5.58379">
        <ele>645.26</ele>
        <time>2010-12-17T00:25:05Z</time>
      </trkpt>
      <trkpt lat="43.82588" lon="5.58372">
        <ele>645.57</ele>
        <time>2010-12-17T00:25:08Z</time>
      </trkpt>
      <trkpt lat="43.8259" lon="5.58362">
        <ele>645.26</ele>
        <time>2010-12-17T00:25:10Z</time>
      </trkpt>
      <trkpt lat="43.82589" lon="5.58353">
        <ele>653.49</ele>
        <time>2010-12-17T00:25:13Z</time>
      </trkpt>
      <trkpt lat="43.82596" lon="5.58342">
        <ele>652.88</ele>
        <time>2010-12-17T00:25:18Z</time>
      </trkpt>
      <trkpt lat="43.82603" lon="5.58328">
        <ele>658.98</ele>
        <time>2010-12-17T00:25:22Z</time>
      </trkpt>
      <trkpt lat="43.82604" lon="5.58324">
        <ele>658.98</ele>
        <time>2010-12-17T00:25:23Z</time>
      </trkpt>
      <trkpt lat="43.82604" lon="5.58324">
        <ele>658.67</ele>
        <time>2010-12-17T00:25:23Z</time>
      </trkpt>
      <trkpt lat="43.82607" lon="5.58319">
        <ele>657.15</ele>
        <time>2010-12-17T00:25:26Z</time>
      </trkpt>
      <trkpt lat="43.82608" lon="5.58316">
        <ele>656.54</ele>
        <time>2010-12-17T00:25:27Z</time>
      </trkpt>
      <trkpt lat="43.82613" lon="5.58309">
        <ele>656.23</ele>
        <time>2010-12-17T00:25:29Z</time>
      </trkpt>
      <trkpt lat="43.8262" lon="5.58304">
        <ele>655.62</ele>
        <time>2010-12-17T00:25:32Z</time>
      </trkpt>
      <trkpt lat="43.82627" lon="5.58295">
        <ele>657.15</ele>
        <time>2010-12-17T00:25:36Z</time>
      </trkpt>
      <trkpt lat="43.8263" lon="5.58285">
        <ele>660.2</ele>
        <time>2010-12-17T00:25:39Z</time>
      </trkpt>
      <trkpt lat="43.82631" lon="5.58281">
        <ele>659.59</ele>
        <time>2010-12-17T00:25:41Z</time>
      </trkpt>
      <trkpt lat="43.82632" lon="5.58281">
        <ele>658.67</ele>
        <time>2010-12-17T00:25:41Z</time>
      </trkpt>
      <trkpt lat="43.8264" lon="5.58272">
        <ele>660.2</ele>
        <time>2010-12-17T00:25:45Z</time>
      </trkpt>
      <trkpt lat="43.82649" lon="5.58256">
        <ele>661.42</ele>
        <time>2010-12-17T00:25:51Z</time>
      </trkpt>
      <trkpt lat="43.82657" lon="5.58242">
        <ele>662.94</ele>
        <time>2010-12-17T00:25:56Z</time>
      </trkpt>
      <trkpt lat="43.82667" lon="5.58229">
        <ele>663.55</ele>
        <time>2010-12-17T00:26:01Z</time>
      </trkpt>
      <trkpt lat="43.82677" lon="5.58215">
        <ele>664.77</ele>
        <time>2010-12-17T00:26:07Z</time>
      </trkpt>
      <trkpt lat="43.82687" lon="5.58205">
        <ele>666.6</ele>
        <time>2010-12-17T00:26:12Z</time>
      </trkpt>
      <trkpt lat="43.82688" lon="5.58203">
        <ele>666.6</ele>
        <time>2010-12-17T00:26:13Z</time>
      </trkpt>
      <trkpt lat="43.82697" lon="5.5819">
        <ele>667.82</ele>
        <time>2010-12-17T00:26:18Z</time>
      </trkpt>
      <trkpt lat="43.82707" lon="5.58178">
        <ele>668.43</ele>
        <time>2010-12-17T00:26:23Z</time>
      </trkpt>
      <trkpt lat="43.82718" lon="5.58168">
        <ele>669.04</ele>
        <time>2010-12-17T00:26:28Z</time>
      </trkpt>
      <trkpt lat="43.82728" lon="5.58157">
        <ele>669.34</ele>
        <time>2010-12-17T00:26:34Z</time>
      </trkpt>
      <trkpt lat="43.82738" lon="5.58145">
        <ele>670.26</ele>
        <time>2010-12-17T00:26:39Z</time>
      </trkpt>
      <trkpt lat="43.82752" lon="5.58127">
        <ele>670.56</ele>
        <time>2010-12-17T00:26:46Z</time>
      </trkpt>
      <trkpt lat="43.82762" lon="5.58111">
        <ele>671.47</ele>
        <time>2010-12-17T00:26:53Z</time>
      </trkpt>
      <trkpt lat="43.82768" lon="5.581">
        <ele>672.08</ele>
        <time>2010-12-17T00:26:57Z</time>
      </trkpt>
      <trkpt lat="43.82778" lon="5.58091">
        <ele>673</ele>
        <time>2010-12-17T00:27:01Z</time>
      </trkpt>
      <trkpt lat="43.82786" lon="5.5808">
        <ele>674.22</ele>
        <time>2010-12-17T00:27:06Z</time>
      </trkpt>
      <trkpt lat="43.82796" lon="5.58072">
        <ele>675.44</ele>
        <time>2010-12-17T00:27:10Z</time>
      </trkpt>
      <trkpt lat="43.82801" lon="5.58071">
        <ele>675.74</ele>
        <time>2010-12-17T00:27:13Z</time>
      </trkpt>
      <trkpt lat="43.82808" lon="5.58057">
        <ele>676.66</ele>
        <time>2010-12-17T00:27:17Z</time>
      </trkpt>
      <trkpt lat="43.8281" lon="5.58051">
        <ele>677.27</ele>
        <time>2010-12-17T00:27:19Z</time>
      </trkpt>
      <trkpt lat="43.82816" lon="5.58037">
        <ele>680.01</ele>
        <time>2010-12-17T00:27:24Z</time>
      </trkpt>
      <trkpt lat="43.82822" lon="5.58027">
        <ele>679.7</ele>
        <time>2010-12-17T00:27:28Z</time>
      </trkpt>
      <trkpt lat="43.82823" lon="5.58026">
        <ele>679.7</ele>
        <time>2010-12-17T00:27:28Z</time>
      </trkpt>
      <trkpt lat="43.82827" lon="5.58017">
        <ele>679.7</ele>
        <time>2010-12-17T00:27:31Z</time>
      </trkpt>
      <trkpt lat="43.82835" lon="5.58002">
        <ele>680.31</ele>
        <time>2010-12-17T00:27:37Z</time>
      </trkpt>
      <trkpt lat="43.82841" lon="5.57991">
        <ele>680.31</ele>
        <time>2010-12-17T00:27:41Z</time>
      </trkpt>
      <trkpt lat="43.82845" lon="5.57983">
        <ele>680.62</ele>
        <time>2010-12-17T00:27:44Z</time>
      </trkpt>
      <trkpt lat="43.8285" lon="5.57974">
        <ele>681.23</ele>
        <time>2010-12-17T00:27:47Z</time>
      </trkpt>
      <trkpt lat="43.82856" lon="5.57961">
        <ele>682.14</ele>
        <time>2010-12-17T00:27:51Z</time>
      </trkpt>
      <trkpt lat="43.82864" lon="5.57945">
        <ele>683.36</ele>
        <time>2010-12-17T00:27:57Z</time>
      </trkpt>
      <trkpt lat="43.82869" lon="5.57937">
        <ele>683.67</ele>
        <time>2010-12-17T00:28:00Z</time>
      </trkpt>
      <trkpt lat="43.82878" lon="5.5792">
        <ele>684.58</ele>
        <time>2010-12-17T00:28:06Z</time>
      </trkpt>
      <trkpt lat="43.82891" lon="5.57892">
        <ele>686.41</ele>
        <time>2010-12-17T00:28:16Z</time>
      </trkpt>
      <trkpt lat="43.82904" lon="5.57869">
        <ele>687.32</ele>
        <time>2010-12-17T00:28:24Z</time>
      </trkpt>
      <trkpt lat="43.82919" lon="5.57856">
        <ele>688.54</ele>
        <time>2010-12-17T00:28:31Z</time>
      </trkpt>
      <trkpt lat="43.82935" lon="5.57848">
        <ele>689.46</ele>
        <time>2010-12-17T00:28:38Z</time>
      </trkpt>
      <trkpt lat="43.82942" lon="5.57835">
        <ele>689.76</ele>
        <time>2010-12-17T00:28:43Z</time>
      </trkpt>
      <trkpt lat="43.82946" lon="5.57816">
        <ele>690.37</ele>
        <time>2010-12-17T00:28:48Z</time>
      </trkpt>
      <trkpt lat="43.82946" lon="5.57789">
        <ele>691.59</ele>
        <time>2010-12-17T00:28:56Z</time>
      </trkpt>
      <trkpt lat="43.8294" lon="5.57763">
        <ele>692.81</ele>
        <time>2010-12-17T00:29:04Z</time>
      </trkpt>
      <trkpt lat="43.82939" lon="5.5774">
        <ele>693.72</ele>
        <time>2010-12-17T00:29:11Z</time>
      </trkpt>
      <trkpt lat="43.82938" lon="5.57717">
        <ele>694.64</ele>
        <time>2010-12-17T00:29:17Z</time>
      </trkpt>
      <trkpt lat="43.8294" lon="5.5769">
        <ele>695.55</ele>
        <time>2010-12-17T00:29:25Z</time>
      </trkpt>
      <trkpt lat="43.82947" lon="5.57661">
        <ele>696.16</ele>
        <time>2010-12-17T00:29:34Z</time>
      </trkpt>
      <trkpt lat="43.82956" lon="5.57634">
        <ele>697.38</ele>
        <time>2010-12-17T00:29:43Z</time>
      </trkpt>
      <trkpt lat="43.82962" lon="5.57615">
        <ele>697.99</ele>
        <time>2010-12-17T00:29:49Z</time>
      </trkpt>
      <trkpt lat="43.82969" lon="5.57592">
        <ele>699.52</ele>
        <time>2010-12-17T00:29:56Z</time>
      </trkpt>
      <trkpt lat="43.82976" lon="5.57565">
        <ele>700.74</ele>
        <time>2010-12-17T00:30:04Z</time>
      </trkpt>
      <trkpt lat="43.82985" lon="5.57535">
        <ele>701.95</ele>
        <time>2010-12-17T00:30:13Z</time>
      </trkpt>
      <trkpt lat="43.82991" lon="5.5751">
        <ele>703.48</ele>
        <time>2010-12-17T00:30:21Z</time>
      </trkpt>
      <trkpt lat="43.82994" lon="5.57501">
        <ele>704.09</ele>
        <time>2010-12-17T00:30:24Z</time>
      </trkpt>
      <trkpt lat="43.82997" lon="5.5749">
        <ele>704.39</ele>
        <time>2010-12-17T00:30:27Z</time>
      </trkpt>
      <trkpt lat="43.83002" lon="5.57466">
        <ele>705.61</ele>
        <time>2010-12-17T00:30:35Z</time>
      </trkpt>
      <trkpt lat="43.83004" lon="5.57443">
        <ele>706.53</ele>
        <time>2010-12-17T00:30:41Z</time>
      </trkpt>
      <trkpt lat="43.83002" lon="5.57424">
        <ele>707.14</ele>
        <time>2010-12-17T00:30:47Z</time>
      </trkpt>
      <trkpt lat="43.82996" lon="5.57404">
        <ele>710.18</ele>
        <time>2010-12-17T00:30:53Z</time>
      </trkpt>
      <trkpt lat="43.82989" lon="5.57389">
        <ele>713.84</ele>
        <time>2010-12-17T00:30:58Z</time>
      </trkpt>
      <trkpt lat="43.82983" lon="5.57376">
        <ele>714.76</ele>
        <time>2010-12-17T00:31:03Z</time>
      </trkpt>
      <trkpt lat="43.82975" lon="5.57354">
        <ele>715.67</ele>
        <time>2010-12-17T00:31:10Z</time>
      </trkpt>
      <trkpt lat="43.82969" lon="5.57323">
        <ele>716.89</ele>
        <time>2010-12-17T00:31:19Z</time>
      </trkpt>
      <trkpt lat="43.82966" lon="5.57299">
        <ele>717.5</ele>
        <time>2010-12-17T00:31:26Z</time>
      </trkpt>
      <trkpt lat="43.82964" lon="5.57271">
        <ele>718.72</ele>
        <time>2010-12-17T00:31:34Z</time>
      </trkpt>
      <trkpt lat="43.82959" lon="5.57246">
        <ele>719.94</ele>
        <time>2010-12-17T00:31:42Z</time>
      </trkpt>
      <trkpt lat="43.82952" lon="5.57229">
        <ele>720.55</ele>
        <time>2010-12-17T00:31:47Z</time>
      </trkpt>
      <trkpt lat="43.82945" lon="5.57216">
        <ele>722.07</ele>
        <time>2010-12-17T00:31:52Z</time>
      </trkpt>
      <trkpt lat="43.82937" lon="5.572">
        <ele>722.07</ele>
        <time>2010-12-17T00:31:58Z</time>
      </trkpt>
      <trkpt lat="43.82926" lon="5.57175">
        <ele>722.99</ele>
        <time>2010-12-17T00:32:06Z</time>
      </trkpt>
      <trkpt lat="43.82917" lon="5.57155">
        <ele>725.12</ele>
        <time>2010-12-17T00:32:13Z</time>
      </trkpt>
      <trkpt lat="43.82909" lon="5.57134">
        <ele>726.03</ele>
        <time>2010-12-17T00:32:20Z</time>
      </trkpt>
      <trkpt lat="43.82902" lon="5.57116">
        <ele>727.25</ele>
        <time>2010-12-17T00:32:26Z</time>
      </trkpt>
      <trkpt lat="43.82895" lon="5.57095">
        <ele>726.95</ele>
        <time>2010-12-17T00:32:32Z</time>
      </trkpt>
      <trkpt lat="43.82888" lon="5.57079">
        <ele>727.56</ele>
        <time>2010-12-17T00:32:38Z</time>
      </trkpt>
      <trkpt lat="43.82883" lon="5.57065">
        <ele>727.56</ele>
        <time>2010-12-17T00:32:42Z</time>
      </trkpt>
      <trkpt lat="43.82873" lon="5.57046">
        <ele>727.56</ele>
        <time>2010-12-17T00:32:49Z</time>
      </trkpt>
      <trkpt lat="43.82862" lon="5.57026">
        <ele>730.61</ele>
        <time>2010-12-17T00:32:56Z</time>
      </trkpt>
      <trkpt lat="43.82854" lon="5.57012">
        <ele>732.43</ele>
        <time>2010-12-17T00:33:02Z</time>
      </trkpt>
      <trkpt lat="43.82841" lon="5.56993">
        <ele>734.87</ele>
        <time>2010-12-17T00:33:09Z</time>
      </trkpt>
      <trkpt lat="43.82831" lon="5.56979">
        <ele>736.4</ele>
        <time>2010-12-17T00:33:15Z</time>
      </trkpt>
      <trkpt lat="43.8282" lon="5.56965">
        <ele>737.62</ele>
        <time>2010-12-17T00:33:21Z</time>
      </trkpt>
      <trkpt lat="43.82809" lon="5.56946">
        <ele>738.84</ele>
        <time>2010-12-17T00:33:28Z</time>
      </trkpt>
      <trkpt lat="43.82803" lon="5.56933">
        <ele>740.05</ele>
        <time>2010-12-17T00:33:32Z</time>
      </trkpt>
      <trkpt lat="43.82798" lon="5.56922">
        <ele>740.66</ele>
        <time>2010-12-17T00:33:36Z</time>
      </trkpt>
      <trkpt lat="43.82791" lon="5.56907">
        <ele>741.58</ele>
        <time>2010-12-17T00:33:41Z</time>
      </trkpt>
      <trkpt lat="43.82787" lon="5.56893">
        <ele>742.49</ele>
        <time>2010-12-17T00:33:45Z</time>
      </trkpt>
      <trkpt lat="43.82783" lon="5.56878">
        <ele>743.41</ele>
        <time>2010-12-17T00:33:50Z</time>
      </trkpt>
      <trkpt lat="43.82777" lon="5.56864">
        <ele>744.32</ele>
        <time>2010-12-17T00:33:55Z</time>
      </trkpt>
      <trkpt lat="43.82771" lon="5.56851">
        <ele>744.32</ele>
        <time>2010-12-17T00:33:59Z</time>
      </trkpt>
      <trkpt lat="43.8276" lon="5.56841">
        <ele>746.76</ele>
        <time>2010-12-17T00:34:04Z</time>
      </trkpt>
      <trkpt lat="43.82749" lon="5.56829">
        <ele>748.28</ele>
        <time>2010-12-17T00:34:10Z</time>
      </trkpt>
      <trkpt lat="43.82738" lon="5.56818">
        <ele>751.03</ele>
        <time>2010-12-17T00:34:15Z</time>
      </trkpt>
      <trkpt lat="43.82726" lon="5.56809">
        <ele>753.77</ele>
        <time>2010-12-17T00:34:21Z</time>
      </trkpt>
      <trkpt lat="43.82713" lon="5.56804">
        <ele>754.38</ele>
        <time>2010-12-17T00:34:26Z</time>
      </trkpt>
      <trkpt lat="43.82701" lon="5.568">
        <ele>754.99</ele>
        <time>2010-12-17T00:34:32Z</time>
      </trkpt>
      <trkpt lat="43.82689" lon="5.56798">
        <ele>755.29</ele>
        <time>2010-12-17T00:34:36Z</time>
      </trkpt>
      <trkpt lat="43.82679" lon="5.56798">
        <ele>755.9</ele>
        <time>2010-12-17T00:34:40Z</time>
      </trkpt>
      <trkpt lat="43.82667" lon="5.56801">
        <ele>756.82</ele>
        <time>2010-12-17T00:34:45Z</time>
      </trkpt>
      <trkpt lat="43.82664" lon="5.56801">
        <ele>756.82</ele>
        <time>2010-12-17T00:34:46Z</time>
      </trkpt>
      <trkpt lat="43.82657" lon="5.56803">
        <ele>757.12</ele>
        <time>2010-12-17T00:34:49Z</time>
      </trkpt>
      <trkpt lat="43.82644" lon="5.56806">
        <ele>757.73</ele>
        <time>2010-12-17T00:34:55Z</time>
      </trkpt>
      <trkpt lat="43.8263" lon="5.56807">
        <ele>758.65</ele>
        <time>2010-12-17T00:35:00Z</time>
      </trkpt>
      <trkpt lat="43.82625" lon="5.56807">
        <ele>759.56</ele>
        <time>2010-12-17T00:35:02Z</time>
      </trkpt>
      <trkpt lat="43.82609" lon="5.56806">
        <ele>762</ele>
        <time>2010-12-17T00:35:08Z</time>
      </trkpt>
      <trkpt lat="43.82596" lon="5.56804">
        <ele>763.52</ele>
        <time>2010-12-17T00:35:14Z</time>
      </trkpt>
      <trkpt lat="43.82585" lon="5.56802">
        <ele>764.44</ele>
        <time>2010-12-17T00:35:18Z</time>
      </trkpt>
      <trkpt lat="43.82573" lon="5.568">
        <ele>766.88</ele>
        <time>2010-12-17T00:35:23Z</time>
      </trkpt>
      <trkpt lat="43.8256" lon="5.56798">
        <ele>766.57</ele>
        <time>2010-12-17T00:35:28Z</time>
      </trkpt>
      <trkpt lat="43.82548" lon="5.56797">
        <ele>766.57</ele>
        <time>2010-12-17T00:35:33Z</time>
      </trkpt>
      <trkpt lat="43.82536" lon="5.56797">
        <ele>767.18</ele>
        <time>2010-12-17T00:35:38Z</time>
      </trkpt>
      <trkpt lat="43.82526" lon="5.568">
        <ele>768.71</ele>
        <time>2010-12-17T00:35:42Z</time>
      </trkpt>
      <trkpt lat="43.82513" lon="5.56801">
        <ele>769.62</ele>
        <time>2010-12-17T00:35:47Z</time>
      </trkpt>
      <trkpt lat="43.82495" lon="5.56801">
        <ele>770.84</ele>
        <time>2010-12-17T00:35:54Z</time>
      </trkpt>
      <trkpt lat="43.82483" lon="5.56801">
        <ele>772.06</ele>
        <time>2010-12-17T00:35:59Z</time>
      </trkpt>
      <trkpt lat="43.82465" lon="5.56802">
        <ele>773.58</ele>
        <time>2010-12-17T00:36:06Z</time>
      </trkpt>
      <trkpt lat="43.82451" lon="5.56803">
        <ele>773.89</ele>
        <time>2010-12-17T00:36:12Z</time>
      </trkpt>
      <trkpt lat="43.82432" lon="5.56804">
        <ele>775.11</ele>
        <time>2010-12-17T00:36:20Z</time>
      </trkpt>
      <trkpt lat="43.82413" lon="5.568">
        <ele>776.33</ele>
        <time>2010-12-17T00:36:27Z</time>
      </trkpt>
      <trkpt lat="43.82401" lon="5.56796">
        <ele>778.76</ele>
        <time>2010-12-17T00:36:32Z</time>
      </trkpt>
      <trkpt lat="43.82389" lon="5.56786">
        <ele>780.9</ele>
        <time>2010-12-17T00:36:38Z</time>
      </trkpt>
      <trkpt lat="43.82377" lon="5.56779">
        <ele>781.81</ele>
        <time>2010-12-17T00:36:43Z</time>
      </trkpt>
      <trkpt lat="43.82362" lon="5.56775">
        <ele>782.42</ele>
        <time>2010-12-17T00:36:49Z</time>
      </trkpt>
      <trkpt lat="43.82352" lon="5.56779">
        <ele>783.34</ele>
        <time>2010-12-17T00:36:53Z</time>
      </trkpt>
      <trkpt lat="43.82346" lon="5.56784">
        <ele>784.25</ele>
        <time>2010-12-17T00:36:56Z</time>
      </trkpt>
      <trkpt lat="43.82338" lon="5.56797">
        <ele>785.47</ele>
        <time>2010-12-17T00:37:01Z</time>
      </trkpt>
      <trkpt lat="43.82332" lon="5.5681">
        <ele>786.99</ele>
        <time>2010-12-17T00:37:06Z</time>
      </trkpt>
      <trkpt lat="43.82325" lon="5.56821">
        <ele>787.91</ele>
        <time>2010-12-17T00:37:10Z</time>
      </trkpt>
      <trkpt lat="43.82315" lon="5.56835">
        <ele>791.26</ele>
        <time>2010-12-17T00:37:15Z</time>
      </trkpt>
      <trkpt lat="43.82305" lon="5.56849">
        <ele>793.09</ele>
        <time>2010-12-17T00:37:21Z</time>
      </trkpt>
      <trkpt lat="43.82295" lon="5.56864">
        <ele>794.61</ele>
        <time>2010-12-17T00:37:27Z</time>
      </trkpt>
      <trkpt lat="43.82289" lon="5.56874">
        <ele>795.22</ele>
        <time>2010-12-17T00:37:31Z</time>
      </trkpt>
      <trkpt lat="43.82276" lon="5.56889">
        <ele>796.75</ele>
        <time>2010-12-17T00:37:37Z</time>
      </trkpt>
      <trkpt lat="43.82265" lon="5.56903">
        <ele>798.27</ele>
        <time>2010-12-17T00:37:43Z</time>
      </trkpt>
      <trkpt lat="43.82256" lon="5.56917">
        <ele>799.49</ele>
        <time>2010-12-17T00:37:49Z</time>
      </trkpt>
      <trkpt lat="43.82243" lon="5.56926">
        <ele>801.32</ele>
        <time>2010-12-17T00:37:55Z</time>
      </trkpt>
      <trkpt lat="43.8223" lon="5.56922">
        <ele>802.54</ele>
        <time>2010-12-17T00:38:00Z</time>
      </trkpt>
      <trkpt lat="43.82221" lon="5.56907">
        <ele>804.67</ele>
        <time>2010-12-17T00:38:06Z</time>
      </trkpt>
      <trkpt lat="43.82216" lon="5.56894">
        <ele>805.89</ele>
        <time>2010-12-17T00:38:10Z</time>
      </trkpt>
      <trkpt lat="43.82211" lon="5.5688">
        <ele>807.11</ele>
        <time>2010-12-17T00:38:14Z</time>
      </trkpt>
      <trkpt lat="43.82205" lon="5.56863">
        <ele>808.02</ele>
        <time>2010-12-17T00:38:20Z</time>
      </trkpt>
      <trkpt lat="43.82201" lon="5.56848">
        <ele>808.02</ele>
        <time>2010-12-17T00:38:24Z</time>
      </trkpt>
      <trkpt lat="43.82192" lon="5.56826">
        <ele>807.42</ele>
        <time>2010-12-17T00:38:32Z</time>
      </trkpt>
      <trkpt lat="43.82184" lon="5.56808">
        <ele>808.02</ele>
        <time>2010-12-17T00:38:38Z</time>
      </trkpt>
      <trkpt lat="43.82173" lon="5.56789">
        <ele>809.55</ele>
        <time>2010-12-17T00:38:45Z</time>
      </trkpt>
      <trkpt lat="43.82162" lon="5.56774">
        <ele>810.46</ele>
        <time>2010-12-17T00:38:51Z</time>
      </trkpt>
      <trkpt lat="43.82149" lon="5.5676">
        <ele>813.21</ele>
        <time>2010-12-17T00:38:58Z</time>
      </trkpt>
      <trkpt lat="43.8214" lon="5.56753">
        <ele>815.95</ele>
        <time>2010-12-17T00:39:02Z</time>
      </trkpt>
      <trkpt lat="43.8213" lon="5.56747">
        <ele>818.08</ele>
        <time>2010-12-17T00:39:06Z</time>
      </trkpt>
      <trkpt lat="43.82116" lon="5.56738">
        <ele>820.52</ele>
        <time>2010-12-17T00:39:12Z</time>
      </trkpt>
      <trkpt lat="43.82106" lon="5.56727">
        <ele>822.05</ele>
        <time>2010-12-17T00:39:17Z</time>
      </trkpt>
      <trkpt lat="43.82094" lon="5.56718">
        <ele>822.66</ele>
        <time>2010-12-17T00:39:23Z</time>
      </trkpt>
      <trkpt lat="43.82077" lon="5.56709">
        <ele>823.57</ele>
        <time>2010-12-17T00:39:30Z</time>
      </trkpt>
      <trkpt lat="43.8206" lon="5.56705">
        <ele>824.18</ele>
        <time>2010-12-17T00:39:37Z</time>
      </trkpt>
      <trkpt lat="43.82044" lon="5.56703">
        <ele>824.79</ele>
        <time>2010-12-17T00:39:43Z</time>
      </trkpt>
      <trkpt lat="43.82028" lon="5.56701">
        <ele>825.09</ele>
        <time>2010-12-17T00:39:50Z</time>
      </trkpt>
      <trkpt lat="43.82009" lon="5.56696">
        <ele>825.7</ele>
        <time>2010-12-17T00:39:58Z</time>
      </trkpt>
      <trkpt lat="43.81994" lon="5.56692">
        <ele>826.01</ele>
        <time>2010-12-17T00:40:04Z</time>
      </trkpt>
      <trkpt lat="43.81978" lon="5.56684">
        <ele>826.62</ele>
        <time>2010-12-17T00:40:11Z</time>
      </trkpt>
      <trkpt lat="43.81972" lon="5.56678">
        <ele>827.23</ele>
        <time>2010-12-17T00:40:14Z</time>
      </trkpt>
      <trkpt lat="43.81971" lon="5.56671">
        <ele>826.92</ele>
        <time>2010-12-17T00:40:16Z</time>
      </trkpt>
      <trkpt lat="43.81971" lon="5.56671">
        <ele>827.23</ele>
        <time>2010-12-17T00:40:16Z</time>
      </trkpt>
      <trkpt lat="43.8197" lon="5.56662">
        <ele>827.84</ele>
        <time>2010-12-17T00:40:18Z</time>
      </trkpt>
      <trkpt lat="43.81967" lon="5.56645">
        <ele>828.75</ele>
        <time>2010-12-17T00:40:23Z</time>
      </trkpt>
      <trkpt lat="43.81967" lon="5.5663">
        <ele>829.06</ele>
        <time>2010-12-17T00:40:28Z</time>
      </trkpt>
      <trkpt lat="43.81967" lon="5.56608">
        <ele>829.97</ele>
        <time>2010-12-17T00:40:34Z</time>
      </trkpt>
      <trkpt lat="43.81968" lon="5.5659">
        <ele>831.19</ele>
        <time>2010-12-17T00:40:39Z</time>
      </trkpt>
      <trkpt lat="43.81968" lon="5.56564">
        <ele>833.32</ele>
        <time>2010-12-17T00:40:47Z</time>
      </trkpt>
      <trkpt lat="43.81968" lon="5.56546">
        <ele>833.63</ele>
        <time>2010-12-17T00:40:52Z</time>
      </trkpt>
      <trkpt lat="43.81968" lon="5.56531">
        <ele>833.93</ele>
        <time>2010-12-17T00:40:56Z</time>
      </trkpt>
      <trkpt lat="43.81968" lon="5.56509">
        <ele>834.54</ele>
        <time>2010-12-17T00:41:03Z</time>
      </trkpt>
      <trkpt lat="43.81967" lon="5.56489">
        <ele>835.76</ele>
        <time>2010-12-17T00:41:08Z</time>
      </trkpt>
      <trkpt lat="43.81967" lon="5.56473">
        <ele>836.37</ele>
        <time>2010-12-17T00:41:13Z</time>
      </trkpt>
      <trkpt lat="43.8197" lon="5.56454">
        <ele>836.98</ele>
        <time>2010-12-17T00:41:19Z</time>
      </trkpt>
      <trkpt lat="43.81975" lon="5.5643">
        <ele>836.98</ele>
        <time>2010-12-17T00:41:26Z</time>
      </trkpt>
      <trkpt lat="43.81983" lon="5.56407">
        <ele>836.68</ele>
        <time>2010-12-17T00:41:33Z</time>
      </trkpt>
      <trkpt lat="43.81997" lon="5.56373">
        <ele>836.07</ele>
        <time>2010-12-17T00:41:44Z</time>
      </trkpt>
      <trkpt lat="43.82011" lon="5.56335">
        <ele>833.63</ele>
        <time>2010-12-17T00:41:57Z</time>
      </trkpt>
      <trkpt lat="43.82021" lon="5.56312">
        <ele>832.41</ele>
        <time>2010-12-17T00:42:04Z</time>
      </trkpt>
      <trkpt lat="43.82028" lon="5.56297">
        <ele>831.8</ele>
        <time>2010-12-17T00:42:09Z</time>
      </trkpt>
      <trkpt lat="43.82038" lon="5.56274">
        <ele>831.49</ele>
        <time>2010-12-17T00:42:17Z</time>
      </trkpt>
      <trkpt lat="43.82055" lon="5.56245">
        <ele>832.41</ele>
        <time>2010-12-17T00:42:28Z</time>
      </trkpt>
      <trkpt lat="43.82067" lon="5.56215">
        <ele>831.8</ele>
        <time>2010-12-17T00:42:38Z</time>
      </trkpt>
      <trkpt lat="43.82082" lon="5.56184">
        <ele>831.8</ele>
        <time>2010-12-17T00:42:49Z</time>
      </trkpt>
      <trkpt lat="43.8209" lon="5.56171">
        <ele>831.49</ele>
        <time>2010-12-17T00:42:54Z</time>
      </trkpt>
      <trkpt lat="43.82099" lon="5.56146">
        <ele>832.1</ele>
        <time>2010-12-17T00:43:02Z</time>
      </trkpt>
      <trkpt lat="43.82106" lon="5.56135">
        <ele>831.8</ele>
        <time>2010-12-17T00:43:06Z</time>
      </trkpt>
      <trkpt lat="43.82104" lon="5.56131">
        <ele>832.1</ele>
        <time>2010-12-17T00:43:07Z</time>
      </trkpt>
      <trkpt lat="43.82104" lon="5.56137">
        <ele>832.71</ele>
        <time>2010-12-17T00:43:09Z</time>
      </trkpt>
      <trkpt lat="43.82104" lon="5.56136">
        <ele>833.02</ele>
        <time>2010-12-17T00:43:09Z</time>
      </trkpt>
      <trkpt lat="43.82106" lon="5.56128">
        <ele>831.19</ele>
        <time>2010-12-17T00:43:12Z</time>
      </trkpt>
      <trkpt lat="43.82105" lon="5.56128">
        <ele>831.8</ele>
        <time>2010-12-17T00:43:12Z</time>
      </trkpt>
      <trkpt lat="43.82106" lon="5.56131">
        <ele>840.03</ele>
        <time>2010-12-17T00:43:13Z</time>
      </trkpt>
      <trkpt lat="43.82113" lon="5.56115">
        <ele>839.72</ele>
        <time>2010-12-17T00:43:18Z</time>
      </trkpt>
      <trkpt lat="43.82122" lon="5.56096">
        <ele>839.11</ele>
        <time>2010-12-17T00:43:25Z</time>
      </trkpt>
      <trkpt lat="43.8213" lon="5.56077">
        <ele>839.11</ele>
        <time>2010-12-17T00:43:31Z</time>
      </trkpt>
      <trkpt lat="43.82143" lon="5.56045">
        <ele>839.72</ele>
        <time>2010-12-17T00:43:42Z</time>
      </trkpt>
      <trkpt lat="43.82151" lon="5.56024">
        <ele>840.33</ele>
        <time>2010-12-17T00:43:49Z</time>
      </trkpt>
      <trkpt lat="43.82156" lon="5.56004">
        <ele>840.33</ele>
        <time>2010-12-17T00:43:55Z</time>
      </trkpt>
      <trkpt lat="43.82159" lon="5.55977">
        <ele>841.25</ele>
        <time>2010-12-17T00:44:03Z</time>
      </trkpt>
      <trkpt lat="43.82155" lon="5.55951">
        <ele>843.08</ele>
        <time>2010-12-17T00:44:10Z</time>
      </trkpt>
      <trkpt lat="43.82146" lon="5.55931">
        <ele>844.3</ele>
        <time>2010-12-17T00:44:17Z</time>
      </trkpt>
      <trkpt lat="43.82133" lon="5.55912">
        <ele>846.12</ele>
        <time>2010-12-17T00:44:25Z</time>
      </trkpt>
      <trkpt lat="43.82121" lon="5.55898">
        <ele>847.04</ele>
        <time>2010-12-17T00:44:31Z</time>
      </trkpt>
      <trkpt lat="43.82109" lon="5.55883">
        <ele>847.95</ele>
        <time>2010-12-17T00:44:37Z</time>
      </trkpt>
      <trkpt lat="43.82105" lon="5.55879">
        <ele>848.26</ele>
        <time>2010-12-17T00:44:39Z</time>
      </trkpt>
      <trkpt lat="43.82094" lon="5.55867">
        <ele>850.09</ele>
        <time>2010-12-17T00:44:45Z</time>
      </trkpt>
      <trkpt lat="43.82079" lon="5.55851">
        <ele>851.31</ele>
        <time>2010-12-17T00:44:53Z</time>
      </trkpt>
      <trkpt lat="43.82067" lon="5.55839">
        <ele>852.22</ele>
        <time>2010-12-17T00:44:58Z</time>
      </trkpt>
      <trkpt lat="43.82059" lon="5.55834">
        <ele>853.14</ele>
        <time>2010-12-17T00:45:02Z</time>
      </trkpt>
      <trkpt lat="43.82049" lon="5.55825">
        <ele>854.35</ele>
        <time>2010-12-17T00:45:07Z</time>
      </trkpt>
      <trkpt lat="43.82039" lon="5.55816">
        <ele>855.57</ele>
        <time>2010-12-17T00:45:12Z</time>
      </trkpt>
      <trkpt lat="43.8203" lon="5.55807">
        <ele>857.1</ele>
        <time>2010-12-17T00:45:16Z</time>
      </trkpt>
      <trkpt lat="43.82016" lon="5.55804">
        <ele>860.15</ele>
        <time>2010-12-17T00:45:21Z</time>
      </trkpt>
      <trkpt lat="43.82003" lon="5.55803">
        <ele>862.28</ele>
        <time>2010-12-17T00:45:27Z</time>
      </trkpt>
      <trkpt lat="43.81991" lon="5.55803">
        <ele>864.72</ele>
        <time>2010-12-17T00:45:31Z</time>
      </trkpt>
      <trkpt lat="43.81977" lon="5.558">
        <ele>865.94</ele>
        <time>2010-12-17T00:45:37Z</time>
      </trkpt>
      <trkpt lat="43.81965" lon="5.55797">
        <ele>866.85</ele>
        <time>2010-12-17T00:45:42Z</time>
      </trkpt>
      <trkpt lat="43.81952" lon="5.55793">
        <ele>868.07</ele>
        <time>2010-12-17T00:45:48Z</time>
      </trkpt>
      <trkpt lat="43.8194" lon="5.5579">
        <ele>870.2</ele>
        <time>2010-12-17T00:45:53Z</time>
      </trkpt>
      <trkpt lat="43.81925" lon="5.55785">
        <ele>871.42</ele>
        <time>2010-12-17T00:45:58Z</time>
      </trkpt>
      <trkpt lat="43.81912" lon="5.55781">
        <ele>872.64</ele>
        <time>2010-12-17T00:46:04Z</time>
      </trkpt>
      <trkpt lat="43.81902" lon="5.55779">
        <ele>873.86</ele>
        <time>2010-12-17T00:46:08Z</time>
      </trkpt>
      <trkpt lat="43.81891" lon="5.55776">
        <ele>875.39</ele>
        <time>2010-12-17T00:46:13Z</time>
      </trkpt>
      <trkpt lat="43.81885" lon="5.55775">
        <ele>876.3</ele>
        <time>2010-12-17T00:46:15Z</time>
      </trkpt>
      <trkpt lat="43.81885" lon="5.55775">
        <ele>876.3</ele>
        <time>2010-12-17T00:46:15Z</time>
      </trkpt>
      <trkpt lat="43.81877" lon="5.55774">
        <ele>876.91</ele>
        <time>2010-12-17T00:46:18Z</time>
      </trkpt>
      <trkpt lat="43.81864" lon="5.55773">
        <ele>878.43</ele>
        <time>2010-12-17T00:46:23Z</time>
      </trkpt>
      <trkpt lat="43.81847" lon="5.55772">
        <ele>879.04</ele>
        <time>2010-12-17T00:46:30Z</time>
      </trkpt>
      <trkpt lat="43.81832" lon="5.5577">
        <ele>879.96</ele>
        <time>2010-12-17T00:46:36Z</time>
      </trkpt>
      <trkpt lat="43.81823" lon="5.55762">
        <ele>881.18</ele>
        <time>2010-12-17T00:46:40Z</time>
      </trkpt>
      <trkpt lat="43.81816" lon="5.55743">
        <ele>882.7</ele>
        <time>2010-12-17T00:46:47Z</time>
      </trkpt>
      <trkpt lat="43.81811" lon="5.55724">
        <ele>883.31</ele>
        <time>2010-12-17T00:46:52Z</time>
      </trkpt>
      <trkpt lat="43.81808" lon="5.55706">
        <ele>883.62</ele>
        <time>2010-12-17T00:46:58Z</time>
      </trkpt>
      <trkpt lat="43.81806" lon="5.55689">
        <ele>885.14</ele>
        <time>2010-12-17T00:47:03Z</time>
      </trkpt>
      <trkpt lat="43.81802" lon="5.55677">
        <ele>887.58</ele>
        <time>2010-12-17T00:47:07Z</time>
      </trkpt>
      <trkpt lat="43.818" lon="5.55661">
        <ele>889.71</ele>
        <time>2010-12-17T00:47:11Z</time>
      </trkpt>
      <trkpt lat="43.81797" lon="5.55647">
        <ele>891.54</ele>
        <time>2010-12-17T00:47:15Z</time>
      </trkpt>
      <trkpt lat="43.81793" lon="5.55633">
        <ele>893.67</ele>
        <time>2010-12-17T00:47:20Z</time>
      </trkpt>
      <trkpt lat="43.81792" lon="5.5562">
        <ele>894.28</ele>
        <time>2010-12-17T00:47:23Z</time>
      </trkpt>
      <trkpt lat="43.81787" lon="5.55598">
        <ele>896.42</ele>
        <time>2010-12-17T00:47:30Z</time>
      </trkpt>
      <trkpt lat="43.81783" lon="5.55587">
        <ele>898.55</ele>
        <time>2010-12-17T00:47:34Z</time>
      </trkpt>
      <trkpt lat="43.81779" lon="5.55571">
        <ele>899.46</ele>
        <time>2010-12-17T00:47:39Z</time>
      </trkpt>
      <trkpt lat="43.81777" lon="5.55555">
        <ele>902.21</ele>
        <time>2010-12-17T00:47:43Z</time>
      </trkpt>
      <trkpt lat="43.81772" lon="5.55536">
        <ele>904.34</ele>
        <time>2010-12-17T00:47:49Z</time>
      </trkpt>
      <trkpt lat="43.81767" lon="5.55518">
        <ele>904.65</ele>
        <time>2010-12-17T00:47:55Z</time>
      </trkpt>
      <trkpt lat="43.8176" lon="5.55504">
        <ele>904.04</ele>
        <time>2010-12-17T00:47:59Z</time>
      </trkpt>
      <trkpt lat="43.81749" lon="5.55482">
        <ele>904.65</ele>
        <time>2010-12-17T00:48:07Z</time>
      </trkpt>
      <trkpt lat="43.81735" lon="5.55469">
        <ele>903.73</ele>
        <time>2010-12-17T00:48:14Z</time>
      </trkpt>
      <trkpt lat="43.81728" lon="5.55466">
        <ele>904.34</ele>
        <time>2010-12-17T00:48:17Z</time>
      </trkpt>
      <trkpt lat="43.81711" lon="5.55467">
        <ele>906.78</ele>
        <time>2010-12-17T00:48:24Z</time>
      </trkpt>
      <trkpt lat="43.81698" lon="5.55476">
        <ele>908</ele>
        <time>2010-12-17T00:48:30Z</time>
      </trkpt>
      <trkpt lat="43.81687" lon="5.55492">
        <ele>909.83</ele>
        <time>2010-12-17T00:48:36Z</time>
      </trkpt>
      <trkpt lat="43.81685" lon="5.55499">
        <ele>909.83</ele>
        <time>2010-12-17T00:48:38Z</time>
      </trkpt>
      <trkpt lat="43.8167" lon="5.55525">
        <ele>911.66</ele>
        <time>2010-12-17T00:48:48Z</time>
      </trkpt>
      <trkpt lat="43.81662" lon="5.55538">
        <ele>912.27</ele>
        <time>2010-12-17T00:48:53Z</time>
      </trkpt>
      <trkpt lat="43.81653" lon="5.55551">
        <ele>912.57</ele>
        <time>2010-12-17T00:48:58Z</time>
      </trkpt>
      <trkpt lat="43.81643" lon="5.55565">
        <ele>913.18</ele>
        <time>2010-12-17T00:49:04Z</time>
      </trkpt>
      <trkpt lat="43.81634" lon="5.55576">
        <ele>913.18</ele>
        <time>2010-12-17T00:49:08Z</time>
      </trkpt>
      <trkpt lat="43.81625" lon="5.55587">
        <ele>914.1</ele>
        <time>2010-12-17T00:49:13Z</time>
      </trkpt>
      <trkpt lat="43.81615" lon="5.55596">
        <ele>915.01</ele>
        <time>2010-12-17T00:49:18Z</time>
      </trkpt>
      <trkpt lat="43.81604" lon="5.55604">
        <ele>916.84</ele>
        <time>2010-12-17T00:49:23Z</time>
      </trkpt>
      <trkpt lat="43.81595" lon="5.5561">
        <ele>917.45</ele>
        <time>2010-12-17T00:49:27Z</time>
      </trkpt>
      <trkpt lat="43.81588" lon="5.55615">
        <ele>918.67</ele>
        <time>2010-12-17T00:49:30Z</time>
      </trkpt>
      <trkpt lat="43.81578" lon="5.5562">
        <ele>920.19</ele>
        <time>2010-12-17T00:49:34Z</time>
      </trkpt>
      <trkpt lat="43.81567" lon="5.55625">
        <ele>922.32</ele>
        <time>2010-12-17T00:49:39Z</time>
      </trkpt>
      <trkpt lat="43.81554" lon="5.55627">
        <ele>923.85</ele>
        <time>2010-12-17T00:49:44Z</time>
      </trkpt>
      <trkpt lat="43.81542" lon="5.5563">
        <ele>924.76</ele>
        <time>2010-12-17T00:49:49Z</time>
      </trkpt>
      <trkpt lat="43.81531" lon="5.55631">
        <ele>926.59</ele>
        <time>2010-12-17T00:49:53Z</time>
      </trkpt>
      <trkpt lat="43.81523" lon="5.55632">
        <ele>927.81</ele>
        <time>2010-12-17T00:49:57Z</time>
      </trkpt>
      <trkpt lat="43.81508" lon="5.55631">
        <ele>930.86</ele>
        <time>2010-12-17T00:50:03Z</time>
      </trkpt>
      <trkpt lat="43.81496" lon="5.55631">
        <ele>933.6</ele>
        <time>2010-12-17T00:50:08Z</time>
      </trkpt>
      <trkpt lat="43.8148" lon="5.55629">
        <ele>936.65</ele>
        <time>2010-12-17T00:50:14Z</time>
      </trkpt>
      <trkpt lat="43.81465" lon="5.55626">
        <ele>940.61</ele>
        <time>2010-12-17T00:50:20Z</time>
      </trkpt>
      <trkpt lat="43.8145" lon="5.55623">
        <ele>943.36</ele>
        <time>2010-12-17T00:50:26Z</time>
      </trkpt>
      <trkpt lat="43.81436" lon="5.55617">
        <ele>939.09</ele>
        <time>2010-12-17T00:50:32Z</time>
      </trkpt>
      <trkpt lat="43.81422" lon="5.5561">
        <ele>936.96</ele>
        <time>2010-12-17T00:50:38Z</time>
      </trkpt>
      <trkpt lat="43.81409" lon="5.55601">
        <ele>936.35</ele>
        <time>2010-12-17T00:50:44Z</time>
      </trkpt>
      <trkpt lat="43.81399" lon="5.55591">
        <ele>936.96</ele>
        <time>2010-12-17T00:50:49Z</time>
      </trkpt>
      <trkpt lat="43.8139" lon="5.55579">
        <ele>937.56</ele>
        <time>2010-12-17T00:50:54Z</time>
      </trkpt>
      <trkpt lat="43.81382" lon="5.5557">
        <ele>938.48</ele>
        <time>2010-12-17T00:50:57Z</time>
      </trkpt>
      <trkpt lat="43.81375" lon="5.55552">
        <ele>940</ele>
        <time>2010-12-17T00:51:04Z</time>
      </trkpt>
      <trkpt lat="43.81373" lon="5.55535">
        <ele>939.7</ele>
        <time>2010-12-17T00:51:09Z</time>
      </trkpt>
      <trkpt lat="43.81372" lon="5.55515">
        <ele>940.61</ele>
        <time>2010-12-17T00:51:14Z</time>
      </trkpt>
      <trkpt lat="43.81372" lon="5.55495">
        <ele>940.92</ele>
        <time>2010-12-17T00:51:20Z</time>
      </trkpt>
      <trkpt lat="43.81375" lon="5.55471">
        <ele>941.22</ele>
        <time>2010-12-17T00:51:27Z</time>
      </trkpt>
      <trkpt lat="43.81377" lon="5.55445">
        <ele>942.14</ele>
        <time>2010-12-17T00:51:35Z</time>
      </trkpt>
      <trkpt lat="43.81382" lon="5.55423">
        <ele>943.05</ele>
        <time>2010-12-17T00:51:42Z</time>
      </trkpt>
      <trkpt lat="43.81392" lon="5.55404">
        <ele>943.66</ele>
        <time>2010-12-17T00:51:48Z</time>
      </trkpt>
      <trkpt lat="43.81403" lon="5.55385">
        <ele>944.58</ele>
        <time>2010-12-17T00:51:55Z</time>
      </trkpt>
      <trkpt lat="43.81418" lon="5.55361">
        <ele>945.79</ele>
        <time>2010-12-17T00:52:05Z</time>
      </trkpt>
      <trkpt lat="43.81431" lon="5.55345">
        <ele>945.79</ele>
        <time>2010-12-17T00:52:11Z</time>
      </trkpt>
      <trkpt lat="43.81446" lon="5.55328">
        <ele>946.71</ele>
        <time>2010-12-17T00:52:19Z</time>
      </trkpt>
      <trkpt lat="43.8147" lon="5.55306">
        <ele>947.62</ele>
        <time>2010-12-17T00:52:31Z</time>
      </trkpt>
      <trkpt lat="43.81485" lon="5.55291">
        <ele>948.84</ele>
        <time>2010-12-17T00:52:38Z</time>
      </trkpt>
      <trkpt lat="43.81499" lon="5.55268">
        <ele>949.76</ele>
        <time>2010-12-17T00:52:47Z</time>
      </trkpt>
      <trkpt lat="43.81501" lon="5.55246">
        <ele>950.67</ele>
        <time>2010-12-17T00:52:53Z</time>
      </trkpt>
      <trkpt lat="43.81498" lon="5.55215">
        <ele>952.2</ele>
        <time>2010-12-17T00:53:02Z</time>
      </trkpt>
      <trkpt lat="43.81493" lon="5.55178">
        <ele>953.11</ele>
        <time>2010-12-17T00:53:13Z</time>
      </trkpt>
      <trkpt lat="43.81491" lon="5.55149">
        <ele>953.11</ele>
        <time>2010-12-17T00:53:21Z</time>
      </trkpt>
      <trkpt lat="43.8149" lon="5.55136">
        <ele>952.8</ele>
        <time>2010-12-17T00:53:25Z</time>
      </trkpt>
      <trkpt lat="43.81498" lon="5.55112">
        <ele>952.2</ele>
        <time>2010-12-17T00:53:33Z</time>
      </trkpt>
      <trkpt lat="43.81509" lon="5.55077">
        <ele>951.59</ele>
        <time>2010-12-17T00:53:44Z</time>
      </trkpt>
      <trkpt lat="43.81518" lon="5.55056">
        <ele>950.98</ele>
        <time>2010-12-17T00:53:51Z</time>
      </trkpt>
      <trkpt lat="43.81524" lon="5.5504">
        <ele>950.67</ele>
        <time>2010-12-17T00:53:56Z</time>
      </trkpt>
      <trkpt lat="43.81526" lon="5.55037">
        <ele>950.67</ele>
        <time>2010-12-17T00:53:57Z</time>
      </trkpt>
      <trkpt lat="43.81528" lon="5.55027">
        <ele>950.98</ele>
        <time>2010-12-17T00:54:00Z</time>
      </trkpt>
      <trkpt lat="43.81528" lon="5.55027">
        <ele>951.28</ele>
        <time>2010-12-17T00:54:00Z</time>
      </trkpt>
      <trkpt lat="43.81535" lon="5.55012">
        <ele>956.77</ele>
        <time>2010-12-17T00:54:06Z</time>
      </trkpt>
      <trkpt lat="43.81544" lon="5.5499">
        <ele>955.85</ele>
        <time>2010-12-17T00:54:13Z</time>
      </trkpt>
      <trkpt lat="43.81552" lon="5.54965">
        <ele>955.24</ele>
        <time>2010-12-17T00:54:21Z</time>
      </trkpt>
      <trkpt lat="43.81562" lon="5.54916">
        <ele>954.63</ele>
        <time>2010-12-17T00:54:36Z</time>
      </trkpt>
      <trkpt lat="43.81566" lon="5.54877">
        <ele>953.41</ele>
        <time>2010-12-17T00:54:47Z</time>
      </trkpt>
      <trkpt lat="43.81567" lon="5.5486">
        <ele>953.11</ele>
        <time>2010-12-17T00:54:52Z</time>
      </trkpt>
      <trkpt lat="43.8157" lon="5.54832">
        <ele>952.5</ele>
        <time>2010-12-17T00:55:00Z</time>
      </trkpt>
      <trkpt lat="43.81574" lon="5.54801">
        <ele>951.89</ele>
        <time>2010-12-17T00:55:09Z</time>
      </trkpt>
      <trkpt lat="43.81587" lon="5.54765">
        <ele>951.28</ele>
        <time>2010-12-17T00:55:21Z</time>
      </trkpt>
      <trkpt lat="43.81593" lon="5.54729">
        <ele>951.28</ele>
        <time>2010-12-17T00:55:31Z</time>
      </trkpt>
      <trkpt lat="43.81592" lon="5.54691">
        <ele>951.28</ele>
        <time>2010-12-17T00:55:43Z</time>
      </trkpt>
      <trkpt lat="43.81586" lon="5.54651">
        <ele>950.98</ele>
        <time>2010-12-17T00:55:54Z</time>
      </trkpt>
      <trkpt lat="43.81583" lon="5.54623">
        <ele>950.98</ele>
        <time>2010-12-17T00:56:02Z</time>
      </trkpt>
      <trkpt lat="43.81583" lon="5.54621">
        <ele>950.98</ele>
        <time>2010-12-17T00:56:03Z</time>
      </trkpt>
      <trkpt lat="43.81583" lon="5.54612">
        <ele>950.37</ele>
        <time>2010-12-17T00:56:05Z</time>
      </trkpt>
      <trkpt lat="43.81588" lon="5.54598">
        <ele>950.67</ele>
        <time>2010-12-17T00:56:10Z</time>
      </trkpt>
      <trkpt lat="43.81597" lon="5.54571">
        <ele>950.06</ele>
        <time>2010-12-17T00:56:19Z</time>
      </trkpt>
      <trkpt lat="43.81612" lon="5.54543">
        <ele>949.45</ele>
        <time>2010-12-17T00:56:29Z</time>
      </trkpt>
      <trkpt lat="43.81641" lon="5.54519">
        <ele>947.93</ele>
        <time>2010-12-17T00:56:42Z</time>
      </trkpt>
      <trkpt lat="43.81675" lon="5.54508">
        <ele>945.79</ele>
        <time>2010-12-17T00:56:56Z</time>
      </trkpt>
      <trkpt lat="43.81695" lon="5.54508">
        <ele>944.88</ele>
        <time>2010-12-17T00:57:04Z</time>
      </trkpt>
      <trkpt lat="43.81723" lon="5.54503">
        <ele>943.05</ele>
        <time>2010-12-17T00:57:15Z</time>
      </trkpt>
      <trkpt lat="43.81739" lon="5.545">
        <ele>942.44</ele>
        <time>2010-12-17T00:57:22Z</time>
      </trkpt>
      <trkpt lat="43.81744" lon="5.54489">
        <ele>942.14</ele>
        <time>2010-12-17T00:57:25Z</time>
      </trkpt>
      <trkpt lat="43.81741" lon="5.54485">
        <ele>941.83</ele>
        <time>2010-12-17T00:57:27Z</time>
      </trkpt>
      <trkpt lat="43.81735" lon="5.54478">
        <ele>941.22</ele>
        <time>2010-12-17T00:57:30Z</time>
      </trkpt>
      <trkpt lat="43.81738" lon="5.54474">
        <ele>940.92</ele>
        <time>2010-12-17T00:57:31Z</time>
      </trkpt>
      <trkpt lat="43.8174" lon="5.54476">
        <ele>940.92</ele>
        <time>2010-12-17T00:57:32Z</time>
      </trkpt>
      <trkpt lat="43.81749" lon="5.54479">
        <ele>941.83</ele>
        <time>2010-12-17T00:57:36Z</time>
      </trkpt>
      <trkpt lat="43.81748" lon="5.54481">
        <ele>942.44</ele>
        <time>2010-12-17T00:57:37Z</time>
      </trkpt>
      <trkpt lat="43.81747" lon="5.54481">
        <ele>942.75</ele>
        <time>2010-12-17T00:57:37Z</time>
      </trkpt>
      <trkpt lat="43.81749" lon="5.54477">
        <ele>947.32</ele>
        <time>2010-12-17T00:57:38Z</time>
      </trkpt>
      <trkpt lat="43.81751" lon="5.54477">
        <ele>947.32</ele>
        <time>2010-12-17T00:57:39Z</time>
      </trkpt>
      <trkpt lat="43.81757" lon="5.54471">
        <ele>947.62</ele>
        <time>2010-12-17T00:57:42Z</time>
      </trkpt>
      <trkpt lat="43.81759" lon="5.54459">
        <ele>948.54</ele>
        <time>2010-12-17T00:57:46Z</time>
      </trkpt>
      <trkpt lat="43.81758" lon="5.54457">
        <ele>948.54</ele>
        <time>2010-12-17T00:57:46Z</time>
      </trkpt>
      <trkpt lat="43.81758" lon="5.5444">
        <ele>950.06</ele>
        <time>2010-12-17T00:57:51Z</time>
      </trkpt>
      <trkpt lat="43.81764" lon="5.54429">
        <ele>952.8</ele>
        <time>2010-12-17T00:57:55Z</time>
      </trkpt>
      <trkpt lat="43.81768" lon="5.54418">
        <ele>954.02</ele>
        <time>2010-12-17T00:57:59Z</time>
      </trkpt>
      <trkpt lat="43.81773" lon="5.54408">
        <ele>954.94</ele>
        <time>2010-12-17T00:58:02Z</time>
      </trkpt>
      <trkpt lat="43.81777" lon="5.54398">
        <ele>955.24</ele>
        <time>2010-12-17T00:58:06Z</time>
      </trkpt>
      <trkpt lat="43.81781" lon="5.54387">
        <ele>956.16</ele>
        <time>2010-12-17T00:58:09Z</time>
      </trkpt>
      <trkpt lat="43.81784" lon="5.54371">
        <ele>956.77</ele>
        <time>2010-12-17T00:58:14Z</time>
      </trkpt>
      <trkpt lat="43.81785" lon="5.5436">
        <ele>957.38</ele>
        <time>2010-12-17T00:58:17Z</time>
      </trkpt>
      <trkpt lat="43.81784" lon="5.54348">
        <ele>958.29</ele>
        <time>2010-12-17T00:58:21Z</time>
      </trkpt>
      <trkpt lat="43.81785" lon="5.54329">
        <ele>958.6</ele>
        <time>2010-12-17T00:58:26Z</time>
      </trkpt>
      <trkpt lat="43.81784" lon="5.54314">
        <ele>960.73</ele>
        <time>2010-12-17T00:58:30Z</time>
      </trkpt>
      <trkpt lat="43.8178" lon="5.54303">
        <ele>962.56</ele>
        <time>2010-12-17T00:58:34Z</time>
      </trkpt>
      <trkpt lat="43.81778" lon="5.54298">
        <ele>964.39</ele>
        <time>2010-12-17T00:58:36Z</time>
      </trkpt>
      <trkpt lat="43.81779" lon="5.5429">
        <ele>964.69</ele>
        <time>2010-12-17T00:58:38Z</time>
      </trkpt>
      <trkpt lat="43.8178" lon="5.54271">
        <ele>964.69</ele>
        <time>2010-12-17T00:58:43Z</time>
      </trkpt>
      <trkpt lat="43.8178" lon="5.54269">
        <ele>964.69</ele>
        <time>2010-12-17T00:58:44Z</time>
      </trkpt>
      <trkpt lat="43.81778" lon="5.54258">
        <ele>966.22</ele>
        <time>2010-12-17T00:58:47Z</time>
      </trkpt>
      <trkpt lat="43.81772" lon="5.54245">
        <ele>968.35</ele>
        <time>2010-12-17T00:58:52Z</time>
      </trkpt>
      <trkpt lat="43.8177" lon="5.54235">
        <ele>969.57</ele>
        <time>2010-12-17T00:58:55Z</time>
      </trkpt>
      <trkpt lat="43.8177" lon="5.5423">
        <ele>970.18</ele>
        <time>2010-12-17T00:58:56Z</time>
      </trkpt>
      <trkpt lat="43.8177" lon="5.54221">
        <ele>970.48</ele>
        <time>2010-12-17T00:58:59Z</time>
      </trkpt>
      <trkpt lat="43.81769" lon="5.54216">
        <ele>970.79</ele>
        <time>2010-12-17T00:59:00Z</time>
      </trkpt>
      <trkpt lat="43.81767" lon="5.54201">
        <ele>972.92</ele>
        <time>2010-12-17T00:59:05Z</time>
      </trkpt>
      <trkpt lat="43.81768" lon="5.54189">
        <ele>973.53</ele>
        <time>2010-12-17T00:59:08Z</time>
      </trkpt>
      <trkpt lat="43.81771" lon="5.54178">
        <ele>974.45</ele>
        <time>2010-12-17T00:59:12Z</time>
      </trkpt>
      <trkpt lat="43.81776" lon="5.5417">
        <ele>975.06</ele>
        <time>2010-12-17T00:59:15Z</time>
      </trkpt>
      <trkpt lat="43.81781" lon="5.5416">
        <ele>976.58</ele>
        <time>2010-12-17T00:59:18Z</time>
      </trkpt>
      <trkpt lat="43.81784" lon="5.54152">
        <ele>977.49</ele>
        <time>2010-12-17T00:59:21Z</time>
      </trkpt>
      <trkpt lat="43.81792" lon="5.54144">
        <ele>979.02</ele>
        <time>2010-12-17T00:59:25Z</time>
      </trkpt>
      <trkpt lat="43.81794" lon="5.54136">
        <ele>979.93</ele>
        <time>2010-12-17T00:59:27Z</time>
      </trkpt>
      <trkpt lat="43.81794" lon="5.54132">
        <ele>980.24</ele>
        <time>2010-12-17T00:59:28Z</time>
      </trkpt>
      <trkpt lat="43.81784" lon="5.54123">
        <ele>983.89</ele>
        <time>2010-12-17T00:59:33Z</time>
      </trkpt>
      <trkpt lat="43.81776" lon="5.54117">
        <ele>983.59</ele>
        <time>2010-12-17T00:59:37Z</time>
      </trkpt>
      <trkpt lat="43.81771" lon="5.54113">
        <ele>983.59</ele>
        <time>2010-12-17T00:59:39Z</time>
      </trkpt>
      <trkpt lat="43.81758" lon="5.54099">
        <ele>981.15</ele>
        <time>2010-12-17T00:59:46Z</time>
      </trkpt>
      <trkpt lat="43.81747" lon="5.54093">
        <ele>978.71</ele>
        <time>2010-12-17T00:59:50Z</time>
      </trkpt>
      <trkpt lat="43.81726" lon="5.54088">
        <ele>974.75</ele>
        <time>2010-12-17T00:59:59Z</time>
      </trkpt>
      <trkpt lat="43.81717" lon="5.54094">
        <ele>971.7</ele>
        <time>2010-12-17T01:00:03Z</time>
      </trkpt>
      <trkpt lat="43.81713" lon="5.54098">
        <ele>970.79</ele>
        <time>2010-12-17T01:00:05Z</time>
      </trkpt>
      <trkpt lat="43.81694" lon="5.54107">
        <ele>965</ele>
        <time>2010-12-17T01:00:13Z</time>
      </trkpt>
      <trkpt lat="43.81679" lon="5.54101">
        <ele>959.51</ele>
        <time>2010-12-17T01:00:19Z</time>
      </trkpt>
      <trkpt lat="43.81676" lon="5.54098">
        <ele>958.6</ele>
        <time>2010-12-17T01:00:21Z</time>
      </trkpt>
      <trkpt lat="43.8167" lon="5.54084">
        <ele>955.85</ele>
        <time>2010-12-17T01:00:25Z</time>
      </trkpt>
      <trkpt lat="43.81657" lon="5.54068">
        <ele>952.5</ele>
        <time>2010-12-17T01:00:32Z</time>
      </trkpt>
      <trkpt lat="43.8164" lon="5.54054">
        <ele>948.84</ele>
        <time>2010-12-17T01:00:41Z</time>
      </trkpt>
      <trkpt lat="43.81632" lon="5.54057">
        <ele>945.18</ele>
        <time>2010-12-17T01:00:44Z</time>
      </trkpt>
      <trkpt lat="43.81632" lon="5.54073">
        <ele>943.05</ele>
        <time>2010-12-17T01:00:48Z</time>
      </trkpt>
      <trkpt lat="43.81624" lon="5.54077">
        <ele>940</ele>
        <time>2010-12-17T01:00:51Z</time>
      </trkpt>
      <trkpt lat="43.8162" lon="5.54072">
        <ele>938.17</ele>
        <time>2010-12-17T01:00:54Z</time>
      </trkpt>
      <trkpt lat="43.81598" lon="5.54038">
        <ele>931.16</ele>
        <time>2010-12-17T01:01:07Z</time>
      </trkpt>
      <trkpt lat="43.81584" lon="5.54021">
        <ele>925.98</ele>
        <time>2010-12-17T01:01:15Z</time>
      </trkpt>
      <trkpt lat="43.81571" lon="5.54007">
        <ele>919.89</ele>
        <time>2010-12-17T01:01:21Z</time>
      </trkpt>
      <trkpt lat="43.81564" lon="5.53993">
        <ele>916.84</ele>
        <time>2010-12-17T01:01:26Z</time>
      </trkpt>
      <trkpt lat="43.81558" lon="5.53985">
        <ele>914.1</ele>
        <time>2010-12-17T01:01:29Z</time>
      </trkpt>
      <trkpt lat="43.81546" lon="5.53975">
        <ele>910.74</ele>
        <time>2010-12-17T01:01:35Z</time>
      </trkpt>
      <trkpt lat="43.81529" lon="5.5396">
        <ele>906.17</ele>
        <time>2010-12-17T01:01:43Z</time>
      </trkpt>
      <trkpt lat="43.81525" lon="5.53957">
        <ele>905.26</ele>
        <time>2010-12-17T01:01:45Z</time>
      </trkpt>
      <trkpt lat="43.81515" lon="5.53942">
        <ele>900.99</ele>
        <time>2010-12-17T01:01:51Z</time>
      </trkpt>
      <trkpt lat="43.81508" lon="5.53934">
        <ele>897.33</ele>
        <time>2010-12-17T01:01:54Z</time>
      </trkpt>
      <trkpt lat="43.81506" lon="5.53924">
        <ele>896.42</ele>
        <time>2010-12-17T01:01:57Z</time>
      </trkpt>
      <trkpt lat="43.81505" lon="5.53909">
        <ele>896.11</ele>
        <time>2010-12-17T01:02:02Z</time>
      </trkpt>
      <trkpt lat="43.81501" lon="5.53895">
        <ele>894.28</ele>
        <time>2010-12-17T01:02:06Z</time>
      </trkpt>
      <trkpt lat="43.81503" lon="5.53876">
        <ele>890.32</ele>
        <time>2010-12-17T01:02:12Z</time>
      </trkpt>
      <trkpt lat="43.81502" lon="5.53863">
        <ele>889.41</ele>
        <time>2010-12-17T01:02:15Z</time>
      </trkpt>
      <trkpt lat="43.81501" lon="5.53841">
        <ele>890.63</ele>
        <time>2010-12-17T01:02:22Z</time>
      </trkpt>
      <trkpt lat="43.81497" lon="5.53825">
        <ele>889.71</ele>
        <time>2010-12-17T01:02:27Z</time>
      </trkpt>
      <trkpt lat="43.81489" lon="5.53785">
        <ele>889.71</ele>
        <time>2010-12-17T01:02:39Z</time>
      </trkpt>
      <trkpt lat="43.81479" lon="5.53748">
        <ele>887.58</ele>
        <time>2010-12-17T01:02:50Z</time>
      </trkpt>
      <trkpt lat="43.81477" lon="5.5374">
        <ele>886.97</ele>
        <time>2010-12-17T01:02:52Z</time>
      </trkpt>
      <trkpt lat="43.81469" lon="5.53714">
        <ele>884.53</ele>
        <time>2010-12-17T01:03:01Z</time>
      </trkpt>
      <trkpt lat="43.81463" lon="5.53688">
        <ele>881.48</ele>
        <time>2010-12-17T01:03:08Z</time>
      </trkpt>
      <trkpt lat="43.81462" lon="5.53673">
        <ele>878.74</ele>
        <time>2010-12-17T01:03:13Z</time>
      </trkpt>
      <trkpt lat="43.81456" lon="5.53649">
        <ele>876.91</ele>
        <time>2010-12-17T01:03:20Z</time>
      </trkpt>
      <trkpt lat="43.81445" lon="5.53609">
        <ele>869.9</ele>
        <time>2010-12-17T01:03:33Z</time>
      </trkpt>
      <trkpt lat="43.81432" lon="5.53569">
        <ele>858.62</ele>
        <time>2010-12-17T01:03:45Z</time>
      </trkpt>
      <trkpt lat="43.81412" lon="5.53519">
        <ele>847.04</ele>
        <time>2010-12-17T01:04:02Z</time>
      </trkpt>
      <trkpt lat="43.81404" lon="5.53479">
        <ele>840.33</ele>
        <time>2010-12-17T01:04:14Z</time>
      </trkpt>
      <trkpt lat="43.814" lon="5.53461">
        <ele>835.76</ele>
        <time>2010-12-17T01:04:19Z</time>
      </trkpt>
      <trkpt lat="43.81392" lon="5.53422">
        <ele>824.48</ele>
        <time>2010-12-17T01:04:31Z</time>
      </trkpt>
      <trkpt lat="43.81388" lon="5.53405">
        <ele>819.91</ele>
        <time>2010-12-17T01:04:36Z</time>
      </trkpt>
      <trkpt lat="43.81381" lon="5.53373">
        <ele>810.77</ele>
        <time>2010-12-17T01:04:46Z</time>
      </trkpt>
      <trkpt lat="43.81377" lon="5.53345">
        <ele>804.37</ele>
        <time>2010-12-17T01:04:54Z</time>
      </trkpt>
      <trkpt lat="43.81384" lon="5.53315">
        <ele>794.92</ele>
        <time>2010-12-17T01:05:03Z</time>
      </trkpt>
      <trkpt lat="43.81388" lon="5.53297">
        <ele>789.74</ele>
        <time>2010-12-17T01:05:09Z</time>
      </trkpt>
      <trkpt lat="43.81389" lon="5.53288">
        <ele>786.38</ele>
        <time>2010-12-17T01:05:11Z</time>
      </trkpt>
      <trkpt lat="43.81389" lon="5.53266">
        <ele>781.81</ele>
        <time>2010-12-17T01:05:18Z</time>
      </trkpt>
      <trkpt lat="43.81383" lon="5.53242">
        <ele>778.76</ele>
        <time>2010-12-17T01:05:25Z</time>
      </trkpt>
      <trkpt lat="43.81378" lon="5.53232">
        <ele>777.54</ele>
        <time>2010-12-17T01:05:28Z</time>
      </trkpt>
      <trkpt lat="43.8137" lon="5.53209">
        <ele>774.19</ele>
        <time>2010-12-17T01:05:36Z</time>
      </trkpt>
      <trkpt lat="43.81365" lon="5.53197">
        <ele>771.75</ele>
        <time>2010-12-17T01:05:40Z</time>
      </trkpt>
      <trkpt lat="43.81367" lon="5.53165">
        <ele>764.74</ele>
        <time>2010-12-17T01:05:49Z</time>
      </trkpt>
      <trkpt lat="43.81363" lon="5.53149">
        <ele>762</ele>
        <time>2010-12-17T01:05:54Z</time>
      </trkpt>
      <trkpt lat="43.81353" lon="5.53134">
        <ele>758.65</ele>
        <time>2010-12-17T01:06:00Z</time>
      </trkpt>
      <trkpt lat="43.81349" lon="5.53119">
        <ele>756.82</ele>
        <time>2010-12-17T01:06:05Z</time>
      </trkpt>
      <trkpt lat="43.81345" lon="5.53076">
        <ele>750.72</ele>
        <time>2010-12-17T01:06:17Z</time>
      </trkpt>
      <trkpt lat="43.81332" lon="5.53027">
        <ele>743.41</ele>
        <time>2010-12-17T01:06:32Z</time>
      </trkpt>
      <trkpt lat="43.81328" lon="5.53021">
        <ele>741.58</ele>
        <time>2010-12-17T01:06:35Z</time>
      </trkpt>
      <trkpt lat="43.81314" lon="5.53001">
        <ele>737.92</ele>
        <time>2010-12-17T01:06:43Z</time>
      </trkpt>
      <trkpt lat="43.81314" lon="5.53001">
        <ele>737.62</ele>
        <time>2010-12-17T01:06:43Z</time>
      </trkpt>
      <trkpt lat="43.81304" lon="5.53017">
        <ele>737.92</ele>
        <time>2010-12-17T01:06:49Z</time>
      </trkpt>
      <trkpt lat="43.81292" lon="5.53062">
        <ele>734.26</ele>
        <time>2010-12-17T01:07:02Z</time>
      </trkpt>
      <trkpt lat="43.81284" lon="5.53089">
        <ele>732.43</ele>
        <time>2010-12-17T01:07:11Z</time>
      </trkpt>
      <trkpt lat="43.8126" lon="5.53127">
        <ele>728.78</ele>
        <time>2010-12-17T01:07:25Z</time>
      </trkpt>
      <trkpt lat="43.81239" lon="5.53157">
        <ele>724.81</ele>
        <time>2010-12-17T01:07:38Z</time>
      </trkpt>
      <trkpt lat="43.8122" lon="5.53185">
        <ele>718.41</ele>
        <time>2010-12-17T01:07:49Z</time>
      </trkpt>
      <trkpt lat="43.81211" lon="5.5321">
        <ele>714.15</ele>
        <time>2010-12-17T01:07:57Z</time>
      </trkpt>
      <trkpt lat="43.81188" lon="5.53234">
        <ele>708.96</ele>
        <time>2010-12-17T01:08:08Z</time>
      </trkpt>
      <trkpt lat="43.81157" lon="5.53268">
        <ele>702.56</ele>
        <time>2010-12-17T01:08:24Z</time>
      </trkpt>
      <trkpt lat="43.81131" lon="5.53274">
        <ele>697.69</ele>
        <time>2010-12-17T01:08:35Z</time>
      </trkpt>
      <trkpt lat="43.81093" lon="5.5327">
        <ele>692.51</ele>
        <time>2010-12-17T01:08:50Z</time>
      </trkpt>
      <trkpt lat="43.81074" lon="5.53271">
        <ele>689.76</ele>
        <time>2010-12-17T01:08:58Z</time>
      </trkpt>
      <trkpt lat="43.81052" lon="5.53284">
        <ele>687.02</ele>
        <time>2010-12-17T01:09:07Z</time>
      </trkpt>
      <trkpt lat="43.81043" lon="5.53293">
        <ele>685.8</ele>
        <time>2010-12-17T01:09:11Z</time>
      </trkpt>
      <trkpt lat="43.8103" lon="5.53309">
        <ele>684.89</ele>
        <time>2010-12-17T01:09:19Z</time>
      </trkpt>
      <trkpt lat="43.8102" lon="5.53334">
        <ele>682.75</ele>
        <time>2010-12-17T01:09:27Z</time>
      </trkpt>
      <trkpt lat="43.81018" lon="5.53348">
        <ele>680.62</ele>
        <time>2010-12-17T01:09:31Z</time>
      </trkpt>
      <trkpt lat="43.81021" lon="5.53381">
        <ele>676.05</ele>
        <time>2010-12-17T01:09:41Z</time>
      </trkpt>
      <trkpt lat="43.81016" lon="5.53403">
        <ele>673</ele>
        <time>2010-12-17T01:09:47Z</time>
      </trkpt>
      <trkpt lat="43.81" lon="5.53422">
        <ele>670.86</ele>
        <time>2010-12-17T01:09:56Z</time>
      </trkpt>
      <trkpt lat="43.80995" lon="5.53422">
        <ele>670.26</ele>
        <time>2010-12-17T01:09:58Z</time>
      </trkpt>
      <trkpt lat="43.80998" lon="5.53416">
        <ele>669.65</ele>
        <time>2010-12-17T01:10:00Z</time>
      </trkpt>
      <trkpt lat="43.81002" lon="5.53416">
        <ele>669.04</ele>
        <time>2010-12-17T01:10:02Z</time>
      </trkpt>
      <trkpt lat="43.80999" lon="5.53418">
        <ele>669.34</ele>
        <time>2010-12-17T01:10:03Z</time>
      </trkpt>
      <trkpt lat="43.80999" lon="5.53416">
        <ele>669.95</ele>
        <time>2010-12-17T01:10:04Z</time>
      </trkpt>
      <trkpt lat="43.81007" lon="5.53415">
        <ele>670.56</ele>
        <time>2010-12-17T01:10:07Z</time>
      </trkpt>
      <trkpt lat="43.81017" lon="5.53404">
        <ele>673.91</ele>
        <time>2010-12-17T01:10:12Z</time>
      </trkpt>
      <trkpt lat="43.81022" lon="5.53398">
        <ele>675.74</ele>
        <time>2010-12-17T01:10:15Z</time>
      </trkpt>
      <trkpt lat="43.81022" lon="5.53398">
        <ele>676.35</ele>
        <time>2010-12-17T01:10:15Z</time>
      </trkpt>
      <trkpt lat="43.8102" lon="5.53399">
        <ele>677.57</ele>
        <time>2010-12-17T01:10:16Z</time>
      </trkpt>
      <trkpt lat="43.81015" lon="5.53408">
        <ele>676.35</ele>
        <time>2010-12-17T01:10:19Z</time>
      </trkpt>
      <trkpt lat="43.80997" lon="5.53425">
        <ele>674.52</ele>
        <time>2010-12-17T01:10:28Z</time>
      </trkpt>
      <trkpt lat="43.80985" lon="5.5342">
        <ele>674.22</ele>
        <time>2010-12-17T01:10:33Z</time>
      </trkpt>
      <trkpt lat="43.8098" lon="5.53412">
        <ele>673.61</ele>
        <time>2010-12-17T01:10:36Z</time>
      </trkpt>
      <trkpt lat="43.80979" lon="5.53412">
        <ele>673.61</ele>
        <time>2010-12-17T01:10:36Z</time>
      </trkpt>
      <trkpt lat="43.80973" lon="5.5341">
        <ele>673.61</ele>
        <time>2010-12-17T01:10:39Z</time>
      </trkpt>
      <trkpt lat="43.80957" lon="5.53403">
        <ele>671.47</ele>
        <time>2010-12-17T01:10:45Z</time>
      </trkpt>
      <trkpt lat="43.80926" lon="5.53396">
        <ele>664.77</ele>
        <time>2010-12-17T01:10:58Z</time>
      </trkpt>
      <trkpt lat="43.80897" lon="5.53393">
        <ele>658.37</ele>
        <time>2010-12-17T01:11:10Z</time>
      </trkpt>
      <trkpt lat="43.8087" lon="5.53392">
        <ele>651.97</ele>
        <time>2010-12-17T01:11:21Z</time>
      </trkpt>
      <trkpt lat="43.80865" lon="5.53383">
        <ele>650.14</ele>
        <time>2010-12-17T01:11:24Z</time>
      </trkpt>
      <trkpt lat="43.80861" lon="5.53374">
        <ele>648.61</ele>
        <time>2010-12-17T01:11:27Z</time>
      </trkpt>
      <trkpt lat="43.80841" lon="5.53355">
        <ele>645.57</ele>
        <time>2010-12-17T01:11:37Z</time>
      </trkpt>
      <trkpt lat="43.80823" lon="5.53331">
        <ele>641.3</ele>
        <time>2010-12-17T01:11:47Z</time>
      </trkpt>
      <trkpt lat="43.80829" lon="5.53316">
        <ele>640.38</ele>
        <time>2010-12-17T01:11:51Z</time>
      </trkpt>
      <trkpt lat="43.80839" lon="5.53305">
        <ele>640.38</ele>
        <time>2010-12-17T01:11:57Z</time>
      </trkpt>
      <trkpt lat="43.80847" lon="5.53288">
        <ele>641.6</ele>
        <time>2010-12-17T01:12:02Z</time>
      </trkpt>
      <trkpt lat="43.8085" lon="5.53268">
        <ele>642.82</ele>
        <time>2010-12-17T01:12:08Z</time>
      </trkpt>
      <trkpt lat="43.80853" lon="5.53235">
        <ele>642.82</ele>
        <time>2010-12-17T01:12:18Z</time>
      </trkpt>
      <trkpt lat="43.80857" lon="5.53203">
        <ele>641.3</ele>
        <time>2010-12-17T01:12:27Z</time>
      </trkpt>
      <trkpt lat="43.8086" lon="5.5319">
        <ele>640.69</ele>
        <time>2010-12-17T01:12:31Z</time>
      </trkpt>
      <trkpt lat="43.80876" lon="5.53158">
        <ele>639.47</ele>
        <time>2010-12-17T01:12:43Z</time>
      </trkpt>
      <trkpt lat="43.80883" lon="5.53147">
        <ele>639.47</ele>
        <time>2010-12-17T01:12:47Z</time>
      </trkpt>
      <trkpt lat="43.80894" lon="5.53115">
        <ele>640.38</ele>
        <time>2010-12-17T01:12:57Z</time>
      </trkpt>
      <trkpt lat="43.80887" lon="5.53105">
        <ele>640.69</ele>
        <time>2010-12-17T01:13:01Z</time>
      </trkpt>
      <trkpt lat="43.8087" lon="5.53091">
        <ele>639.47</ele>
        <time>2010-12-17T01:13:09Z</time>
      </trkpt>
      <trkpt lat="43.80842" lon="5.53061">
        <ele>637.03</ele>
        <time>2010-12-17T01:13:23Z</time>
      </trkpt>
      <trkpt lat="43.80828" lon="5.53038">
        <ele>636.42</ele>
        <time>2010-12-17T01:13:32Z</time>
      </trkpt>
      <trkpt lat="43.80819" lon="5.52994">
        <ele>633.37</ele>
        <time>2010-12-17T01:13:45Z</time>
      </trkpt>
      <trkpt lat="43.80814" lon="5.52971">
        <ele>630.94</ele>
        <time>2010-12-17T01:13:52Z</time>
      </trkpt>
      <trkpt lat="43.80813" lon="5.52947">
        <ele>627.58</ele>
        <time>2010-12-17T01:13:59Z</time>
      </trkpt>
      <trkpt lat="43.8081" lon="5.52935">
        <ele>626.36</ele>
        <time>2010-12-17T01:14:03Z</time>
      </trkpt>
      <trkpt lat="43.80807" lon="5.52932">
        <ele>626.36</ele>
        <time>2010-12-17T01:14:04Z</time>
      </trkpt>
      <trkpt lat="43.80787" lon="5.52919">
        <ele>627.58</ele>
        <time>2010-12-17T01:14:13Z</time>
      </trkpt>
      <trkpt lat="43.80771" lon="5.52901">
        <ele>628.8</ele>
        <time>2010-12-17T01:14:21Z</time>
      </trkpt>
      <trkpt lat="43.80758" lon="5.52875">
        <ele>631.55</ele>
        <time>2010-12-17T01:14:30Z</time>
      </trkpt>
      <trkpt lat="43.80746" lon="5.52866">
        <ele>632.76</ele>
        <time>2010-12-17T01:14:36Z</time>
      </trkpt>
      <trkpt lat="43.80729" lon="5.5286">
        <ele>634.29</ele>
        <time>2010-12-17T01:14:43Z</time>
      </trkpt>
      <trkpt lat="43.80715" lon="5.52857">
        <ele>635.81</ele>
        <time>2010-12-17T01:14:48Z</time>
      </trkpt>
      <trkpt lat="43.80702" lon="5.52846">
        <ele>635.2</ele>
        <time>2010-12-17T01:14:55Z</time>
      </trkpt>
      <trkpt lat="43.80685" lon="5.52845">
        <ele>635.81</ele>
        <time>2010-12-17T01:15:01Z</time>
      </trkpt>
      <trkpt lat="43.80654" lon="5.5285">
        <ele>636.42</ele>
        <time>2010-12-17T01:15:14Z</time>
      </trkpt>
      <trkpt lat="43.80628" lon="5.52858">
        <ele>635.51</ele>
        <time>2010-12-17T01:15:24Z</time>
      </trkpt>
      <trkpt lat="43.80611" lon="5.52868">
        <ele>635.81</ele>
        <time>2010-12-17T01:15:32Z</time>
      </trkpt>
      <trkpt lat="43.80595" lon="5.52877">
        <ele>636.12</ele>
        <time>2010-12-17T01:15:39Z</time>
      </trkpt>
      <trkpt lat="43.80578" lon="5.52891">
        <ele>635.2</ele>
        <time>2010-12-17T01:15:47Z</time>
      </trkpt>
      <trkpt lat="43.80575" lon="5.52894">
        <ele>634.9</ele>
        <time>2010-12-17T01:15:48Z</time>
      </trkpt>
      <trkpt lat="43.80555" lon="5.52916">
        <ele>633.07</ele>
        <time>2010-12-17T01:15:58Z</time>
      </trkpt>
      <trkpt lat="43.8053" lon="5.52926">
        <ele>630.63</ele>
        <time>2010-12-17T01:16:09Z</time>
      </trkpt>
      <trkpt lat="43.80523" lon="5.52929">
        <ele>630.02</ele>
        <time>2010-12-17T01:16:12Z</time>
      </trkpt>
      <trkpt lat="43.80491" lon="5.52947">
        <ele>624.23</ele>
        <time>2010-12-17T01:16:26Z</time>
      </trkpt>
      <trkpt lat="43.80471" lon="5.52944">
        <ele>621.18</ele>
        <time>2010-12-17T01:16:34Z</time>
      </trkpt>
      <trkpt lat="43.80447" lon="5.52936">
        <ele>618.13</ele>
        <time>2010-12-17T01:16:43Z</time>
      </trkpt>
      <trkpt lat="43.80411" lon="5.52911">
        <ele>612.34</ele>
        <time>2010-12-17T01:17:00Z</time>
      </trkpt>
      <trkpt lat="43.80376" lon="5.52894">
        <ele>605.94</ele>
        <time>2010-12-17T01:17:14Z</time>
      </trkpt>
      <trkpt lat="43.80354" lon="5.52886">
        <ele>601.07</ele>
        <time>2010-12-17T01:17:23Z</time>
      </trkpt>
      <trkpt lat="43.80336" lon="5.52866">
        <ele>594.66</ele>
        <time>2010-12-17T01:17:33Z</time>
      </trkpt>
      <trkpt lat="43.80328" lon="5.52863">
        <ele>592.84</ele>
        <time>2010-12-17T01:17:36Z</time>
      </trkpt>
      <trkpt lat="43.80328" lon="5.52866">
        <ele>592.53</ele>
        <time>2010-12-17T01:17:37Z</time>
      </trkpt>
      <trkpt lat="43.80328" lon="5.52867">
        <ele>592.53</ele>
        <time>2010-12-17T01:17:37Z</time>
      </trkpt>
      <trkpt lat="43.8033" lon="5.52877">
        <ele>598.02</ele>
        <time>2010-12-17T01:17:40Z</time>
      </trkpt>
      <trkpt lat="43.8033" lon="5.52882">
        <ele>598.02</ele>
        <time>2010-12-17T01:17:42Z</time>
      </trkpt>
      <trkpt lat="43.80328" lon="5.52901">
        <ele>597.71</ele>
        <time>2010-12-17T01:17:47Z</time>
      </trkpt>
      <trkpt lat="43.80328" lon="5.52916">
        <ele>596.8</ele>
        <time>2010-12-17T01:17:51Z</time>
      </trkpt>
      <trkpt lat="43.80336" lon="5.52952">
        <ele>595.27</ele>
        <time>2010-12-17T01:18:02Z</time>
      </trkpt>
      <trkpt lat="43.80341" lon="5.52982">
        <ele>594.97</ele>
        <time>2010-12-17T01:18:12Z</time>
      </trkpt>
      <trkpt lat="43.80347" lon="5.5301">
        <ele>594.66</ele>
        <time>2010-12-17T01:18:20Z</time>
      </trkpt>
      <trkpt lat="43.80339" lon="5.53024">
        <ele>592.53</ele>
        <time>2010-12-17T01:18:25Z</time>
      </trkpt>
      <trkpt lat="43.80336" lon="5.53029">
        <ele>592.53</ele>
        <time>2010-12-17T01:18:27Z</time>
      </trkpt>
      <trkpt lat="43.80328" lon="5.53061">
        <ele>588.87</ele>
        <time>2010-12-17T01:18:37Z</time>
      </trkpt>
      <trkpt lat="43.80315" lon="5.53081">
        <ele>586.13</ele>
        <time>2010-12-17T01:18:45Z</time>
      </trkpt>
      <trkpt lat="43.80308" lon="5.53099">
        <ele>584.61</ele>
        <time>2010-12-17T01:18:50Z</time>
      </trkpt>
      <trkpt lat="43.80315" lon="5.53112">
        <ele>580.03</ele>
        <time>2010-12-17T01:18:55Z</time>
      </trkpt>
      <trkpt lat="43.80311" lon="5.5315">
        <ele>573.33</ele>
        <time>2010-12-17T01:19:06Z</time>
      </trkpt>
      <trkpt lat="43.80301" lon="5.5316">
        <ele>569.98</ele>
        <time>2010-12-17T01:19:11Z</time>
      </trkpt>
      <trkpt lat="43.80285" lon="5.53165">
        <ele>564.49</ele>
        <time>2010-12-17T01:19:18Z</time>
      </trkpt>
      <trkpt lat="43.80269" lon="5.53159">
        <ele>562.36</ele>
        <time>2010-12-17T01:19:24Z</time>
      </trkpt>
      <trkpt lat="43.8026" lon="5.53152">
        <ele>560.53</ele>
        <time>2010-12-17T01:19:28Z</time>
      </trkpt>
      <trkpt lat="43.80246" lon="5.53152">
        <ele>556.87</ele>
        <time>2010-12-17T01:19:34Z</time>
      </trkpt>
      <trkpt lat="43.80237" lon="5.53167">
        <ele>555.04</ele>
        <time>2010-12-17T01:19:40Z</time>
      </trkpt>
      <trkpt lat="43.80237" lon="5.53176">
        <ele>554.74</ele>
        <time>2010-12-17T01:19:42Z</time>
      </trkpt>
      <trkpt lat="43.80241" lon="5.53203">
        <ele>551.99</ele>
        <time>2010-12-17T01:19:50Z</time>
      </trkpt>
      <trkpt lat="43.80239" lon="5.53222">
        <ele>550.47</ele>
        <time>2010-12-17T01:19:56Z</time>
      </trkpt>
      <trkpt lat="43.80225" lon="5.53244">
        <ele>547.73</ele>
        <time>2010-12-17T01:20:04Z</time>
      </trkpt>
      <trkpt lat="43.80209" lon="5.53257">
        <ele>546.2</ele>
        <time>2010-12-17T01:20:12Z</time>
      </trkpt>
      <trkpt lat="43.80196" lon="5.5327">
        <ele>544.37</ele>
        <time>2010-12-17T01:20:18Z</time>
      </trkpt>
      <trkpt lat="43.80178" lon="5.53299">
        <ele>541.93</ele>
        <time>2010-12-17T01:20:29Z</time>
      </trkpt>
      <trkpt lat="43.8017" lon="5.53313">
        <ele>539.8</ele>
        <time>2010-12-17T01:20:35Z</time>
      </trkpt>
      <trkpt lat="43.80164" lon="5.53325">
        <ele>538.58</ele>
        <time>2010-12-17T01:20:39Z</time>
      </trkpt>
      <trkpt lat="43.80153" lon="5.53351">
        <ele>535.53</ele>
        <time>2010-12-17T01:20:47Z</time>
      </trkpt>
      <trkpt lat="43.80139" lon="5.53375">
        <ele>531.88</ele>
        <time>2010-12-17T01:20:56Z</time>
      </trkpt>
      <trkpt lat="43.80138" lon="5.53378">
        <ele>531.27</ele>
        <time>2010-12-17T01:20:57Z</time>
      </trkpt>
      <trkpt lat="43.80124" lon="5.53384">
        <ele>527</ele>
        <time>2010-12-17T01:21:03Z</time>
      </trkpt>
      <trkpt lat="43.80112" lon="5.53395">
        <ele>523.95</ele>
        <time>2010-12-17T01:21:09Z</time>
      </trkpt>
      <trkpt lat="43.80105" lon="5.53418">
        <ele>522.12</ele>
        <time>2010-12-17T01:21:16Z</time>
      </trkpt>
      <trkpt lat="43.80106" lon="5.53419">
        <ele>522.43</ele>
        <time>2010-12-17T01:21:16Z</time>
      </trkpt>
      <trkpt lat="43.80108" lon="5.53418">
        <ele>527.91</ele>
        <time>2010-12-17T01:21:17Z</time>
      </trkpt>
      <trkpt lat="43.801" lon="5.53432">
        <ele>529.44</ele>
        <time>2010-12-17T01:21:22Z</time>
      </trkpt>
      <trkpt lat="43.80096" lon="5.53439">
        <ele>528.52</ele>
        <time>2010-12-17T01:21:25Z</time>
      </trkpt>
      <trkpt lat="43.80087" lon="5.5346">
        <ele>529.74</ele>
        <time>2010-12-17T01:21:32Z</time>
      </trkpt>
      <trkpt lat="43.80082" lon="5.53469">
        <ele>530.05</ele>
        <time>2010-12-17T01:21:35Z</time>
      </trkpt>
      <trkpt lat="43.80075" lon="5.53487">
        <ele>529.44</ele>
        <time>2010-12-17T01:21:41Z</time>
      </trkpt>
      <trkpt lat="43.80069" lon="5.535">
        <ele>527</ele>
        <time>2010-12-17T01:21:46Z</time>
      </trkpt>
      <trkpt lat="43.80058" lon="5.53522">
        <ele>522.43</ele>
        <time>2010-12-17T01:21:53Z</time>
      </trkpt>
      <trkpt lat="43.80055" lon="5.53529">
        <ele>520.9</ele>
        <time>2010-12-17T01:21:56Z</time>
      </trkpt>
      <trkpt lat="43.80054" lon="5.53533">
        <ele>518.16</ele>
        <time>2010-12-17T01:21:57Z</time>
      </trkpt>
      <trkpt lat="43.8005" lon="5.53538">
        <ele>514.81</ele>
        <time>2010-12-17T01:21:59Z</time>
      </trkpt>
      <trkpt lat="43.80044" lon="5.53547">
        <ele>511.45</ele>
        <time>2010-12-17T01:22:02Z</time>
      </trkpt>
      <trkpt lat="43.80035" lon="5.53555">
        <ele>507.19</ele>
        <time>2010-12-17T01:22:07Z</time>
      </trkpt>
      <trkpt lat="43.80027" lon="5.53569">
        <ele>503.83</ele>
        <time>2010-12-17T01:22:12Z</time>
      </trkpt>
      <trkpt lat="43.80017" lon="5.53583">
        <ele>502.62</ele>
        <time>2010-12-17T01:22:18Z</time>
      </trkpt>
      <trkpt lat="43.80006" lon="5.53593">
        <ele>501.09</ele>
        <time>2010-12-17T01:22:23Z</time>
      </trkpt>
      <trkpt lat="43.79998" lon="5.53609">
        <ele>498.96</ele>
        <time>2010-12-17T01:22:29Z</time>
      </trkpt>
      <trkpt lat="43.79995" lon="5.53627">
        <ele>495.6</ele>
        <time>2010-12-17T01:22:34Z</time>
      </trkpt>
      <trkpt lat="43.79992" lon="5.53636">
        <ele>492.25</ele>
        <time>2010-12-17T01:22:37Z</time>
      </trkpt>
      <trkpt lat="43.79981" lon="5.5364">
        <ele>487.38</ele>
        <time>2010-12-17T01:22:41Z</time>
      </trkpt>
      <trkpt lat="43.7997" lon="5.53649">
        <ele>483.72</ele>
        <time>2010-12-17T01:22:46Z</time>
      </trkpt>
      <trkpt lat="43.79954" lon="5.53658">
        <ele>479.15</ele>
        <time>2010-12-17T01:22:53Z</time>
      </trkpt>
      <trkpt lat="43.79944" lon="5.53662">
        <ele>477.62</ele>
        <time>2010-12-17T01:22:57Z</time>
      </trkpt>
      <trkpt lat="43.79942" lon="5.53663">
        <ele>477.32</ele>
        <time>2010-12-17T01:22:58Z</time>
      </trkpt>
      <trkpt lat="43.79937" lon="5.53664">
        <ele>480.97</ele>
        <time>2010-12-17T01:23:00Z</time>
      </trkpt>
      <trkpt lat="43.79927" lon="5.53674">
        <ele>482.19</ele>
        <time>2010-12-17T01:23:05Z</time>
      </trkpt>
      <trkpt lat="43.79921" lon="5.53683">
        <ele>481.58</ele>
        <time>2010-12-17T01:23:09Z</time>
      </trkpt>
      <trkpt lat="43.79914" lon="5.5369">
        <ele>480.06</ele>
        <time>2010-12-17T01:23:12Z</time>
      </trkpt>
      <trkpt lat="43.79904" lon="5.53694">
        <ele>478.54</ele>
        <time>2010-12-17T01:23:16Z</time>
      </trkpt>
      <trkpt lat="43.79889" lon="5.53704">
        <ele>476.4</ele>
        <time>2010-12-17T01:23:23Z</time>
      </trkpt>
      <trkpt lat="43.79879" lon="5.53709">
        <ele>474.57</ele>
        <time>2010-12-17T01:23:27Z</time>
      </trkpt>
      <trkpt lat="43.79869" lon="5.53724">
        <ele>473.96</ele>
        <time>2010-12-17T01:23:33Z</time>
      </trkpt>
      <trkpt lat="43.79868" lon="5.53726">
        <ele>473.96</ele>
        <time>2010-12-17T01:23:34Z</time>
      </trkpt>
      <trkpt lat="43.79855" lon="5.53738">
        <ele>471.22</ele>
        <time>2010-12-17T01:23:40Z</time>
      </trkpt>
      <trkpt lat="43.7985" lon="5.53749">
        <ele>470.31</ele>
        <time>2010-12-17T01:23:44Z</time>
      </trkpt>
      <trkpt lat="43.79849" lon="5.5375">
        <ele>470</ele>
        <time>2010-12-17T01:23:44Z</time>
      </trkpt>
      <trkpt lat="43.7984" lon="5.53758">
        <ele>469.09</ele>
        <time>2010-12-17T01:23:49Z</time>
      </trkpt>
      <trkpt lat="43.79834" lon="5.53764">
        <ele>469.39</ele>
        <time>2010-12-17T01:23:52Z</time>
      </trkpt>
      <trkpt lat="43.7982" lon="5.53767">
        <ele>468.48</ele>
        <time>2010-12-17T01:23:57Z</time>
      </trkpt>
      <trkpt lat="43.79816" lon="5.53779">
        <ele>467.26</ele>
        <time>2010-12-17T01:24:01Z</time>
      </trkpt>
      <trkpt lat="43.79815" lon="5.53788">
        <ele>466.65</ele>
        <time>2010-12-17T01:24:04Z</time>
      </trkpt>
      <trkpt lat="43.79814" lon="5.53794">
        <ele>465.43</ele>
        <time>2010-12-17T01:24:05Z</time>
      </trkpt>
      <trkpt lat="43.79813" lon="5.53795">
        <ele>464.21</ele>
        <time>2010-12-17T01:24:06Z</time>
      </trkpt>
      <trkpt lat="43.79807" lon="5.53807">
        <ele>463.3</ele>
        <time>2010-12-17T01:24:10Z</time>
      </trkpt>
      <trkpt lat="43.79798" lon="5.53831">
        <ele>464.52</ele>
        <time>2010-12-17T01:24:18Z</time>
      </trkpt>
      <trkpt lat="43.79791" lon="5.53851">
        <ele>463.3</ele>
        <time>2010-12-17T01:24:24Z</time>
      </trkpt>
      <trkpt lat="43.79786" lon="5.5386">
        <ele>462.69</ele>
        <time>2010-12-17T01:24:28Z</time>
      </trkpt>
      <trkpt lat="43.79773" lon="5.53879">
        <ele>461.47</ele>
        <time>2010-12-17T01:24:35Z</time>
      </trkpt>
      <trkpt lat="43.79766" lon="5.5389">
        <ele>461.16</ele>
        <time>2010-12-17T01:24:39Z</time>
      </trkpt>
      <trkpt lat="43.79761" lon="5.53901">
        <ele>461.16</ele>
        <time>2010-12-17T01:24:43Z</time>
      </trkpt>
      <trkpt lat="43.79749" lon="5.5392">
        <ele>460.25</ele>
        <time>2010-12-17T01:24:50Z</time>
      </trkpt>
      <trkpt lat="43.79728" lon="5.5394">
        <ele>459.33</ele>
        <time>2010-12-17T01:25:01Z</time>
      </trkpt>
      <trkpt lat="43.79722" lon="5.53949">
        <ele>459.64</ele>
        <time>2010-12-17T01:25:04Z</time>
      </trkpt>
      <trkpt lat="43.79722" lon="5.53949">
        <ele>459.94</ele>
        <time>2010-12-17T01:25:04Z</time>
      </trkpt>
      <trkpt lat="43.79719" lon="5.53953">
        <ele>461.16</ele>
        <time>2010-12-17T01:25:06Z</time>
      </trkpt>
      <trkpt lat="43.79717" lon="5.53955">
        <ele>461.77</ele>
        <time>2010-12-17T01:25:07Z</time>
      </trkpt>
      <trkpt lat="43.79717" lon="5.53958">
        <ele>462.69</ele>
        <time>2010-12-17T01:25:08Z</time>
      </trkpt>
      <trkpt lat="43.79714" lon="5.53964">
        <ele>463.91</ele>
        <time>2010-12-17T01:25:10Z</time>
      </trkpt>
      <trkpt lat="43.79713" lon="5.53965">
        <ele>463.91</ele>
        <time>2010-12-17T01:25:10Z</time>
      </trkpt>
      <trkpt lat="43.79711" lon="5.53969">
        <ele>465.12</ele>
        <time>2010-12-17T01:25:12Z</time>
      </trkpt>
      <trkpt lat="43.7971" lon="5.53972">
        <ele>466.04</ele>
        <time>2010-12-17T01:25:13Z</time>
      </trkpt>
      <trkpt lat="43.79708" lon="5.53977">
        <ele>466.95</ele>
        <time>2010-12-17T01:25:14Z</time>
      </trkpt>
      <trkpt lat="43.79708" lon="5.53978">
        <ele>466.95</ele>
        <time>2010-12-17T01:25:15Z</time>
      </trkpt>
      <trkpt lat="43.79705" lon="5.53987">
        <ele>466.65</ele>
        <time>2010-12-17T01:25:18Z</time>
      </trkpt>
      <trkpt lat="43.79691" lon="5.54013">
        <ele>463.6</ele>
        <time>2010-12-17T01:25:27Z</time>
      </trkpt>
      <trkpt lat="43.79687" lon="5.54016">
        <ele>462.69</ele>
        <time>2010-12-17T01:25:29Z</time>
      </trkpt>
      <trkpt lat="43.79671" lon="5.54029">
        <ele>459.64</ele>
        <time>2010-12-17T01:25:36Z</time>
      </trkpt>
      <trkpt lat="43.7965" lon="5.54031">
        <ele>457.2</ele>
        <time>2010-12-17T01:25:45Z</time>
      </trkpt>
      <trkpt lat="43.79629" lon="5.54032">
        <ele>454.76</ele>
        <time>2010-12-17T01:25:53Z</time>
      </trkpt>
      <trkpt lat="43.79615" lon="5.54029">
        <ele>452.63</ele>
        <time>2010-12-17T01:25:59Z</time>
      </trkpt>
      <trkpt lat="43.79614" lon="5.54029">
        <ele>452.32</ele>
        <time>2010-12-17T01:25:59Z</time>
      </trkpt>
      <trkpt lat="43.7961" lon="5.54029">
        <ele>450.19</ele>
        <time>2010-12-17T01:26:01Z</time>
      </trkpt>
      <trkpt lat="43.79606" lon="5.54029">
        <ele>449.88</ele>
        <time>2010-12-17T01:26:02Z</time>
      </trkpt>
      <trkpt lat="43.79605" lon="5.54029">
        <ele>450.19</ele>
        <time>2010-12-17T01:26:03Z</time>
      </trkpt>
      <trkpt lat="43.79598" lon="5.54033">
        <ele>449.88</ele>
        <time>2010-12-17T01:26:06Z</time>
      </trkpt>
      <trkpt lat="43.79597" lon="5.54033">
        <ele>448.97</ele>
        <time>2010-12-17T01:26:06Z</time>
      </trkpt>
      <trkpt lat="43.79593" lon="5.54031">
        <ele>448.67</ele>
        <time>2010-12-17T01:26:08Z</time>
      </trkpt>
      <trkpt lat="43.79583" lon="5.5403">
        <ele>448.36</ele>
        <time>2010-12-17T01:26:12Z</time>
      </trkpt>
      <trkpt lat="43.79571" lon="5.54034">
        <ele>448.67</ele>
        <time>2010-12-17T01:26:16Z</time>
      </trkpt>
      <trkpt lat="43.79558" lon="5.54039">
        <ele>447.14</ele>
        <time>2010-12-17T01:26:22Z</time>
      </trkpt>
      <trkpt lat="43.79545" lon="5.54041">
        <ele>445.62</ele>
        <time>2010-12-17T01:26:27Z</time>
      </trkpt>
      <trkpt lat="43.79532" lon="5.54046">
        <ele>444.09</ele>
        <time>2010-12-17T01:26:33Z</time>
      </trkpt>
      <trkpt lat="43.79521" lon="5.54048">
        <ele>445.92</ele>
        <time>2010-12-17T01:26:37Z</time>
      </trkpt>
      <trkpt lat="43.79508" lon="5.54054">
        <ele>445.92</ele>
        <time>2010-12-17T01:26:43Z</time>
      </trkpt>
      <trkpt lat="43.79492" lon="5.54063">
        <ele>444.7</ele>
        <time>2010-12-17T01:26:49Z</time>
      </trkpt>
      <trkpt lat="43.79476" lon="5.54067">
        <ele>444.7</ele>
        <time>2010-12-17T01:26:56Z</time>
      </trkpt>
      <trkpt lat="43.7946" lon="5.54072">
        <ele>445.31</ele>
        <time>2010-12-17T01:27:02Z</time>
      </trkpt>
      <trkpt lat="43.7945" lon="5.54077">
        <ele>443.79</ele>
        <time>2010-12-17T01:27:07Z</time>
      </trkpt>
      <trkpt lat="43.79438" lon="5.5408">
        <ele>441.96</ele>
        <time>2010-12-17T01:27:12Z</time>
      </trkpt>
      <trkpt lat="43.79425" lon="5.54076">
        <ele>439.22</ele>
        <time>2010-12-17T01:27:17Z</time>
      </trkpt>
      <trkpt lat="43.79413" lon="5.54071">
        <ele>438.61</ele>
        <time>2010-12-17T01:27:22Z</time>
      </trkpt>
      <trkpt lat="43.79401" lon="5.54066">
        <ele>436.47</ele>
        <time>2010-12-17T01:27:27Z</time>
      </trkpt>
      <trkpt lat="43.7939" lon="5.54054">
        <ele>434.04</ele>
        <time>2010-12-17T01:27:33Z</time>
      </trkpt>
      <trkpt lat="43.79383" lon="5.54046">
        <ele>434.64</ele>
        <time>2010-12-17T01:27:36Z</time>
      </trkpt>
      <trkpt lat="43.79383" lon="5.54046">
        <ele>434.95</ele>
        <time>2010-12-17T01:27:36Z</time>
      </trkpt>
      <trkpt lat="43.79376" lon="5.54032">
        <ele>448.36</ele>
        <time>2010-12-17T01:27:41Z</time>
      </trkpt>
      <trkpt lat="43.79371" lon="5.54031">
        <ele>447.14</ele>
        <time>2010-12-17T01:27:43Z</time>
      </trkpt>
      <trkpt lat="43.79362" lon="5.5403">
        <ele>445.92</ele>
        <time>2010-12-17T01:27:47Z</time>
      </trkpt>
      <trkpt lat="43.79348" lon="5.5402">
        <ele>446.53</ele>
        <time>2010-12-17T01:27:53Z</time>
      </trkpt>
      <trkpt lat="43.79332" lon="5.54006">
        <ele>448.06</ele>
        <time>2010-12-17T01:28:01Z</time>
      </trkpt>
      <trkpt lat="43.79314" lon="5.53994">
        <ele>448.36</ele>
        <time>2010-12-17T01:28:08Z</time>
      </trkpt>
      <trkpt lat="43.79295" lon="5.53987">
        <ele>446.84</ele>
        <time>2010-12-17T01:28:16Z</time>
      </trkpt>
      <trkpt lat="43.79271" lon="5.53976">
        <ele>444.09</ele>
        <time>2010-12-17T01:28:26Z</time>
      </trkpt>
      <trkpt lat="43.79256" lon="5.53982">
        <ele>442.87</ele>
        <time>2010-12-17T01:28:33Z</time>
      </trkpt>
      <trkpt lat="43.79238" lon="5.53995">
        <ele>441.96</ele>
        <time>2010-12-17T01:28:41Z</time>
      </trkpt>
      <trkpt lat="43.79222" lon="5.5401">
        <ele>441.35</ele>
        <time>2010-12-17T01:28:48Z</time>
      </trkpt>
      <trkpt lat="43.79209" lon="5.54018">
        <ele>441.66</ele>
        <time>2010-12-17T01:28:54Z</time>
      </trkpt>
      <trkpt lat="43.79193" lon="5.54034">
        <ele>440.74</ele>
        <time>2010-12-17T01:29:02Z</time>
      </trkpt>
      <trkpt lat="43.79161" lon="5.54059">
        <ele>440.44</ele>
        <time>2010-12-17T01:29:17Z</time>
      </trkpt>
      <trkpt lat="43.79146" lon="5.54067">
        <ele>440.44</ele>
        <time>2010-12-17T01:29:23Z</time>
      </trkpt>
      <trkpt lat="43.79123" lon="5.5409">
        <ele>439.83</ele>
        <time>2010-12-17T01:29:35Z</time>
      </trkpt>
      <trkpt lat="43.79094" lon="5.54124">
        <ele>439.52</ele>
        <time>2010-12-17T01:29:50Z</time>
      </trkpt>
      <trkpt lat="43.79067" lon="5.5416">
        <ele>440.44</ele>
        <time>2010-12-17T01:30:05Z</time>
      </trkpt>
      <trkpt lat="43.7905" lon="5.54197">
        <ele>439.22</ele>
        <time>2010-12-17T01:30:18Z</time>
      </trkpt>
      <trkpt lat="43.79028" lon="5.54256">
        <ele>438</ele>
        <time>2010-12-17T01:30:37Z</time>
      </trkpt>
      <trkpt lat="43.79007" lon="5.54284">
        <ele>437.08</ele>
        <time>2010-12-17T01:30:48Z</time>
      </trkpt>
      <trkpt lat="43.78961" lon="5.54317">
        <ele>435.56</ele>
        <time>2010-12-17T01:31:09Z</time>
      </trkpt>
      <trkpt lat="43.78923" lon="5.54324">
        <ele>433.43</ele>
        <time>2010-12-17T01:31:24Z</time>
      </trkpt>
      <trkpt lat="43.78861" lon="5.54321">
        <ele>429.77</ele>
        <time>2010-12-17T01:31:49Z</time>
      </trkpt>
      <trkpt lat="43.78813" lon="5.54322">
        <ele>425.81</ele>
        <time>2010-12-17T01:32:09Z</time>
      </trkpt>
      <trkpt lat="43.7875" lon="5.54327">
        <ele>422.15</ele>
        <time>2010-12-17T01:32:34Z</time>
      </trkpt>
      <trkpt lat="43.78676" lon="5.54355">
        <ele>417.88</ele>
        <time>2010-12-17T01:33:04Z</time>
      </trkpt>
      <trkpt lat="43.78634" lon="5.54371">
        <ele>416.05</ele>
        <time>2010-12-17T01:33:22Z</time>
      </trkpt>
      <trkpt lat="43.78594" lon="5.54367">
        <ele>415.14</ele>
        <time>2010-12-17T01:33:38Z</time>
      </trkpt>
      <trkpt lat="43.78575" lon="5.5434">
        <ele>413</ele>
        <time>2010-12-17T01:33:49Z</time>
      </trkpt>
      <trkpt lat="43.78573" lon="5.54301">
        <ele>410.57</ele>
        <time>2010-12-17T01:34:00Z</time>
      </trkpt>
      <trkpt lat="43.78576" lon="5.54288">
        <ele>409.96</ele>
        <time>2010-12-17T01:34:04Z</time>
      </trkpt>
      <trkpt lat="43.78576" lon="5.54244">
        <ele>407.52</ele>
        <time>2010-12-17T01:34:17Z</time>
      </trkpt>
      <trkpt lat="43.78562" lon="5.54239">
        <ele>406.91</ele>
        <time>2010-12-17T01:34:23Z</time>
      </trkpt>
      <trkpt lat="43.78556" lon="5.54241">
        <ele>406.6</ele>
        <time>2010-12-17T01:34:25Z</time>
      </trkpt>
      <trkpt lat="43.7853" lon="5.54246">
        <ele>406.91</ele>
        <time>2010-12-17T01:34:36Z</time>
      </trkpt>
      <trkpt lat="43.78502" lon="5.54241">
        <ele>408.74</ele>
        <time>2010-12-17T01:34:47Z</time>
      </trkpt>
      <trkpt lat="43.78485" lon="5.54231">
        <ele>410.87</ele>
        <time>2010-12-17T01:34:54Z</time>
      </trkpt>
      <trkpt lat="43.7847" lon="5.54206">
        <ele>411.78</ele>
        <time>2010-12-17T01:35:04Z</time>
      </trkpt>
      <trkpt lat="43.78453" lon="5.54183">
        <ele>413.31</ele>
        <time>2010-12-17T01:35:13Z</time>
      </trkpt>
      <trkpt lat="43.78439" lon="5.54164">
        <ele>413.92</ele>
        <time>2010-12-17T01:35:21Z</time>
      </trkpt>
      <trkpt lat="43.78421" lon="5.54139">
        <ele>413.61</ele>
        <time>2010-12-17T01:35:31Z</time>
      </trkpt>
      <trkpt lat="43.78411" lon="5.54121">
        <ele>413.61</ele>
        <time>2010-12-17T01:35:38Z</time>
      </trkpt>
      <trkpt lat="43.78403" lon="5.54087">
        <ele>415.14</ele>
        <time>2010-12-17T01:35:48Z</time>
      </trkpt>
      <trkpt lat="43.78399" lon="5.54051">
        <ele>415.75</ele>
        <time>2010-12-17T01:35:59Z</time>
      </trkpt>
      <trkpt lat="43.78395" lon="5.54008">
        <ele>414.83</ele>
        <time>2010-12-17T01:36:11Z</time>
      </trkpt>
      <trkpt lat="43.78392" lon="5.53968">
        <ele>413.61</ele>
        <time>2010-12-17T01:36:23Z</time>
      </trkpt>
      <trkpt lat="43.78387" lon="5.53916">
        <ele>411.48</ele>
        <time>2010-12-17T01:36:38Z</time>
      </trkpt>
      <trkpt lat="43.78381" lon="5.53854">
        <ele>408.43</ele>
        <time>2010-12-17T01:36:56Z</time>
      </trkpt>
      <trkpt lat="43.78369" lon="5.53783">
        <ele>405.08</ele>
        <time>2010-12-17T01:37:17Z</time>
      </trkpt>
      <trkpt lat="43.78345" lon="5.53694">
        <ele>403.25</ele>
        <time>2010-12-17T01:37:45Z</time>
      </trkpt>
      <trkpt lat="43.78327" lon="5.53614">
        <ele>400.81</ele>
        <time>2010-12-17T01:38:09Z</time>
      </trkpt>
      <trkpt lat="43.78314" lon="5.53539">
        <ele>399.29</ele>
        <time>2010-12-17T01:38:31Z</time>
      </trkpt>
      <trkpt lat="43.78302" lon="5.53488">
        <ele>398.98</ele>
        <time>2010-12-17T01:38:47Z</time>
      </trkpt>
      <trkpt lat="43.78288" lon="5.53436">
        <ele>399.9</ele>
        <time>2010-12-17T01:39:03Z</time>
      </trkpt>
      <trkpt lat="43.78274" lon="5.53385">
        <ele>400.51</ele>
        <time>2010-12-17T01:39:19Z</time>
      </trkpt>
      <trkpt lat="43.78253" lon="5.53304">
        <ele>401.12</ele>
        <time>2010-12-17T01:39:44Z</time>
      </trkpt>
      <trkpt lat="43.78245" lon="5.5327">
        <ele>400.81</ele>
        <time>2010-12-17T01:39:54Z</time>
      </trkpt>
      <trkpt lat="43.78227" lon="5.53216">
        <ele>401.42</ele>
        <time>2010-12-17T01:40:11Z</time>
      </trkpt>
      <trkpt lat="43.78201" lon="5.53168">
        <ele>401.42</ele>
        <time>2010-12-17T01:40:29Z</time>
      </trkpt>
      <trkpt lat="43.78163" lon="5.5311">
        <ele>399.9</ele>
        <time>2010-12-17T01:40:51Z</time>
      </trkpt>
      <trkpt lat="43.78139" lon="5.53075">
        <ele>399.29</ele>
        <time>2010-12-17T01:41:05Z</time>
      </trkpt>
      <trkpt lat="43.78115" lon="5.53038">
        <ele>398.98</ele>
        <time>2010-12-17T01:41:19Z</time>
      </trkpt>
      <trkpt lat="43.78087" lon="5.52995">
        <ele>398.07</ele>
        <time>2010-12-17T01:41:36Z</time>
      </trkpt>
      <trkpt lat="43.78062" lon="5.52957">
        <ele>397.15</ele>
        <time>2010-12-17T01:41:51Z</time>
      </trkpt>
      <trkpt lat="43.78025" lon="5.52902">
        <ele>395.94</ele>
        <time>2010-12-17T01:42:13Z</time>
      </trkpt>
      <trkpt lat="43.77985" lon="5.52841">
        <ele>395.02</ele>
        <time>2010-12-17T01:42:36Z</time>
      </trkpt>
      <trkpt lat="43.7796" lon="5.52795">
        <ele>394.41</ele>
        <time>2010-12-17T01:42:53Z</time>
      </trkpt>
      <trkpt lat="43.77942" lon="5.52743">
        <ele>394.11</ele>
        <time>2010-12-17T01:43:10Z</time>
      </trkpt>
      <trkpt lat="43.77936" lon="5.52699">
        <ele>392.28</ele>
        <time>2010-12-17T01:43:23Z</time>
      </trkpt>
      <trkpt lat="43.77934" lon="5.52659">
        <ele>391.06</ele>
        <time>2010-12-17T01:43:34Z</time>
      </trkpt>
      <trkpt lat="43.77933" lon="5.52603">
        <ele>389.23</ele>
        <time>2010-12-17T01:43:51Z</time>
      </trkpt>
      <trkpt lat="43.77925" lon="5.52555">
        <ele>386.49</ele>
        <time>2010-12-17T01:44:05Z</time>
      </trkpt>
      <trkpt lat="43.77898" lon="5.52503">
        <ele>383.44</ele>
        <time>2010-12-17T01:44:23Z</time>
      </trkpt>
      <trkpt lat="43.7787" lon="5.5249">
        <ele>381.91</ele>
        <time>2010-12-17T01:44:35Z</time>
      </trkpt>
      <trkpt lat="43.77851" lon="5.52496">
        <ele>381.3</ele>
        <time>2010-12-17T01:44:43Z</time>
      </trkpt>
      <trkpt lat="43.77782" lon="5.52535">
        <ele>378.26</ele>
        <time>2010-12-17T01:45:13Z</time>
      </trkpt>
      <trkpt lat="43.77727" lon="5.5257">
        <ele>376.73</ele>
        <time>2010-12-17T01:45:37Z</time>
      </trkpt>
      <trkpt lat="43.77676" lon="5.52594">
        <ele>375.21</ele>
        <time>2010-12-17T01:45:58Z</time>
      </trkpt>
      <trkpt lat="43.77604" lon="5.5262">
        <ele>373.08</ele>
        <time>2010-12-17T01:46:28Z</time>
      </trkpt>
      <trkpt lat="43.77552" lon="5.52631">
        <ele>371.86</ele>
        <time>2010-12-17T01:46:49Z</time>
      </trkpt>
      <trkpt lat="43.77508" lon="5.52639">
        <ele>370.33</ele>
        <time>2010-12-17T01:47:07Z</time>
      </trkpt>
      <trkpt lat="43.77479" lon="5.52626">
        <ele>368.2</ele>
        <time>2010-12-17T01:47:19Z</time>
      </trkpt>
      <trkpt lat="43.77467" lon="5.52595">
        <ele>366.06</ele>
        <time>2010-12-17T01:47:29Z</time>
      </trkpt>
      <trkpt lat="43.77448" lon="5.52508">
        <ele>362.1</ele>
        <time>2010-12-17T01:47:56Z</time>
      </trkpt>
      <trkpt lat="43.77433" lon="5.5248">
        <ele>360.58</ele>
        <time>2010-12-17T01:48:06Z</time>
      </trkpt>
      <trkpt lat="43.77407" lon="5.52472">
        <ele>359.36</ele>
        <time>2010-12-17T01:48:17Z</time>
      </trkpt>
      <trkpt lat="43.77342" lon="5.52469">
        <ele>356.92</ele>
        <time>2010-12-17T01:48:43Z</time>
      </trkpt>
      <trkpt lat="43.77316" lon="5.52469">
        <ele>356.31</ele>
        <time>2010-12-17T01:48:53Z</time>
      </trkpt>
      <trkpt lat="43.77309" lon="5.52466">
        <ele>356.01</ele>
        <time>2010-12-17T01:48:56Z</time>
      </trkpt>
      <trkpt lat="43.77305" lon="5.52444">
        <ele>356.01</ele>
        <time>2010-12-17T01:49:03Z</time>
      </trkpt>
      <trkpt lat="43.77305" lon="5.52394">
        <ele>356.31</ele>
        <time>2010-12-17T01:49:17Z</time>
      </trkpt>
      <trkpt lat="43.77305" lon="5.5238">
        <ele>356.31</ele>
        <time>2010-12-17T01:49:21Z</time>
      </trkpt>
      <trkpt lat="43.77315" lon="5.52341">
        <ele>357.23</ele>
        <time>2010-12-17T01:49:33Z</time>
      </trkpt>
      <trkpt lat="43.77335" lon="5.52306">
        <ele>358.75</ele>
        <time>2010-12-17T01:49:46Z</time>
      </trkpt>
      <trkpt lat="43.77352" lon="5.52276">
        <ele>359.66</ele>
        <time>2010-12-17T01:49:57Z</time>
      </trkpt>
      <trkpt lat="43.77366" lon="5.52246">
        <ele>361.49</ele>
        <time>2010-12-17T01:50:07Z</time>
      </trkpt>
      <trkpt lat="43.77368" lon="5.52227">
        <ele>362.1</ele>
        <time>2010-12-17T01:50:13Z</time>
      </trkpt>
      <trkpt lat="43.77363" lon="5.52203">
        <ele>363.63</ele>
        <time>2010-12-17T01:50:20Z</time>
      </trkpt>
      <trkpt lat="43.77354" lon="5.52188">
        <ele>364.54</ele>
        <time>2010-12-17T01:50:26Z</time>
      </trkpt>
      <trkpt lat="43.77339" lon="5.52179">
        <ele>365.76</ele>
        <time>2010-12-17T01:50:32Z</time>
      </trkpt>
      <trkpt lat="43.77318" lon="5.52179">
        <ele>368.2</ele>
        <time>2010-12-17T01:50:41Z</time>
      </trkpt>
      <trkpt lat="43.77297" lon="5.52185">
        <ele>372.47</ele>
        <time>2010-12-17T01:50:49Z</time>
      </trkpt>
      <trkpt lat="43.77279" lon="5.52178">
        <ele>374.9</ele>
        <time>2010-12-17T01:50:57Z</time>
      </trkpt>
      <trkpt lat="43.77267" lon="5.52159">
        <ele>375.21</ele>
        <time>2010-12-17T01:51:04Z</time>
      </trkpt>
      <trkpt lat="43.77256" lon="5.52132">
        <ele>377.04</ele>
        <time>2010-12-17T01:51:13Z</time>
      </trkpt>
      <trkpt lat="43.77251" lon="5.52114">
        <ele>377.65</ele>
        <time>2010-12-17T01:51:19Z</time>
      </trkpt>
      <trkpt lat="43.77251" lon="5.52109">
        <ele>376.73</ele>
        <time>2010-12-17T01:51:20Z</time>
      </trkpt>
      <trkpt lat="43.77251" lon="5.52066">
        <ele>373.68</ele>
        <time>2010-12-17T01:51:32Z</time>
      </trkpt>
      <trkpt lat="43.77247" lon="5.52005">
        <ele>370.33</ele>
        <time>2010-12-17T01:51:50Z</time>
      </trkpt>
      <trkpt lat="43.77243" lon="5.51973">
        <ele>368.5</ele>
        <time>2010-12-17T01:51:59Z</time>
      </trkpt>
      <trkpt lat="43.7724" lon="5.5196">
        <ele>367.89</ele>
        <time>2010-12-17T01:52:03Z</time>
      </trkpt>
      <trkpt lat="43.77239" lon="5.51952">
        <ele>366.98</ele>
        <time>2010-12-17T01:52:06Z</time>
      </trkpt>
      <trkpt lat="43.77239" lon="5.51949">
        <ele>366.06</ele>
        <time>2010-12-17T01:52:07Z</time>
      </trkpt>
      <trkpt lat="43.77231" lon="5.5192">
        <ele>364.54</ele>
        <time>2010-12-17T01:52:16Z</time>
      </trkpt>
      <trkpt lat="43.77223" lon="5.51895">
        <ele>364.24</ele>
        <time>2010-12-17T01:52:24Z</time>
      </trkpt>
      <trkpt lat="43.7721" lon="5.51851">
        <ele>363.93</ele>
        <time>2010-12-17T01:52:37Z</time>
      </trkpt>
      <trkpt lat="43.77195" lon="5.51805">
        <ele>363.63</ele>
        <time>2010-12-17T01:52:52Z</time>
      </trkpt>
      <trkpt lat="43.77187" lon="5.51787">
        <ele>363.63</ele>
        <time>2010-12-17T01:52:58Z</time>
      </trkpt>
      <trkpt lat="43.77186" lon="5.51786">
        <ele>363.63</ele>
        <time>2010-12-17T01:52:58Z</time>
      </trkpt>
      <trkpt lat="43.77185" lon="5.51782">
        <ele>363.32</ele>
        <time>2010-12-17T01:53:00Z</time>
      </trkpt>
      <trkpt lat="43.77175" lon="5.51766">
        <ele>363.02</ele>
        <time>2010-12-17T01:53:06Z</time>
      </trkpt>
      <trkpt lat="43.77158" lon="5.51746">
        <ele>362.71</ele>
        <time>2010-12-17T01:53:15Z</time>
      </trkpt>
      <trkpt lat="43.77129" lon="5.51728">
        <ele>362.41</ele>
        <time>2010-12-17T01:53:27Z</time>
      </trkpt>
      <trkpt lat="43.77116" lon="5.51713">
        <ele>362.71</ele>
        <time>2010-12-17T01:53:34Z</time>
      </trkpt>
      <trkpt lat="43.7711" lon="5.51704">
        <ele>362.71</ele>
        <time>2010-12-17T01:53:38Z</time>
      </trkpt>
      <trkpt lat="43.77089" lon="5.51677">
        <ele>362.71</ele>
        <time>2010-12-17T01:53:49Z</time>
      </trkpt>
      <trkpt lat="43.77068" lon="5.51647">
        <ele>362.71</ele>
        <time>2010-12-17T01:54:01Z</time>
      </trkpt>
      <trkpt lat="43.77047" lon="5.51605">
        <ele>362.1</ele>
        <time>2010-12-17T01:54:16Z</time>
      </trkpt>
      <trkpt lat="43.77033" lon="5.51566">
        <ele>361.19</ele>
        <time>2010-12-17T01:54:29Z</time>
      </trkpt>
      <trkpt lat="43.77024" lon="5.5154">
        <ele>360.88</ele>
        <time>2010-12-17T01:54:37Z</time>
      </trkpt>
      <trkpt lat="43.77009" lon="5.51479">
        <ele>359.66</ele>
        <time>2010-12-17T01:54:56Z</time>
      </trkpt>
      <trkpt lat="43.76992" lon="5.51438">
        <ele>358.75</ele>
        <time>2010-12-17T01:55:09Z</time>
      </trkpt>
      <trkpt lat="43.76989" lon="5.51433">
        <ele>358.75</ele>
        <time>2010-12-17T01:55:11Z</time>
      </trkpt>
      <trkpt lat="43.76959" lon="5.51401">
        <ele>357.84</ele>
        <time>2010-12-17T01:55:26Z</time>
      </trkpt>
      <trkpt lat="43.76924" lon="5.51384">
        <ele>356.92</ele>
        <time>2010-12-17T01:55:41Z</time>
      </trkpt>
      <trkpt lat="43.76893" lon="5.51369">
        <ele>355.09</ele>
        <time>2010-12-17T01:55:54Z</time>
      </trkpt>
      <trkpt lat="43.76851" lon="5.51349">
        <ele>354.18</ele>
        <time>2010-12-17T01:56:12Z</time>
      </trkpt>
      <trkpt lat="43.76828" lon="5.51338">
        <ele>355.09</ele>
        <time>2010-12-17T01:56:22Z</time>
      </trkpt>
      <trkpt lat="43.76808" lon="5.51327">
        <ele>356.01</ele>
        <time>2010-12-17T01:56:30Z</time>
      </trkpt>
      <trkpt lat="43.7678" lon="5.51307">
        <ele>356.31</ele>
        <time>2010-12-17T01:56:43Z</time>
      </trkpt>
      <trkpt lat="43.76761" lon="5.51286">
        <ele>356.01</ele>
        <time>2010-12-17T01:56:53Z</time>
      </trkpt>
      <trkpt lat="43.76738" lon="5.51264">
        <ele>355.7</ele>
        <time>2010-12-17T01:57:04Z</time>
      </trkpt>
      <trkpt lat="43.76709" lon="5.5124">
        <ele>353.87</ele>
        <time>2010-12-17T01:57:17Z</time>
      </trkpt>
      <trkpt lat="43.76681" lon="5.5122">
        <ele>352.96</ele>
        <time>2010-12-17T01:57:30Z</time>
      </trkpt>
      <trkpt lat="43.76646" lon="5.51196">
        <ele>351.43</ele>
        <time>2010-12-17T01:57:46Z</time>
      </trkpt>
      <trkpt lat="43.7661" lon="5.5118">
        <ele>350.22</ele>
        <time>2010-12-17T01:58:01Z</time>
      </trkpt>
      <trkpt lat="43.76596" lon="5.51165">
        <ele>349</ele>
        <time>2010-12-17T01:58:08Z</time>
      </trkpt>
      <trkpt lat="43.76577" lon="5.51146">
        <ele>347.17</ele>
        <time>2010-12-17T01:58:17Z</time>
      </trkpt>
      <trkpt lat="43.76547" lon="5.5114">
        <ele>344.42</ele>
        <time>2010-12-17T01:58:29Z</time>
      </trkpt>
      <trkpt lat="43.76528" lon="5.51133">
        <ele>341.38</ele>
        <time>2010-12-17T01:58:37Z</time>
      </trkpt>
      <trkpt lat="43.76528" lon="5.51113">
        <ele>339.55</ele>
        <time>2010-12-17T01:58:43Z</time>
      </trkpt>
      <trkpt lat="43.76511" lon="5.51089">
        <ele>338.63</ele>
        <time>2010-12-17T01:58:53Z</time>
      </trkpt>
      <trkpt lat="43.76485" lon="5.51078">
        <ele>337.11</ele>
        <time>2010-12-17T01:59:04Z</time>
      </trkpt>
      <trkpt lat="43.76474" lon="5.51074">
        <ele>336.5</ele>
        <time>2010-12-17T01:59:08Z</time>
      </trkpt>
      <trkpt lat="43.7643" lon="5.51051">
        <ele>334.06</ele>
        <time>2010-12-17T01:59:27Z</time>
      </trkpt>
      <trkpt lat="43.76418" lon="5.51046">
        <ele>333.15</ele>
        <time>2010-12-17T01:59:32Z</time>
      </trkpt>
      <trkpt lat="43.76407" lon="5.51033">
        <ele>331.93</ele>
        <time>2010-12-17T01:59:38Z</time>
      </trkpt>
      <trkpt lat="43.76412" lon="5.51015">
        <ele>332.54</ele>
        <time>2010-12-17T01:59:43Z</time>
      </trkpt>
      <trkpt lat="43.76426" lon="5.51001">
        <ele>333.15</ele>
        <time>2010-12-17T01:59:50Z</time>
      </trkpt>
      <trkpt lat="43.7644" lon="5.50983">
        <ele>335.89</ele>
        <time>2010-12-17T01:59:58Z</time>
      </trkpt>
      <trkpt lat="43.76459" lon="5.50951">
        <ele>337.41</ele>
        <time>2010-12-17T02:00:10Z</time>
      </trkpt>
      <trkpt lat="43.7646" lon="5.50946">
        <ele>337.41</ele>
        <time>2010-12-17T02:00:12Z</time>
      </trkpt>
      <trkpt lat="43.76467" lon="5.50916">
        <ele>337.41</ele>
        <time>2010-12-17T02:00:21Z</time>
      </trkpt>
      <trkpt lat="43.76476" lon="5.50881">
        <ele>337.41</ele>
        <time>2010-12-17T02:00:31Z</time>
      </trkpt>
      <trkpt lat="43.76482" lon="5.50868">
        <ele>338.02</ele>
        <time>2010-12-17T02:00:36Z</time>
      </trkpt>
      <trkpt lat="43.76475" lon="5.50839">
        <ele>337.41</ele>
        <time>2010-12-17T02:00:45Z</time>
      </trkpt>
      <trkpt lat="43.76466" lon="5.50814">
        <ele>336.8</ele>
        <time>2010-12-17T02:00:53Z</time>
      </trkpt>
      <trkpt lat="43.7646" lon="5.50799">
        <ele>334.98</ele>
        <time>2010-12-17T02:00:58Z</time>
      </trkpt>
      <trkpt lat="43.76445" lon="5.50781">
        <ele>333.76</ele>
        <time>2010-12-17T02:01:06Z</time>
      </trkpt>
      <trkpt lat="43.76431" lon="5.50755">
        <ele>333.15</ele>
        <time>2010-12-17T02:01:15Z</time>
      </trkpt>
      <trkpt lat="43.76426" lon="5.50745">
        <ele>332.84</ele>
        <time>2010-12-17T02:01:18Z</time>
      </trkpt>
      <trkpt lat="43.76406" lon="5.50708">
        <ele>331.62</ele>
        <time>2010-12-17T02:01:32Z</time>
      </trkpt>
      <trkpt lat="43.7639" lon="5.50677">
        <ele>331.32</ele>
        <time>2010-12-17T02:01:43Z</time>
      </trkpt>
      <trkpt lat="43.76386" lon="5.50668">
        <ele>331.01</ele>
        <time>2010-12-17T02:01:46Z</time>
      </trkpt>
      <trkpt lat="43.76379" lon="5.50645">
        <ele>330.71</ele>
        <time>2010-12-17T02:01:53Z</time>
      </trkpt>
      <trkpt lat="43.76375" lon="5.50632">
        <ele>330.71</ele>
        <time>2010-12-17T02:01:57Z</time>
      </trkpt>
      <trkpt lat="43.76368" lon="5.50618">
        <ele>330.71</ele>
        <time>2010-12-17T02:02:02Z</time>
      </trkpt>
      <trkpt lat="43.76365" lon="5.50605">
        <ele>330.71</ele>
        <time>2010-12-17T02:02:06Z</time>
      </trkpt>
      <trkpt lat="43.76363" lon="5.50596">
        <ele>329.79</ele>
        <time>2010-12-17T02:02:09Z</time>
      </trkpt>
      <trkpt lat="43.76359" lon="5.50587">
        <ele>329.79</ele>
        <time>2010-12-17T02:02:12Z</time>
      </trkpt>
      <trkpt lat="43.7635" lon="5.50567">
        <ele>329.79</ele>
        <time>2010-12-17T02:02:18Z</time>
      </trkpt>
      <trkpt lat="43.7635" lon="5.50566">
        <ele>329.49</ele>
        <time>2010-12-17T02:02:19Z</time>
      </trkpt>
      <trkpt lat="43.76348" lon="5.50562">
        <ele>331.01</ele>
        <time>2010-12-17T02:02:20Z</time>
      </trkpt>
      <trkpt lat="43.76347" lon="5.50561">
        <ele>331.32</ele>
        <time>2010-12-17T02:02:21Z</time>
      </trkpt>
      <trkpt lat="43.76347" lon="5.50558">
        <ele>331.32</ele>
        <time>2010-12-17T02:02:22Z</time>
      </trkpt>
      <trkpt lat="43.76342" lon="5.50549">
        <ele>330.1</ele>
        <time>2010-12-17T02:02:25Z</time>
      </trkpt>
      <trkpt lat="43.76338" lon="5.50541">
        <ele>329.79</ele>
        <time>2010-12-17T02:02:28Z</time>
      </trkpt>
      <trkpt lat="43.76332" lon="5.50519">
        <ele>329.79</ele>
        <time>2010-12-17T02:02:34Z</time>
      </trkpt>
      <trkpt lat="43.76328" lon="5.50493">
        <ele>328.88</ele>
        <time>2010-12-17T02:02:42Z</time>
      </trkpt>
      <trkpt lat="43.76322" lon="5.50461">
        <ele>328.88</ele>
        <time>2010-12-17T02:02:52Z</time>
      </trkpt>
      <trkpt lat="43.76324" lon="5.50449">
        <ele>328.88</ele>
        <time>2010-12-17T02:02:55Z</time>
      </trkpt>
      <trkpt lat="43.76324" lon="5.5043">
        <ele>328.88</ele>
        <time>2010-12-17T02:03:01Z</time>
      </trkpt>
      <trkpt lat="43.7632" lon="5.50414">
        <ele>327.96</ele>
        <time>2010-12-17T02:03:06Z</time>
      </trkpt>
      <trkpt lat="43.76319" lon="5.50411">
        <ele>327.66</ele>
        <time>2010-12-17T02:03:06Z</time>
      </trkpt>
      <trkpt lat="43.76322" lon="5.50398">
        <ele>327.66</ele>
        <time>2010-12-17T02:03:10Z</time>
      </trkpt>
      <trkpt lat="43.76321" lon="5.50379">
        <ele>327.66</ele>
        <time>2010-12-17T02:03:16Z</time>
      </trkpt>
      <trkpt lat="43.7632" lon="5.50358">
        <ele>328.27</ele>
        <time>2010-12-17T02:03:22Z</time>
      </trkpt>
      <trkpt lat="43.76322" lon="5.50339">
        <ele>327.05</ele>
        <time>2010-12-17T02:03:27Z</time>
      </trkpt>
      <trkpt lat="43.76323" lon="5.50336">
        <ele>327.05</ele>
        <time>2010-12-17T02:03:29Z</time>
      </trkpt>
      <trkpt lat="43.76324" lon="5.50307">
        <ele>327.05</ele>
        <time>2010-12-17T02:03:37Z</time>
      </trkpt>
      <trkpt lat="43.76318" lon="5.50271">
        <ele>327.96</ele>
        <time>2010-12-17T02:03:48Z</time>
      </trkpt>
      <trkpt lat="43.76319" lon="5.50259">
        <ele>329.49</ele>
        <time>2010-12-17T02:03:51Z</time>
      </trkpt>
      <trkpt lat="43.76319" lon="5.50242">
        <ele>330.1</ele>
        <time>2010-12-17T02:03:56Z</time>
      </trkpt>
      <trkpt lat="43.7631" lon="5.5022">
        <ele>330.1</ele>
        <time>2010-12-17T02:04:03Z</time>
      </trkpt>
      <trkpt lat="43.76301" lon="5.50208">
        <ele>331.62</ele>
        <time>2010-12-17T02:04:08Z</time>
      </trkpt>
      <trkpt lat="43.76297" lon="5.50195">
        <ele>331.62</ele>
        <time>2010-12-17T02:04:12Z</time>
      </trkpt>
      <trkpt lat="43.76277" lon="5.50191">
        <ele>331.62</ele>
        <time>2010-12-17T02:04:20Z</time>
      </trkpt>
      <trkpt lat="43.76274" lon="5.50192">
        <ele>331.32</ele>
        <time>2010-12-17T02:04:22Z</time>
      </trkpt>
      <trkpt lat="43.76249" lon="5.50212">
        <ele>331.32</ele>
        <time>2010-12-17T02:04:33Z</time>
      </trkpt>
      <trkpt lat="43.76228" lon="5.50227">
        <ele>332.84</ele>
        <time>2010-12-17T02:04:42Z</time>
      </trkpt>
      <trkpt lat="43.76224" lon="5.5023">
        <ele>333.15</ele>
        <time>2010-12-17T02:04:44Z</time>
      </trkpt>
      <trkpt lat="43.76194" lon="5.50254">
        <ele>334.37</ele>
        <time>2010-12-17T02:04:58Z</time>
      </trkpt>
      <trkpt lat="43.76174" lon="5.50269">
        <ele>334.37</ele>
        <time>2010-12-17T02:05:07Z</time>
      </trkpt>
      <trkpt lat="43.76169" lon="5.5027">
        <ele>334.06</ele>
        <time>2010-12-17T02:05:09Z</time>
      </trkpt>
      <trkpt lat="43.76152" lon="5.50273">
        <ele>333.45</ele>
        <time>2010-12-17T02:05:16Z</time>
      </trkpt>
      <trkpt lat="43.76108" lon="5.50287">
        <ele>333.76</ele>
        <time>2010-12-17T02:05:34Z</time>
      </trkpt>
      <trkpt lat="43.7607" lon="5.50305">
        <ele>334.37</ele>
        <time>2010-12-17T02:05:50Z</time>
      </trkpt>
      <trkpt lat="43.76065" lon="5.50307">
        <ele>334.67</ele>
        <time>2010-12-17T02:05:52Z</time>
      </trkpt>
      <trkpt lat="43.76046" lon="5.50315">
        <ele>334.06</ele>
        <time>2010-12-17T02:06:00Z</time>
      </trkpt>
      <trkpt lat="43.76038" lon="5.50321">
        <ele>334.06</ele>
        <time>2010-12-17T02:06:04Z</time>
      </trkpt>
      <trkpt lat="43.7602" lon="5.50329">
        <ele>333.45</ele>
        <time>2010-12-17T02:06:12Z</time>
      </trkpt>
      <trkpt lat="43.7599" lon="5.50346">
        <ele>334.06</ele>
        <time>2010-12-17T02:06:24Z</time>
      </trkpt>
      <trkpt lat="43.7597" lon="5.50358">
        <ele>334.37</ele>
        <time>2010-12-17T02:06:33Z</time>
      </trkpt>
      <trkpt lat="43.7594" lon="5.5037">
        <ele>334.37</ele>
        <time>2010-12-17T02:06:46Z</time>
      </trkpt>
      <trkpt lat="43.75927" lon="5.50375">
        <ele>334.67</ele>
        <time>2010-12-17T02:06:51Z</time>
      </trkpt>
      <trkpt lat="43.75923" lon="5.50375">
        <ele>334.37</ele>
        <time>2010-12-17T02:06:53Z</time>
      </trkpt>
      <trkpt lat="43.75924" lon="5.50381">
        <ele>334.67</ele>
        <time>2010-12-17T02:06:54Z</time>
      </trkpt>
      <trkpt lat="43.75914" lon="5.50384">
        <ele>334.06</ele>
        <time>2010-12-17T02:06:58Z</time>
      </trkpt>
      <trkpt lat="43.75911" lon="5.50387">
        <ele>334.06</ele>
        <time>2010-12-17T02:07:00Z</time>
      </trkpt>
      <trkpt lat="43.75893" lon="5.50389">
        <ele>333.45</ele>
        <time>2010-12-17T02:07:07Z</time>
      </trkpt>
      <trkpt lat="43.75869" lon="5.50386">
        <ele>334.06</ele>
        <time>2010-12-17T02:07:17Z</time>
      </trkpt>
      <trkpt lat="43.75853" lon="5.504">
        <ele>333.45</ele>
        <time>2010-12-17T02:07:24Z</time>
      </trkpt>
      <trkpt lat="43.75852" lon="5.50409">
        <ele>333.15</ele>
        <time>2010-12-17T02:07:27Z</time>
      </trkpt>
      <trkpt lat="43.75852" lon="5.50425">
        <ele>332.54</ele>
        <time>2010-12-17T02:07:32Z</time>
      </trkpt>
      <trkpt lat="43.7584" lon="5.50445">
        <ele>331.93</ele>
        <time>2010-12-17T02:07:39Z</time>
      </trkpt>
    </trkseg>
  </trk>
</gpx>